LH1173 / D-AINE 7700 Squawk Report (26th of January, 2022)

Aircraft A20N Reg No. D-AINE Age 5 years old
Model A320 Jet engines 2 First flight 09-12-16
Registered 02-01-17 Rollout N/A Delivered 02-01-17
Construction No. 7103 Line No. N/A Series 271N(SL)
ADSHEX 3C65C5 Airline name Lufthansa Owner N/A
Airfield based Frankfurt-Main~Hessen~D First tracked N/A

Flight history for D-AINE

Route Flight No Date Playback
Landvetter (GOT) - Frankfurt Main (FRA) LH819 2022-05-25 20:10:00
Frankfurt Main (FRA) - Landvetter (GOT) LH818 2022-05-25 17:38:00
Saint Exupery (LYS) - Frankfurt Main (FRA) LH1077 2022-05-25 16:10:00
Frankfurt Main (FRA) - Saint Exupery (LYS) LH1076 2022-05-25 13:20:00
Linate (LIN) - Frankfurt Main (FRA) LH271 2022-05-25 11:21:00
Frankfurt Main (FRA) - Linate (LIN) LH270 2022-05-25 07:53:00
Dresden (DRS) - Frankfurt Main (FRA) LH207 2022-05-25 06:56:00
Frankfurt Main (FRA) - Dresden (DRS) LH216 2022-05-24 21:19:00
Fiumicino (FCO) - Frankfurt Main (FRA) LH239 2022-05-24 20:26:00
Frankfurt Main (FRA) - Fiumicino (FCO) LH238 2022-05-24 16:48:00
Glasgow (GLA) - Frankfurt Main (FRA) LH961 2022-05-24 15:09:00
Frankfurt Main (FRA) - Glasgow (GLA) LH960 2022-05-24 11:16:00
Heathrow (LHR) - Frankfurt Main (FRA) LH901 2022-05-24 08:12:00
Frankfurt Main (FRA) - Heathrow (LHR) LH922 2022-05-23 21:44:00
Dubrovnik (DBV) - Frankfurt Main (FRA) LH1417 2022-05-23 20:20:00
Frankfurt Main (FRA) - Dubrovnik (DBV) LH1416 2022-05-23 16:16:00
Heathrow (LHR) - Frankfurt Main (FRA) LH903 2022-05-23 14:29:00
Frankfurt Main (FRA) - Heathrow (LHR) LH904 2022-05-23 10:42:00
Heathrow (LHR) - Frankfurt Main (FRA) LH921 2022-05-23 08:18:00
Frankfurt Main (FRA) - Heathrow (LHR) LH920 2022-05-22 19:34:00
Time Lat Lon Altitude Heading Speed Vertical Rate
2022-01-26 10:07:00 GMT 50.044453 8.564367 0 154 0 0
2022-01-26 10:06:53 GMT 50.044483 8.564344 0 154 3 0
2022-01-26 10:06:41 GMT 50.044716 8.564177 0 151 10 0
2022-01-26 10:06:34 GMT 50.044994 8.563973 0 123 10 0
2022-01-26 10:06:25 GMT 50.045036 8.563265 0 70 16 0
2022-01-26 10:06:12 GMT 50.044704 8.561909 0 70 17 0
2022-01-26 10:05:43 GMT 50.043194 8.560681 0 323 16 0
2022-01-26 10:05:27 GMT 50.042854 8.561894 0 303 9 0
2022-01-26 10:05:20 GMT 50.042702 8.562235 0 337 8 0
2022-01-26 10:05:13 GMT 50.042480 8.562377 0 340 6 0
2022-01-26 10:05:01 GMT 50.042236 8.562507 0 340 5 0
2022-01-26 10:04:26 GMT 50.041199 8.562451 0 67 9 0
2022-01-26 10:04:22 GMT 50.041142 8.562191 0 70 9 0
2022-01-26 10:04:13 GMT 50.041000 8.561634 0 70 9 0
2022-01-26 10:04:01 GMT 50.040848 8.561024 0 70 8 0
2022-01-26 10:03:51 GMT 50.040733 8.560536 0 70 8 0
2022-01-26 10:03:42 GMT 50.040630 8.560076 0 70 8 0
2022-01-26 10:03:31 GMT 50.040493 8.559506 0 70 8 0
2022-01-26 10:03:21 GMT 50.040375 8.558999 0 67 8 0
2022-01-26 10:03:11 GMT 50.040253 8.558512 0 70 7 0
2022-01-26 10:03:02 GMT 50.040138 8.558042 0 70 8 0
2022-01-26 10:02:51 GMT 50.040001 8.557477 0 67 11 0
2022-01-26 10:02:41 GMT 50.039814 8.556717 0 70 11 0
2022-01-26 10:02:31 GMT 50.039646 8.555982 0 70 10 0
2022-01-26 10:02:20 GMT 50.039490 8.555325 0 70 8 0
2022-01-26 10:02:10 GMT 50.039360 8.554826 0 70 8 0
2022-01-26 10:02:00 GMT 50.039246 8.554304 0 70 7 0
2022-01-26 10:01:51 GMT 50.039127 8.553840 0 70 7 0
2022-01-26 10:01:40 GMT 50.039036 8.553413 0 70 8 0
2022-01-26 10:01:26 GMT 50.038849 8.552634 0 70 9 0
2022-01-26 10:01:19 GMT 50.038754 8.552242 0 70 9 0
2022-01-26 10:01:04 GMT 50.038513 8.551131 0 92 16 0
2022-01-26 10:00:57 GMT 50.038651 8.550399 0 143 17 0
2022-01-26 10:00:49 GMT 50.039349 8.549911 0 160 25 0
2022-01-26 10:00:39 GMT 50.040386 8.549293 0 160 26 0
2022-01-26 10:00:14 GMT 50.043274 8.547598 0 149 28 0
2022-01-26 10:00:04 GMT 50.044121 8.546369 0 120 26 0
2022-01-26 09:59:55 GMT 50.044510 8.544797 0 95 23 0
2022-01-26 09:59:48 GMT 50.044529 8.543800 0 84 21 0
2022-01-26 09:59:43 GMT 50.044476 8.543027 0 84 25 0
2022-01-26 09:59:39 GMT 50.044418 8.542177 0 84 29 0
2022-01-26 09:59:32 GMT 50.044315 8.540786 0 84 29 0
2022-01-26 09:59:29 GMT 50.044281 8.540154 0 84 29 0
2022-01-26 09:59:19 GMT 50.044144 8.538057 0 84 27 0
2022-01-26 09:59:11 GMT 50.044052 8.536684 0 84 27 0
2022-01-26 09:59:08 GMT 50.044006 8.536142 0 84 27 0
2022-01-26 09:58:58 GMT 50.043797 8.534169 0 73 29 0
2022-01-26 09:58:46 GMT 50.043259 8.531923 0 70 29 0
2022-01-26 09:58:36 GMT 50.042805 8.530049 0 70 29 0
2022-01-26 09:58:27 GMT 50.042385 8.528304 0 70 30 0
2022-01-26 09:58:15 GMT 50.041786 8.525806 0 70 30 0
2022-01-26 09:58:07 GMT 50.041374 8.524072 0 70 30 0
2022-01-26 09:57:56 GMT 50.040886 8.522050 0 70 31 0
2022-01-26 09:57:47 GMT 50.040459 8.520259 0 70 31 0
2022-01-26 09:57:37 GMT 50.039944 8.518172 0 70 31 0
2022-01-26 09:57:26 GMT 50.039433 8.516019 0 70 31 0
2022-01-26 09:57:16 GMT 50.038948 8.513989 0 70 28 0
2022-01-26 09:57:11 GMT 50.038708 8.512977 0 70 27 0
2022-01-26 09:57:07 GMT 50.038525 8.512200 0 70 26 0
2022-01-26 09:56:56 GMT 50.038124 8.510519 0 70 19 0
2022-01-26 09:56:46 GMT 50.037872 8.509412 0 73 14 0
2022-01-26 09:56:32 GMT 50.038078 8.508333 0 177 19 0
2022-01-26 09:56:24 GMT 50.038742 8.508749 0 219 29 0
2022-01-26 09:56:15 GMT 50.039722 8.510062 0 225 35 0
2022-01-26 09:56:06 GMT 50.040653 8.512073 0 244 42 0
2022-01-26 09:55:56 GMT 50.041470 8.515481 75 250 70 0
2022-01-26 09:55:44 GMT 50.042908 8.521415 -225 250 102 -192
2022-01-26 09:55:34 GMT 50.044785 8.529294 -200 250 125 -320
2022-01-26 09:55:28 GMT 50.045937 8.534224 -50 250 123 -768
2022-01-26 09:55:23 GMT 50.047119 8.539196 -50 250 123 -704
2022-01-26 09:55:21 GMT 50.047424 8.540460 -25 250 123 -768
2022-01-26 09:55:20 GMT 50.047752 8.541870 0 250 123 -768
2022-01-26 09:55:17 GMT 50.048172 8.543605 25 250 123 -704
2022-01-26 09:55:16 GMT 50.048538 8.545050 50 250 124 -704
2022-01-26 09:55:13 GMT 50.049007 8.546992 75 250 123 -768
2022-01-26 09:55:12 GMT 50.049290 8.548180 100 250 123 -768
2022-01-26 09:55:11 GMT 50.049568 8.549368 100 250 122 -768
2022-01-26 09:55:09 GMT 50.049957 8.550977 125 250 122 -704
2022-01-26 09:55:07 GMT 50.050358 8.552560 150 250 123 -704
2022-01-26 09:55:03 GMT 50.051056 8.555603 200 250 123 -704
2022-01-26 09:55:00 GMT 50.051559 8.557627 225 250 123 -832
2022-01-26 09:54:57 GMT 50.052174 8.560280 275 250 122 -832
2022-01-26 09:54:54 GMT 50.052979 8.563626 325 250 122 -832
2022-01-26 09:54:52 GMT 50.053150 8.564362 350 250 122 -832
2022-01-26 09:54:51 GMT 50.053391 8.565288 350 250 122 -832
2022-01-26 09:54:50 GMT 50.053757 8.566878 375 250 122 -768
2022-01-26 09:54:48 GMT 50.053989 8.567777 400 250 122 -704
2022-01-26 09:54:47 GMT 50.054169 8.568685 400 250 122 -704
2022-01-26 09:54:45 GMT 50.054596 8.570301 425 250 121 -768
2022-01-26 09:54:44 GMT 50.054810 8.571215 450 250 121 -768
2022-01-26 09:54:42 GMT 50.055248 8.573048 475 250 121 -704
2022-01-26 09:54:39 GMT 50.055725 8.575190 500 250 121 -704
2022-01-26 09:54:37 GMT 50.056084 8.576685 525 250 120 -704
2022-01-26 09:54:36 GMT 50.056271 8.577501 550 249 121 -640
2022-01-26 09:54:35 GMT 50.056782 8.579357 575 249 120 -640
2022-01-26 09:54:33 GMT 50.056961 8.580105 575 249 120 -640
2022-01-26 09:54:32 GMT 50.057156 8.580916 600 249 119 -640
2022-01-26 09:54:31 GMT 50.057343 8.581733 600 250 119 -640
2022-01-26 09:54:29 GMT 50.057739 8.583358 625 250 119 -704
2022-01-26 09:54:27 GMT 50.058041 8.584553 650 250 119 -704
2022-01-26 09:54:26 GMT 50.058506 8.586558 675 250 119 -704
2022-01-26 09:54:23 GMT 50.058838 8.587912 700 250 120 -704
2022-01-26 09:54:22 GMT 50.059067 8.588851 700 250 120 -704
2022-01-26 09:54:21 GMT 50.059296 8.589898 725 250 121 -704
2022-01-26 09:54:19 GMT 50.059715 8.591680 725 250 121 -640
2022-01-26 09:54:18 GMT 50.059948 8.592571 750 250 121 -576
2022-01-26 09:54:17 GMT 50.060368 8.594204 775 250 122 -640
2022-01-26 09:54:15 GMT 50.060555 8.595020 775 250 122 -640
2022-01-26 09:54:13 GMT 50.060944 8.596657 800 251 123 -640
2022-01-26 09:54:12 GMT 50.061035 8.597163 800 251 123 -640
2022-01-26 09:54:10 GMT 50.061485 8.599177 825 251 123 -704
2022-01-26 09:54:09 GMT 50.061676 8.599910 850 251 123 -768
2022-01-26 09:54:08 GMT 50.061859 8.600810 850 250 123 -832
2022-01-26 09:54:07 GMT 50.062092 8.601701 875 250 125 -768
2022-01-26 09:54:05 GMT 50.062508 8.603408 900 250 126 -896
2022-01-26 09:54:04 GMT 50.062729 8.604319 925 250 127 -896
2022-01-26 09:54:03 GMT 50.062927 8.605190 925 250 128 -1024
2022-01-26 09:54:01 GMT 50.063278 8.606632 950 250 130 -1088
2022-01-26 09:54:00 GMT 50.063507 8.607499 975 250 131 -1088
2022-01-26 09:53:59 GMT 50.063721 8.608382 1,000 250 132 -1024
2022-01-26 09:53:57 GMT 50.064148 8.610246 1,025 251 133 -1024
2022-01-26 09:53:56 GMT 50.064331 8.611041 1,050 250 134 -1024
2022-01-26 09:53:55 GMT 50.064510 8.611797 1,050 251 135 -960
2022-01-26 09:53:54 GMT 50.065018 8.614004 1,100 250 137 -960
2022-01-26 09:53:52 GMT 50.065247 8.614944 1,100 250 138 -960
2022-01-26 09:53:51 GMT 50.065430 8.615811 1,125 250 139 -896
2022-01-26 09:53:50 GMT 50.065659 8.616751 1,150 250 140 -896
2022-01-26 09:53:48 GMT 50.066208 8.619136 1,175 250 143 -896
2022-01-26 09:53:46 GMT 50.066467 8.620185 1,200 250 144 -832
2022-01-26 09:53:44 GMT 50.067303 8.623599 1,250 250 149 -896
2022-01-26 09:53:41 GMT 50.067677 8.625233 1,275 250 151 -640
2022-01-26 09:53:40 GMT 50.067993 8.626580 1,275 250 153 -768
2022-01-26 09:53:39 GMT 50.068188 8.627534 1,300 250 154 -896
2022-01-26 09:53:37 GMT 50.068703 8.629687 1,325 250 155 -1024
2022-01-26 09:53:36 GMT 50.068935 8.630726 1,350 250 156 -1088
2022-01-26 09:53:35 GMT 50.069458 8.632796 1,400 250 157 -1088
2022-01-26 09:53:32 GMT 50.069687 8.633881 1,400 250 157 -1088
2022-01-26 09:53:31 GMT 50.069916 8.634748 1,425 250 158 -1024
2022-01-26 09:53:30 GMT 50.070236 8.636070 1,450 250 159 -1024
2022-01-26 09:53:28 GMT 50.070702 8.638149 1,500 250 160 -1024
2022-01-26 09:53:27 GMT 50.070923 8.639085 1,500 250 161 -1088
2022-01-26 09:53:26 GMT 50.071198 8.640169 1,525 250 161 -1152
2022-01-26 09:53:25 GMT 50.071445 8.641267 1,550 250 162 -1088
2022-01-26 09:53:23 GMT 50.071976 8.643349 1,575 250 164 -960
2022-01-26 09:53:22 GMT 50.072205 8.644433 1,600 250 165 -960
2022-01-26 09:53:21 GMT 50.072525 8.645590 1,600 250 166 -896
2022-01-26 09:53:20 GMT 50.072754 8.646746 1,625 250 167 -896
2022-01-26 09:53:18 GMT 50.073311 8.648838 1,650 250 169 -896
2022-01-26 09:53:16 GMT 50.073944 8.651589 1,650 250 170 -832
2022-01-26 09:53:15 GMT 50.074196 8.652624 1,675 250 173 -768
2022-01-26 09:53:14 GMT 50.074539 8.653974 1,700 250 173 -832
2022-01-26 09:53:13 GMT 50.074799 8.655074 1,700 250 174 -896
2022-01-26 09:53:11 GMT 50.075089 8.656359 1,725 250 174 -960
2022-01-26 09:53:09 GMT 50.075916 8.659825 1,750 250 175 -832
2022-01-26 09:53:08 GMT 50.076279 8.661274 1,775 250 177 -896
2022-01-26 09:53:06 GMT 50.076828 8.663659 1,800 250 178 -896
2022-01-26 09:53:05 GMT 50.076988 8.664279 1,825 250 178 -960
2022-01-26 09:53:03 GMT 50.077732 8.667471 1,850 250 178 -1152
2022-01-26 09:53:02 GMT 50.077881 8.668068 1,875 250 178 -1152
2022-01-26 09:52:57 GMT 50.080059 8.677046 2,025 250 178 -1344
2022-01-26 09:52:54 GMT 50.080059 8.677046 2,025 250 178 -1344
2022-01-26 09:52:50 GMT 50.081734 8.684024 2,175 250 177 -1408
2022-01-26 09:52:47 GMT 50.082294 8.686474 2,500 250 177 -1408
2022-01-26 09:52:44 GMT 50.082993 8.689443 2,325 250 177 -1344
2022-01-26 09:52:41 GMT 50.084015 8.693897 2,350 251 177 -1408
2022-01-26 09:52:38 GMT 50.084976 8.697992 2,450 251 177 -1280
2022-01-26 09:52:35 GMT 50.085739 8.701172 2,500 251 177 -1280
2022-01-26 09:52:30 GMT 50.087181 8.707407 2,600 251 176 -1216
2022-01-26 09:52:27 GMT 50.087929 8.710748 2,650 250 175 -1088
2022-01-26 09:52:24 GMT 50.088547 8.713387 2,700 250 175 -1024
2022-01-26 09:52:21 GMT 50.089790 8.718616 2,775 250 176 -896
2022-01-26 09:52:17 GMT 50.090652 8.722205 2,800 250 177 -832
2022-01-26 09:52:14 GMT 50.091431 8.725385 2,950 250 179 -1024
2022-01-26 09:52:11 GMT 50.092442 8.729677 2,900 250 179 -960
2022-01-26 09:52:09 GMT 50.092987 8.732035 2,950 250 180 -1024
2022-01-26 09:52:06 GMT 50.093765 8.735287 2,975 250 181 -1024
2022-01-26 09:52:02 GMT 50.095840 8.743855 3,050 250 182 -1152
2022-01-26 09:51:59 GMT 50.095840 8.743855 3,100 250 182 -1152
2022-01-26 09:51:56 GMT 50.096558 8.746780 3,200 250 182 -1280
2022-01-26 09:51:53 GMT 50.097565 8.750982 3,225 250 182 -1280
2022-01-26 09:51:50 GMT 50.098480 8.754875 3,300 250 182 -1536
2022-01-26 09:51:47 GMT 50.099564 8.759295 3,375 250 182 -1408
2022-01-26 09:51:44 GMT 50.100357 8.762464 3,450 250 181 -1344
2022-01-26 09:51:40 GMT 50.101475 8.767238 3,525 250 182 -1152
2022-01-26 09:51:38 GMT 50.102188 8.770198 3,575 250 181 -1152
2022-01-26 09:51:35 GMT 50.102966 8.773523 3,625 250 180 -1088
2022-01-26 09:51:32 GMT 50.103848 8.777185 3,675 250 180 -1088
2022-01-26 09:51:29 GMT 50.104637 8.780600 3,700 250 180 -1024
2022-01-26 09:51:26 GMT 50.105476 8.784163 3,875 250 177 -960
2022-01-26 09:51:23 GMT 50.106262 8.787545 3,825 251 178 -960
2022-01-26 09:51:19 GMT 50.107525 8.792848 3,875 250 176 -960
2022-01-26 09:51:16 GMT 50.108410 8.796560 3,925 250 176 -960
2022-01-26 09:51:13 GMT 50.109154 8.799752 3,975 250 174 -960
2022-01-26 09:51:10 GMT 50.110226 8.804132 4,050 250 174 -896
2022-01-26 09:51:08 GMT 50.110504 8.805319 4,150 251 174 -768
2022-01-26 09:51:05 GMT 50.111343 8.808957 4,500 251 174 -768
2022-01-26 09:51:02 GMT 50.112461 8.813782 4,150 251 174 -768
2022-01-26 09:50:59 GMT 50.113266 8.817179 4,175 250 174 -768
2022-01-26 09:50:57 GMT 50.113678 8.818986 4,225 250 174 -768
2022-01-26 09:50:54 GMT 50.114693 8.823209 4,250 250 174 -768
2022-01-26 09:50:51 GMT 50.115234 8.825563 4,275 250 174 -704
2022-01-26 09:50:48 GMT 50.115952 8.828777 4,300 251 175 -576
2022-01-26 09:50:45 GMT 50.117157 8.833731 4,350 250 176 -576
2022-01-26 09:50:41 GMT 50.118046 8.837536 4,375 250 177 -576
2022-01-26 09:50:38 GMT 50.118896 8.841175 4,425 251 178 -640
2022-01-26 09:50:35 GMT 50.119862 8.845256 4,450 251 178 -576
2022-01-26 09:50:31 GMT 50.121002 8.850066 4,475 251 179 -192
2022-01-26 09:50:27 GMT 50.122055 8.854836 4,500 251 180 0
2022-01-26 09:50:24 GMT 50.122742 8.857727 4,500 251 180 0
2022-01-26 09:50:19 GMT 50.124298 8.864594 4,500 251 180 -64
2022-01-26 09:50:16 GMT 50.125076 8.867971 4,500 251 181 -64
2022-01-26 09:50:13 GMT 50.125912 8.871534 4,500 251 181 -64
2022-01-26 09:50:09 GMT 50.127171 8.877102 4,500 251 181 0
2022-01-26 09:50:06 GMT 50.128197 8.881407 4,500 251 182 192
2022-01-26 09:50:03 GMT 50.128845 8.884302 4,500 250 183 0
2022-01-26 09:49:59 GMT 50.130020 8.889313 4,500 250 187 0
2022-01-26 09:49:56 GMT 50.131035 8.893581 4,500 247 195 0
2022-01-26 09:49:53 GMT 50.131622 8.895818 4,500 247 195 0
2022-01-26 09:49:50 GMT 50.132988 8.901004 4,500 247 197 0
2022-01-26 09:49:47 GMT 50.134293 8.905532 4,500 246 202 0
2022-01-26 09:49:44 GMT 50.135513 8.909768 4,500 245 207 0
2022-01-26 09:49:39 GMT 50.137039 8.914737 4,500 244 214 0
2022-01-26 09:49:36 GMT 50.138435 8.919191 4,475 243 215 0
2022-01-26 09:49:33 GMT 50.139771 8.923284 4,500 242 218 -64
2022-01-26 09:49:28 GMT 50.142487 8.930846 4,500 240 223 -64
2022-01-26 09:49:25 GMT 50.143936 8.934704 4,500 238 226 -64
2022-01-26 09:49:22 GMT 50.145885 8.939382 4,500 232 230 0
2022-01-26 09:49:19 GMT 50.147095 8.942055 4,500 230 232 -128
2022-01-26 09:49:16 GMT 50.149338 8.946485 4,500 227 234 -192
2022-01-26 09:49:13 GMT 50.151215 8.949521 4,525 223 237 -320
2022-01-26 09:49:10 GMT 50.153610 8.953041 4,550 218 242 -448
2022-01-26 09:49:07 GMT 50.156452 8.956456 4,575 213 244 -640
2022-01-26 09:49:04 GMT 50.159431 8.959573 4,600 207 247 -832
2022-01-26 09:49:00 GMT 50.163342 8.962617 4,675 199 251 -960
2022-01-26 09:48:56 GMT 50.167648 8.964988 4,725 183 259 -1024
2022-01-26 09:48:53 GMT 50.174702 8.966551 4,925 127 286 -1344
2022-01-26 09:48:50 GMT 50.174702 8.966551 4,850 176 263 -1024
2022-01-26 09:48:47 GMT 50.178238 8.966477 4,875 172 266 -960
2022-01-26 09:48:44 GMT 50.182987 8.965512 4,950 163 270 -960
2022-01-26 09:48:40 GMT 50.187607 8.963687 5,000 158 272 -960
2022-01-26 09:48:36 GMT 50.192642 8.960579 5,075 149 277 -1024
2022-01-26 09:48:33 GMT 50.195755 8.958122 5,125 144 279 -1024
2022-01-26 09:48:28 GMT 50.200443 8.953189 5,250 135 284 -1152
2022-01-26 09:48:25 GMT 50.203514 8.949107 5,300 130 285 -1216
2022-01-26 09:48:22 GMT 50.206448 8.944653 5,325 129 287 -1280
2022-01-26 09:48:17 GMT 50.210220 8.936727 5,450 115 288 -1472
2022-01-26 09:48:15 GMT 50.211941 8.932553 5,525 114 289 -1472
2022-01-26 09:48:12 GMT 50.213524 8.927579 5,575 107 290 -1344
2022-01-26 09:48:09 GMT 50.215153 8.921715 5,700 102 291 -1408
2022-01-26 09:48:06 GMT 50.216125 8.916706 5,700 99 291 -1408
2022-01-26 09:48:03 GMT 50.217110 8.909838 5,800 94 291 -1408
2022-01-26 09:48:00 GMT 50.217819 8.901311 5,900 91 292 -1408
2022-01-26 09:47:57 GMT 50.217865 8.898420 5,925 88 292 -1344
2022-01-26 09:47:54 GMT 50.217728 8.890686 6,000 81 294 -576
2022-01-26 09:47:51 GMT 50.217297 8.885267 6,000 79 295 -256
2022-01-26 09:47:46 GMT 50.215942 8.874857 6,025 74 298 -384
2022-01-26 09:47:42 GMT 50.214222 8.864853 6,075 75 303 -640
2022-01-26 09:47:37 GMT 50.211319 8.847464 6,125 75 307 -896
2022-01-26 09:47:34 GMT 50.211319 8.847464 6,200 75 309 -1024
2022-01-26 09:47:31 GMT 50.210632 8.843127 6,200 76 310 -1024
2022-01-26 09:47:27 GMT 50.209194 8.834270 6,300 76 314 -1024
2022-01-26 09:47:24 GMT 50.207932 8.826141 6,350 76 315 -1024
2022-01-26 09:47:21 GMT 50.207062 8.820648 6,375 75 317 -1024
2022-01-26 09:47:17 GMT 50.205563 8.811332 6,450 75 320 -1024
2022-01-26 09:47:15 GMT 50.204819 8.806915 6,475 75 321 -1024
2022-01-26 09:47:11 GMT 50.203354 8.797664 6,550 75 324 -1024
2022-01-26 09:47:07 GMT 50.201885 8.788617 6,625 75 327 -1088
2022-01-26 09:47:03 GMT 50.200195 8.778076 6,700 75 330 -1088
2022-01-26 09:47:00 GMT 50.199558 8.774439 6,750 75 332 -1152
2022-01-26 09:46:57 GMT 50.198135 8.765572 6,825 75 334 -1216
2022-01-26 09:46:54 GMT 50.197090 8.759073 6,900 75 338 -1472
2022-01-26 09:46:51 GMT 50.195847 8.751550 6,950 75 338 -1472
2022-01-26 09:46:47 GMT 50.194111 8.740960 7,050 75 341 -1408
2022-01-26 09:46:43 GMT 50.192760 8.732572 7,250 75 344 -1408
2022-01-26 09:46:40 GMT 50.191738 8.726337 7,250 75 346 -1408
2022-01-26 09:46:37 GMT 50.190434 8.718394 7,325 75 348 -1408
2022-01-26 09:46:34 GMT 50.189320 8.711416 7,475 75 354 -1408
2022-01-26 09:46:31 GMT 50.187790 8.702111 7,450 75 352 -1408
2022-01-26 09:46:28 GMT 50.186523 8.694268 7,525 75 355 -1344
2022-01-26 09:46:25 GMT 50.185730 8.689318 7,600 75 357 -1344
2022-01-26 09:46:22 GMT 50.184448 8.681584 7,650 75 362 -1088
2022-01-26 09:46:19 GMT 50.183304 8.674573 7,725 75 365 -1088
2022-01-26 09:46:16 GMT 50.182243 8.667990 7,750 75 366 -1088
2022-01-26 09:46:14 GMT 50.181381 8.662647 7,750 75 367 -1024
2022-01-26 09:46:11 GMT 50.180054 8.654480 7,800 75 367 -960
2022-01-26 09:46:08 GMT 50.178612 8.645498 7,875 75 367 -960
2022-01-26 09:46:05 GMT 50.177399 8.638290 8,025 75 368 -960
2022-01-26 09:46:02 GMT 50.176144 8.630652 8,050 75 369 -960
2022-01-26 09:45:59 GMT 50.174973 8.623689 8,050 75 369 -1024
2022-01-26 09:45:56 GMT 50.173782 8.616245 8,050 75 369 -1024
2022-01-26 09:45:54 GMT 50.172745 8.610015 8,100 75 370 -1024
2022-01-26 09:45:51 GMT 50.171768 8.603854 8,175 75 370 -1024
2022-01-26 09:45:48 GMT 50.170277 8.594797 8,200 75 370 -1024
2022-01-26 09:45:45 GMT 50.168839 8.586032 8,275 75 370 -1024
2022-01-26 09:45:42 GMT 50.166412 8.571340 8,350 75 370 -1024
2022-01-26 09:45:39 GMT 50.166412 8.571340 8,425 75 370 -1088
2022-01-26 09:45:36 GMT 50.164124 8.557410 8,450 75 370 -1088
2022-01-26 09:45:34 GMT 50.164124 8.557410 8,450 75 370 -1088
2022-01-26 09:45:31 GMT 50.163017 8.550704 8,525 75 370 -1088
2022-01-26 09:45:28 GMT 50.161743 8.542954 8,550 75 370 -1088
2022-01-26 09:45:25 GMT 50.160503 8.535412 8,625 75 371 -1024
2022-01-26 09:45:22 GMT 50.159134 8.527198 8,650 75 371 -1024
2022-01-26 09:45:19 GMT 50.157990 8.520187 8,850 75 372 -1024
2022-01-26 09:45:16 GMT 50.156685 8.512400 8,775 75 372 -960
2022-01-26 09:45:13 GMT 50.155659 8.506165 8,800 75 372 -960
2022-01-26 09:45:10 GMT 50.154030 8.496589 8,875 75 372 -960
2022-01-26 09:45:07 GMT 50.152309 8.486196 8,900 75 372 -960
2022-01-26 09:45:04 GMT 50.151283 8.479961 9,000 75 372 -960
2022-01-26 09:45:00 GMT 50.149189 8.467564 9,025 75 372 -896
2022-01-26 09:44:57 GMT 50.147282 8.455835 9,075 75 373 -896
2022-01-26 09:44:54 GMT 50.147282 8.455835 9,125 75 373 -896
2022-01-26 09:44:51 GMT 50.145905 8.447547 9,125 75 373 -896
2022-01-26 09:44:48 GMT 50.143230 8.431339 9,200 75 374 -960
2022-01-26 09:44:45 GMT 50.143230 8.431339 9,275 75 374 -960
2022-01-26 09:44:43 GMT 50.142563 8.427164 9,300 75 374 -960
2022-01-26 09:44:40 GMT 50.139679 8.409962 9,325 75 374 -960
2022-01-26 09:44:37 GMT 50.139679 8.409962 9,550 75 378 -1088
2022-01-26 09:44:34 GMT 50.138577 8.403428 9,425 75 375 -1024
2022-01-26 09:44:31 GMT 50.137299 8.395578 9,825 75 377 -1024
2022-01-26 09:44:28 GMT 50.135925 8.387483 9,550 75 378 -1088
2022-01-26 09:44:25 GMT 50.134434 8.378560 9,575 75 377 -1088
2022-01-26 09:44:22 GMT 50.133362 8.371953 9,675 75 378 -1088
2022-01-26 09:44:19 GMT 50.131851 8.363053 9,675 75 378 -1088
2022-01-26 09:44:15 GMT 50.129917 8.351465 9,750 75 377 -1024
2022-01-26 09:44:13 GMT 50.129311 8.347828 9,875 75 377 -960
2022-01-26 09:44:10 GMT 50.127777 8.338623 9,850 75 377 -1024
2022-01-26 09:44:07 GMT 50.126659 8.332016 9,900 75 377 -1024
2022-01-26 09:44:04 GMT 50.125580 8.325468 9,925 75 377 -960
2022-01-26 09:44:02 GMT 50.124481 8.318891 9,975 75 377 -960
2022-01-26 09:43:59 GMT 50.123199 8.311302 10,025 75 377 -960
2022-01-26 09:43:56 GMT 50.122189 8.305219 10,150 75 377 -960
2022-01-26 09:43:53 GMT 50.120453 8.294967 10,125 75 377 -960
2022-01-26 09:43:50 GMT 50.119125 8.287088 10,225 75 377 -960
2022-01-26 09:43:47 GMT 50.116562 8.271910 10,200 75 377 -960
2022-01-26 09:43:44 GMT 50.116562 8.271910 10,275 75 378 -960
2022-01-26 09:43:42 GMT 50.115395 8.265059 10,300 75 378 -960
2022-01-26 09:43:39 GMT 50.114136 8.257454 10,525 75 379 -960
2022-01-26 09:43:36 GMT 50.113205 8.252217 10,400 75 378 -960
2022-01-26 09:43:33 GMT 50.111343 8.241119 10,425 75 379 -960
2022-01-26 09:43:29 GMT 50.109947 8.232694 10,500 75 379 -960
2022-01-26 09:43:26 GMT 50.108643 8.224784 10,525 75 379 -960
2022-01-26 09:43:23 GMT 50.105713 8.207365 10,600 75 379 -960
2022-01-26 09:43:20 GMT 50.105713 8.207365 10,650 75 379 -960
2022-01-26 09:43:17 GMT 50.104340 8.199198 10,700 75 379 -960
2022-01-26 09:43:14 GMT 50.103008 8.191273 10,725 75 380 -960
2022-01-26 09:43:09 GMT 50.100636 8.177243 10,975 75 380 -960
2022-01-26 09:43:06 GMT 50.099796 8.172269 10,925 75 381 -768
2022-01-26 09:43:03 GMT 50.098400 8.164030 10,925 75 381 -832
2022-01-26 09:43:01 GMT 50.097515 8.158759 10,950 75 381 -704
2022-01-26 09:42:58 GMT 50.095963 8.149470 10,975 75 381 -512
2022-01-26 09:42:55 GMT 50.094681 8.142026 11,000 75 381 -384
2022-01-26 09:42:52 GMT 50.093094 8.132481 11,000 75 381 0
2022-01-26 09:42:49 GMT 50.092163 8.126914 11,000 75 380 0
2022-01-26 09:42:46 GMT 50.090767 8.118748 11,000 75 380 0
2022-01-26 09:42:43 GMT 50.089005 8.108127 11,000 75 380 0
2022-01-26 09:42:40 GMT 50.088020 8.102343 11,000 75 380 0
2022-01-26 09:42:37 GMT 50.086670 8.094400 11,000 75 380 0
2022-01-26 09:42:34 GMT 50.085087 8.085121 11,000 75 380 0
2022-01-26 09:42:31 GMT 50.083549 8.075916 11,000 75 380 0
2022-01-26 09:42:28 GMT 50.082851 8.071908 11,000 75 380 0
2022-01-26 09:42:25 GMT 50.079922 8.054760 11,000 75 380 0
2022-01-26 09:42:22 GMT 50.079922 8.054760 11,000 75 380 0
2022-01-26 09:42:19 GMT 50.078804 8.048153 11,000 75 379 0
2022-01-26 09:42:16 GMT 50.077358 8.039468 11,000 75 379 0
2022-01-26 09:42:13 GMT 50.074905 8.025224 11,000 75 379 0
2022-01-26 09:42:11 GMT 50.074905 8.025224 11,000 75 379 0
2022-01-26 09:42:08 GMT 50.073822 8.018906 11,000 75 379 0
2022-01-26 09:42:05 GMT 50.072472 8.010666 11,000 75 379 0
2022-01-26 09:42:02 GMT 50.070889 8.001462 11,000 75 379 0
2022-01-26 09:41:59 GMT 50.069817 7.995152 11,000 75 379 0
2022-01-26 09:41:56 GMT 50.068680 7.988289 11,000 75 379 0
2022-01-26 09:41:53 GMT 50.066803 7.977448 11,000 75 379 0
2022-01-26 09:41:51 GMT 50.066208 7.973761 11,000 75 379 0
2022-01-26 09:41:48 GMT 50.064651 7.964799 11,000 75 379 0
2022-01-26 09:41:45 GMT 50.062229 7.950613 11,000 75 379 0
2022-01-26 09:41:42 GMT 50.062229 7.950613 11,000 75 379 0
2022-01-26 09:41:40 GMT 50.061264 7.945067 11,000 75 379 0
2022-01-26 09:41:37 GMT 50.059982 7.937405 11,000 75 379 0
2022-01-26 09:41:34 GMT 50.058460 7.928492 11,000 75 379 0
2022-01-26 09:41:31 GMT 50.057098 7.920564 11,000 75 379 0
2022-01-26 09:41:28 GMT 50.055405 7.910807 11,000 75 379 0
2022-01-26 09:41:24 GMT 50.053989 7.902362 11,000 75 379 0
2022-01-26 09:41:21 GMT 50.052521 7.893966 11,025 75 379 0
2022-01-26 09:41:18 GMT 50.051147 7.885798 11,000 75 379 0
2022-01-26 09:41:15 GMT 50.049545 7.876547 11,000 75 379 0
2022-01-26 09:41:12 GMT 50.048630 7.871270 11,000 75 379 0
2022-01-26 09:41:08 GMT 50.046265 7.857303 11,000 75 379 0
2022-01-26 09:41:05 GMT 50.045097 7.850696 11,000 75 379 0
2022-01-26 09:41:02 GMT 50.044029 7.844387 11,000 75 379 0
2022-01-26 09:41:00 GMT 50.043331 7.840452 11,000 75 379 0
2022-01-26 09:40:57 GMT 50.041931 7.832287 11,025 75 378 -64
2022-01-26 09:40:54 GMT 50.040443 7.823602 11,025 75 378 -128
2022-01-26 09:40:51 GMT 50.038925 7.814676 11,025 75 378 -256
2022-01-26 09:40:48 GMT 50.037090 7.804153 11,050 74 377 -384
2022-01-26 09:40:45 GMT 50.036224 7.799209 11,075 74 377 -640
2022-01-26 09:40:42 GMT 50.034851 7.791041 11,100 74 377 -832
2022-01-26 09:40:40 GMT 50.034348 7.788222 11,150 74 377 -1024
2022-01-26 09:40:37 GMT 50.032856 7.779508 11,200 74 377 -1024
2022-01-26 09:40:34 GMT 50.031273 7.770377 11,225 74 377 -1024
2022-01-26 09:40:31 GMT 50.029690 7.761173 11,300 74 377 -1024
2022-01-26 09:40:27 GMT 50.027641 7.749370 11,375 75 378 -1024
2022-01-26 09:40:24 GMT 50.026566 7.743121 11,400 75 378 -1024
2022-01-26 09:40:21 GMT 50.025696 7.738133 11,650 75 378 -1024
2022-01-26 09:40:19 GMT 50.024525 7.731331 11,500 74 379 -1024
2022-01-26 09:40:16 GMT 50.023270 7.724184 11,525 74 386 -1280
2022-01-26 09:40:12 GMT 50.021030 7.711289 11,625 74 380 -1024
2022-01-26 09:40:09 GMT 50.019962 7.704979 11,675 74 381 -1024
2022-01-26 09:40:06 GMT 50.018692 7.697585 11,700 75 380 -1024
2022-01-26 09:40:03 GMT 50.017494 7.690727 11,750 75 380 -1024
2022-01-26 09:40:00 GMT 50.015854 7.681250 12,050 75 381 -1088
2022-01-26 09:39:57 GMT 50.014515 7.673356 11,875 74 382 -1088
2022-01-26 09:39:54 GMT 50.012653 7.662518 11,950 75 383 -1152
2022-01-26 09:39:50 GMT 50.011303 7.654798 12,025 74 385 -1280
2022-01-26 09:39:47 GMT 50.009949 7.646773 12,050 74 385 -1280
2022-01-26 09:39:44 GMT 50.007717 7.634013 12,125 74 386 -1280
2022-01-26 09:39:41 GMT 50.007294 7.631595 12,175 74 386 -1280
2022-01-26 09:39:36 GMT 50.004684 7.616633 12,300 74 386 -1280
2022-01-26 09:39:33 GMT 50.003494 7.609911 12,350 74 386 -1280
2022-01-26 09:39:30 GMT 50.001938 7.601093 12,450 74 386 -1280
2022-01-26 09:39:27 GMT 50.000290 7.591770 12,500 74 386 -1280
2022-01-26 09:39:24 GMT 49.998688 7.582645 12,550 74 386 -1280
2022-01-26 09:39:21 GMT 49.997910 7.578109 12,625 74 386 -1280
2022-01-26 09:39:18 GMT 49.996452 7.570100 12,700 74 386 -1280
2022-01-26 09:39:15 GMT 49.994915 7.561266 12,750 74 386 -1280
2022-01-26 09:39:12 GMT 49.993515 7.553245 12,825 74 387 -1344
2022-01-26 09:39:09 GMT 49.992264 7.546271 12,875 74 387 -1344
2022-01-26 09:39:06 GMT 49.991051 7.539293 12,950 74 387 -1344
2022-01-26 09:39:03 GMT 49.989285 7.529124 13,025 74 388 -1344
2022-01-26 09:39:00 GMT 49.987747 7.520286 13,075 74 388 -1408
2022-01-26 09:38:57 GMT 49.986210 7.511679 13,175 74 389 -1344
2022-01-26 09:38:54 GMT 49.984818 7.503590 13,250 74 389 -1344
2022-01-26 09:38:51 GMT 49.983418 7.495571 13,300 74 389 -1344
2022-01-26 09:38:48 GMT 49.981693 7.485846 13,375 74 390 -1280
2022-01-26 09:38:45 GMT 49.980606 7.479593 13,425 74 391 -1216
2022-01-26 09:38:42 GMT 49.978947 7.469887 13,475 74 391 -1216
2022-01-26 09:38:39 GMT 49.977997 7.464487 13,575 74 390 -1216
2022-01-26 09:38:36 GMT 49.976250 7.454446 13,600 74 390 -1216
2022-01-26 09:38:33 GMT 49.975021 7.447429 13,675 74 390 -1216
2022-01-26 09:38:29 GMT 49.973740 7.440129 13,700 74 390 -1280
2022-01-26 09:38:27 GMT 49.972137 7.431239 13,800 74 400 -1344
2022-01-26 09:38:23 GMT 49.970764 7.423361 13,850 74 393 -1344
2022-01-26 09:38:20 GMT 49.969128 7.414138 13,925 74 394 -1408
2022-01-26 09:38:17 GMT 49.967194 7.403267 14,000 74 397 -1344
2022-01-26 09:38:13 GMT 49.965134 7.391414 14,100 74 397 -1280
2022-01-26 09:38:10 GMT 49.964100 7.385336 14,150 74 397 -1280
2022-01-26 09:38:08 GMT 49.963531 7.382379 14,175 74 397 -1280
2022-01-26 09:38:05 GMT 49.961838 7.372694 14,300 74 398 -1344
2022-01-26 09:38:02 GMT 49.960190 7.363080 14,350 74 398 -1344
2022-01-26 09:37:58 GMT 49.958698 7.354827 14,400 74 399 -1344
2022-01-26 09:37:55 GMT 49.956848 7.344360 14,525 74 400 -1344
2022-01-26 09:37:52 GMT 49.955338 7.335831 14,575 74 400 -1344
2022-01-26 09:37:49 GMT 49.953949 7.327807 15,550 74 405 -1216
2022-01-26 09:37:46 GMT 49.952179 7.317834 14,700 74 401 -1344
2022-01-26 09:37:42 GMT 49.950027 7.305691 14,800 74 402 -1280
2022-01-26 09:37:39 GMT 49.948784 7.298708 14,850 74 402 -1280
2022-01-26 09:37:35 GMT 49.947338 7.290691 14,950 74 403 -1280
2022-01-26 09:37:32 GMT 49.945267 7.278948 15,000 74 403 -1216
2022-01-26 09:37:28 GMT 49.943195 7.267308 15,100 74 403 -1280
2022-01-26 09:37:25 GMT 49.941566 7.258103 15,175 74 404 -1280
2022-01-26 09:37:22 GMT 49.940369 7.251410 15,200 74 404 -1280
2022-01-26 09:37:19 GMT 49.939178 7.244688 15,325 74 405 -1280
2022-01-26 09:37:15 GMT 49.935001 7.221210 15,725 74 405 -1280
2022-01-26 09:37:12 GMT 49.935001 7.221210 15,425 74 405 -1216
2022-01-26 09:37:09 GMT 49.934490 7.218389 15,675 74 407 -1344
2022-01-26 09:37:07 GMT 49.931698 7.202726 15,550 74 405 -1216
2022-01-26 09:37:04 GMT 49.931698 7.202726 15,600 74 405 -1216
2022-01-26 09:37:01 GMT 49.930206 7.194310 15,675 74 406 -1216
2022-01-26 09:36:58 GMT 49.928650 7.185637 15,700 74 406 -1216
2022-01-26 09:36:55 GMT 49.927368 7.178337 15,825 74 406 -1216
2022-01-26 09:36:52 GMT 49.926064 7.171029 15,875 74 406 -1280
2022-01-26 09:36:49 GMT 49.924255 7.160990 15,875 74 406 -1280
2022-01-26 09:36:46 GMT 49.922882 7.153401 16,150 74 406 -1280
2022-01-26 09:36:43 GMT 49.921085 7.143266 16,750 74 410 -1280
2022-01-26 09:36:39 GMT 49.919037 7.131760 16,125 74 407 -1344
2022-01-26 09:36:36 GMT 49.917080 7.120774 16,175 74 407 -1344
2022-01-26 09:36:33 GMT 49.916008 7.114909 16,275 74 418 0
2022-01-26 09:36:30 GMT 49.914688 7.107576 16,350 74 409 -1344
2022-01-26 09:36:27 GMT 49.913406 7.100276 16,375 74 408 -1344
2022-01-26 09:36:24 GMT 49.910145 7.081950 16,450 74 409 -1344
2022-01-26 09:36:21 GMT 49.910145 7.081950 16,725 74 409 -1280
2022-01-26 09:36:18 GMT 49.908749 7.074305 16,675 74 409 -1280
2022-01-26 09:36:15 GMT 49.906952 7.064137 16,675 74 410 -1280
2022-01-26 09:36:12 GMT 49.905441 7.055598 16,725 74 410 -1216
2022-01-26 09:36:09 GMT 49.903793 7.046573 16,775 74 411 -1280
2022-01-26 09:36:07 GMT 49.903198 7.043104 16,875 74 413 -1152
2022-01-26 09:36:04 GMT 49.901253 7.032363 16,950 74 413 -1152
2022-01-26 09:36:01 GMT 49.899719 7.023805 16,900 74 413 -1152
2022-01-26 09:35:58 GMT 49.898273 7.015884 17,000 74 413 -1024
2022-01-26 09:35:55 GMT 49.897110 7.009277 17,000 74 413 -1024
2022-01-26 09:35:52 GMT 49.895386 6.999627 17,100 74 414 -1024
2022-01-26 09:35:49 GMT 49.893723 6.990485 17,175 74 414 -1024
2022-01-26 09:35:47 GMT 49.892853 6.985642 20,825 74 416 -960
2022-01-26 09:35:44 GMT 49.891384 6.977358 17,225 74 414 -1024
2022-01-26 09:35:41 GMT 49.889381 6.966223 17,250 74 415 -1024
2022-01-26 09:35:38 GMT 49.888264 6.960284 17,325 74 415 -960
2022-01-26 09:35:36 GMT 49.886776 6.951970 17,725 74 417 -960
2022-01-26 09:35:33 GMT 49.885330 6.943953 17,400 74 416 -960
2022-01-26 09:35:30 GMT 49.883972 6.936493 17,425 74 416 -960
2022-01-26 09:35:27 GMT 49.882187 6.926446 17,500 74 416 -960
2022-01-26 09:35:23 GMT 49.880035 6.914737 17,550 74 416 -960
2022-01-26 09:35:19 GMT 49.878159 6.904401 17,625 74 416 -960
2022-01-26 09:35:16 GMT 49.876923 6.897535 17,700 74 416 -960
2022-01-26 09:35:13 GMT 49.875183 6.888066 17,725 74 416 -960
2022-01-26 09:35:10 GMT 49.873508 6.878926 17,775 74 417 -960
2022-01-26 09:35:07 GMT 49.872112 6.871132 17,800 74 417 -960
2022-01-26 09:35:04 GMT 49.870514 6.862552 17,875 74 417 -960
2022-01-26 09:35:01 GMT 49.869003 6.854168 17,900 74 418 -896
2022-01-26 09:34:58 GMT 49.867222 6.844408 18,125 74 419 -960
2022-01-26 09:34:55 GMT 49.865662 6.835809 18,000 74 418 -896
2022-01-26 09:34:52 GMT 49.864151 6.827409 18,075 74 419 -960
2022-01-26 09:34:49 GMT 49.862045 6.815932 18,075 74 419 -960
2022-01-26 09:34:46 GMT 49.860535 6.807548 18,125 74 419 -960
2022-01-26 09:34:43 GMT 49.859169 6.800017 18,175 74 420 -1024
2022-01-26 09:34:40 GMT 49.858147 6.794227 18,200 74 420 -1024
2022-01-26 09:34:37 GMT 49.856232 6.783769 18,300 74 421 -1024
2022-01-26 09:34:34 GMT 49.855133 6.777697 18,350 74 423 -1024
2022-01-26 09:34:31 GMT 49.853165 6.766928 18,375 74 423 -1024
2022-01-26 09:34:28 GMT 49.851860 6.760006 18,400 74 424 -1024
2022-01-26 09:34:25 GMT 49.849766 6.748649 18,500 74 425 -960
2022-01-26 09:34:22 GMT 49.847672 6.737217 18,525 74 425 -960
2022-01-26 09:34:19 GMT 49.846413 6.730239 18,575 74 425 -896
2022-01-26 09:34:16 GMT 49.844646 6.720589 20,600 73 430 -960
2022-01-26 09:34:13 GMT 49.843479 6.714428 18,675 74 426 -896
2022-01-26 09:34:10 GMT 49.841446 6.703323 18,700 74 426 -896
2022-01-26 09:34:06 GMT 49.839798 6.694215 18,875 74 427 -960
2022-01-26 09:34:03 GMT 49.838104 6.685108 18,800 74 427 -960
2022-01-26 09:34:00 GMT 49.835194 6.669295 18,900 74 428 -960
2022-01-26 09:33:57 GMT 49.835194 6.669295 19,125 74 429 -1088
2022-01-26 09:33:54 GMT 49.833195 6.658383 19,075 74 429 -1024
2022-01-26 09:33:51 GMT 49.831516 6.649252 19,050 74 428 -1024
2022-01-26 09:33:48 GMT 49.827839 6.629210 19,100 74 429 -1088
2022-01-26 09:33:45 GMT 49.826488 6.621861 19,150 74 430 -1088
2022-01-26 09:33:42 GMT 49.826488 6.621861 19,175 74 429 -1088
2022-01-26 09:33:39 GMT 49.823959 6.608276 19,250 74 430 -1088
2022-01-26 09:33:36 GMT 49.823044 6.603217 19,275 74 430 -1024
2022-01-26 09:33:32 GMT 49.821136 6.592910 19,350 73 430 -1024
2022-01-26 09:33:29 GMT 49.819382 6.583413 19,400 73 430 -960
2022-01-26 09:33:26 GMT 49.818008 6.576040 19,525 73 430 -960
2022-01-26 09:33:23 GMT 49.815765 6.563897 19,525 73 430 -960
2022-01-26 09:33:20 GMT 49.814346 6.556236 20,175 73 434 -1024
2022-01-26 09:33:17 GMT 49.810757 6.536939 19,625 73 431 -960
2022-01-26 09:33:14 GMT 49.810757 6.536939 19,650 73 431 -960
2022-01-26 09:33:11 GMT 49.809677 6.531083 19,800 74 432 -960
2022-01-26 09:33:08 GMT 49.807938 6.521831 19,750 74 432 -960
2022-01-26 09:33:05 GMT 49.806335 6.513230 20,175 73 433 -1024
2022-01-26 09:33:02 GMT 49.804237 6.501976 19,875 74 433 -960
2022-01-26 09:32:59 GMT 49.802490 6.492486 19,950 73 433 -1024
2022-01-26 09:32:56 GMT 49.800888 6.483813 19,925 73 433 -1024
2022-01-26 09:32:52 GMT 49.799118 6.474362 20,100 73 434 -1024
2022-01-26 09:32:49 GMT 49.797729 6.466900 20,100 73 434 -1024
2022-01-26 09:32:46 GMT 49.795898 6.457070 20,125 74 435 -1024
2022-01-26 09:32:43 GMT 49.794205 6.447818 20,175 74 435 -1024
2022-01-26 09:32:40 GMT 49.792507 6.438879 20,300 73 437 -1024
2022-01-26 09:32:36 GMT 49.790405 6.427508 20,300 73 437 -960
2022-01-26 09:32:33 GMT 49.788712 6.418184 20,425 73 437 -1024
2022-01-26 09:32:30 GMT 49.787014 6.409261 20,350 73 437 -960
2022-01-26 09:32:26 GMT 49.784454 6.395416 20,425 73 438 -960
2022-01-26 09:32:23 GMT 49.783310 6.389417 20,600 73 438 -960
2022-01-26 09:32:20 GMT 49.781101 6.377415 20,600 73 438 -960
2022-01-26 09:32:17 GMT 49.779739 6.370191 20,800 73 439 -960
2022-01-26 09:32:14 GMT 49.778412 6.363252 20,800 73 439 -960
2022-01-26 09:32:11 GMT 49.776489 6.353061 20,700 73 439 -960
2022-01-26 09:32:08 GMT 49.774632 6.343120 20,850 73 440 -960
2022-01-26 09:32:05 GMT 49.773010 6.334341 20,800 73 441 -960
2022-01-26 09:32:01 GMT 49.770439 6.320776 20,825 73 440 -960
2022-01-26 09:31:57 GMT 49.767834 6.307192 20,925 73 441 -960
2022-01-26 09:31:54 GMT 49.766438 6.299620 20,975 73 441 -960
2022-01-26 09:31:51 GMT 49.764999 6.292058 21,025 73 441 -1024
2022-01-26 09:31:48 GMT 49.763214 6.282662 21,075 73 442 -1024
2022-01-26 09:31:45 GMT 49.761177 6.271783 21,100 73 443 -1024
2022-01-26 09:31:41 GMT 49.759270 6.261836 21,175 73 443 -1024
2022-01-26 09:31:38 GMT 49.755451 6.241793 21,250 73 444 -1024
2022-01-26 09:31:35 GMT 49.755451 6.241793 21,275 73 444 -1024
2022-01-26 09:31:31 GMT 49.753307 6.230584 21,325 73 445 -960
2022-01-26 09:31:27 GMT 49.750702 6.216851 21,400 73 445 -960
2022-01-26 09:31:24 GMT 49.749527 6.210745 21,525 73 446 -960
2022-01-26 09:31:21 GMT 49.745861 6.191538 21,500 73 445 -896
2022-01-26 09:31:18 GMT 49.745861 6.191538 21,575 73 447 -896
2022-01-26 09:31:15 GMT 49.744308 6.183279 21,575 73 447 -896
2022-01-26 09:31:12 GMT 49.742558 6.174168 21,725 65 443 -960
2022-01-26 09:31:09 GMT 49.740646 6.164072 21,750 67 445 -960
2022-01-26 09:31:06 GMT 49.738739 6.154645 21,800 67 445 -960
2022-01-26 09:31:03 GMT 49.736023 6.142586 21,850 67 445 -960
2022-01-26 09:31:00 GMT 49.734688 6.137572 21,850 67 445 -960
2022-01-26 09:30:57 GMT 49.731903 6.127769 21,875 62 443 -960
2022-01-26 09:30:54 GMT 49.729149 6.119311 21,925 58 440 -1024
2022-01-26 09:30:51 GMT 49.721886 6.100381 21,975 56 439 -1024
2022-01-26 09:30:47 GMT 49.721886 6.100381 22,025 54 439 -1088
2022-01-26 09:30:44 GMT 49.718216 6.092136 22,325 53 438 -1088
2022-01-26 09:30:40 GMT 49.714394 6.084050 22,175 50 438 -1088
2022-01-26 09:30:36 GMT 49.709793 6.075295 22,300 48 437 -960
2022-01-26 09:30:33 GMT 49.704941 6.066549 22,400 48 437 -960
2022-01-26 09:30:30 GMT 49.701050 6.059755 22,400 48 437 -960
2022-01-26 09:30:26 GMT 49.694374 6.048122 22,375 48 437 -960
2022-01-26 09:30:23 GMT 49.691437 6.042986 22,725 48 451 -640
2022-01-26 09:30:19 GMT 49.684799 6.031277 22,525 48 436 -832
2022-01-26 09:30:16 GMT 49.682270 6.026892 22,525 48 436 -832
2022-01-26 09:30:13 GMT 49.678024 6.019424 22,575 48 436 -896
2022-01-26 09:30:10 GMT 49.674030 6.012417 22,625 48 436 -832
2022-01-26 09:30:07 GMT 49.669739 6.004896 22,675 48 437 -832
2022-01-26 09:30:04 GMT 49.665882 5.998164 22,750 48 441 -832
2022-01-26 09:30:01 GMT 49.662300 5.991854 22,775 48 440 -896
2022-01-26 09:29:58 GMT 49.658295 5.984802 22,800 48 452 0
2022-01-26 09:29:54 GMT 49.652802 5.975117 22,850 48 444 -896
2022-01-26 09:29:51 GMT 49.648754 5.968026 22,950 48 452 0
2022-01-26 09:29:48 GMT 49.644424 5.960372 22,950 48 449 -832
2022-01-26 09:29:45 GMT 49.640839 5.954144 23,000 48 451 64
2022-01-26 09:29:42 GMT 49.636734 5.946928 23,025 48 451 0
2022-01-26 09:29:39 GMT 49.632431 5.939411 23,025 48 452 0
2022-01-26 09:29:35 GMT 49.625977 5.928064 23,025 48 451 64
2022-01-26 09:29:32 GMT 49.622963 5.922744 23,000 48 451 64
2022-01-26 09:29:28 GMT 49.616631 5.911684 23,025 48 452 0
2022-01-26 09:29:25 GMT 49.613480 5.906091 23,000 48 451 0
2022-01-26 09:29:22 GMT 49.609371 5.898842 23,000 48 452 0
2022-01-26 09:29:19 GMT 49.604691 5.890696 23,025 48 452 0
2022-01-26 09:29:15 GMT 49.599453 5.881471 23,025 68 422 0
2022-01-26 09:29:12 GMT 49.594757 5.873277 23,025 48 452 0
2022-01-26 09:29:09 GMT 49.590500 5.865760 23,025 48 452 0
2022-01-26 09:29:05 GMT 49.585022 5.856084 23,025 48 452 0
2022-01-26 09:29:02 GMT 49.581436 5.849858 23,025 48 452 0
2022-01-26 09:28:59 GMT 49.576782 5.841609 23,000 48 450 0
2022-01-26 09:28:56 GMT 49.572781 5.834631 23,025 48 452 0
2022-01-26 09:28:52 GMT 49.567986 5.826169 23,000 48 451 64
2022-01-26 09:28:49 GMT 49.563812 5.818923 23,025 48 452 0
2022-01-26 09:28:46 GMT 49.560398 5.812881 23,000 48 452 64
2022-01-26 09:28:43 GMT 49.555984 5.805190 23,000 48 450 64
2022-01-26 09:28:40 GMT 49.550217 5.794999 23,000 48 450 0
2022-01-26 09:28:37 GMT 49.547470 5.790229 23,000 48 449 0
2022-01-26 09:28:34 GMT 49.543079 5.782520 23,000 48 449 0
2022-01-26 09:28:31 GMT 49.538177 5.773894 23,000 48 447 -64
2022-01-26 09:28:28 GMT 49.534744 5.767895 23,000 48 442 0
2022-01-26 09:28:25 GMT 49.530651 5.760770 23,000 48 441 0
2022-01-26 09:28:21 GMT 49.524597 5.750081 23,000 48 438 -64
2022-01-26 09:28:18 GMT 49.520004 5.742163 23,000 48 430 0
2022-01-26 09:28:15 GMT 49.517101 5.737016 23,025 48 432 0
2022-01-26 09:28:12 GMT 49.513275 5.730310 23,000 49 426 -64
2022-01-26 09:28:09 GMT 49.509331 5.723357 23,000 49 426 -64
2022-01-26 09:28:06 GMT 49.500671 5.707694 23,025 51 422 0
2022-01-26 09:28:02 GMT 49.500671 5.707694 23,000 57 416 64
2022-01-26 09:27:59 GMT 49.497177 5.700865 23,025 55 418 64
2022-01-26 09:27:56 GMT 49.493874 5.693887 23,025 63 418 0
2022-01-26 09:27:53 GMT 49.490204 5.685497 23,000 61 417 0
2022-01-26 09:27:50 GMT 49.487217 5.677853 23,025 67 419 0
2022-01-26 09:27:47 GMT 49.484516 5.670356 23,000 64 418 0
2022-01-26 09:27:44 GMT 49.481583 5.661671 23,025 68 421 0
2022-01-26 09:27:41 GMT 49.479210 5.653876 23,025 67 420 0
2022-01-26 09:27:38 GMT 49.476883 5.645672 23,025 68 421 0
2022-01-26 09:27:35 GMT 49.474834 5.637619 23,025 68 421 0
2022-01-26 09:27:32 GMT 49.473019 5.630642 23,025 68 422 0
2022-01-26 09:27:29 GMT 49.468548 5.613123 23,025 68 422 0
2022-01-26 09:27:26 GMT 49.468548 5.613123 23,000 68 421 0
2022-01-26 09:27:23 GMT 49.465897 5.602811 23,000 68 422 0
2022-01-26 09:27:20 GMT 49.464546 5.597534 23,025 68 421 0
2022-01-26 09:27:17 GMT 49.461613 5.586102 23,025 68 421 0
2022-01-26 09:27:13 GMT 49.458866 5.575265 23,025 68 421 0
2022-01-26 09:27:10 GMT 49.456631 5.566654 23,000 68 421 0
2022-01-26 09:27:07 GMT 49.455143 5.560789 23,000 68 421 0
2022-01-26 09:27:04 GMT 49.452301 5.549686 23,025 68 421 0
2022-01-26 09:27:01 GMT 49.450581 5.542974 23,000 68 421 0
2022-01-26 09:26:57 GMT 49.447723 5.531905 23,025 68 421 0
2022-01-26 09:26:54 GMT 49.445274 5.522411 23,025 68 421 0
2022-01-26 09:26:51 GMT 49.442688 5.512390 23,025 68 421 0
2022-01-26 09:26:48 GMT 49.441544 5.507981 23,000 68 421 0
2022-01-26 09:26:45 GMT 49.438980 5.498007 23,025 68 421 0
2022-01-26 09:26:42 GMT 49.436989 5.490195 23,025 68 421 0
2022-01-26 09:26:38 GMT 49.433945 5.478564 23,000 68 421 0
2022-01-26 09:26:35 GMT 49.431335 5.468228 23,025 68 421 0
2022-01-26 09:26:32 GMT 49.429825 5.462446 23,000 68 421 0
2022-01-26 09:26:29 GMT 49.427811 5.454640 23,000 68 421 0
2022-01-26 09:26:26 GMT 49.425751 5.446613 23,025 68 423 0
2022-01-26 09:26:23 GMT 49.423370 5.437458 23,025 68 421 0
2022-01-26 09:26:19 GMT 49.420647 5.426885 23,000 68 421 0
2022-01-26 09:26:16 GMT 49.418839 5.419922 23,000 68 421 0
2022-01-26 09:26:13 GMT 49.415680 5.407738 23,000 68 421 0
2022-01-26 09:26:09 GMT 49.413525 5.399419 23,025 68 421 0
2022-01-26 09:26:06 GMT 49.411289 5.390818 23,025 68 421 0
2022-01-26 09:26:03 GMT 49.408310 5.379470 23,000 68 423 0
2022-01-26 09:26:00 GMT 49.406822 5.373615 23,000 68 421 0
2022-01-26 09:25:57 GMT 49.404785 5.365906 23,025 68 421 0
2022-01-26 09:25:54 GMT 49.403004 5.358943 23,025 68 421 0
2022-01-26 09:25:51 GMT 49.400490 5.349258 23,000 68 421 0
2022-01-26 09:25:48 GMT 49.398331 5.340905 23,025 68 421 0
2022-01-26 09:25:45 GMT 49.393845 5.323721 23,000 68 421 0
2022-01-26 09:25:42 GMT 49.393845 5.323721 23,000 68 421 0
2022-01-26 09:25:39 GMT 49.391785 5.315693 23,000 68 421 0
2022-01-26 09:25:36 GMT 49.389679 5.307594 23,000 68 421 0
2022-01-26 09:25:33 GMT 49.386887 5.296819 23,000 68 421 0
2022-01-26 09:25:30 GMT 49.384987 5.289628 23,025 68 422 0
2022-01-26 09:25:27 GMT 49.382660 5.280738 23,000 68 422 -64
2022-01-26 09:25:24 GMT 49.380936 5.274071 23,025 68 422 0
2022-01-26 09:25:21 GMT 49.378098 5.263226 23,025 68 423 0
2022-01-26 09:25:18 GMT 49.376724 5.257944 23,025 68 423 0
2022-01-26 09:25:15 GMT 49.374001 5.247417 23,025 68 422 0
2022-01-26 09:25:12 GMT 49.371826 5.239070 23,025 68 422 0
2022-01-26 09:25:09 GMT 49.370510 5.234046 23,025 68 422 0
2022-01-26 09:25:06 GMT 49.367752 5.223506 23,025 68 422 0
2022-01-26 09:25:03 GMT 49.366058 5.216816 23,025 68 422 0
2022-01-26 09:25:00 GMT 49.363575 5.207375 23,025 68 422 0
2022-01-26 09:24:57 GMT 49.361435 5.198998 23,025 68 422 0
2022-01-26 09:24:54 GMT 49.358917 5.189279 23,025 68 422 0
2022-01-26 09:24:51 GMT 49.357010 5.182078 23,000 68 423 0
2022-01-26 09:24:48 GMT 49.355026 5.174279 23,000 68 422 0
2022-01-26 09:24:44 GMT 49.351913 5.162307 23,025 68 423 0
2022-01-26 09:24:41 GMT 49.349888 5.154539 23,000 68 422 0
2022-01-26 09:24:37 GMT 49.346832 5.142869 23,000 68 423 0
2022-01-26 09:24:34 GMT 49.344589 5.134207 23,000 68 423 0
2022-01-26 09:24:31 GMT 49.340252 5.117822 23,000 68 422 0
2022-01-26 09:24:28 GMT 49.340252 5.117822 23,000 68 423 0
2022-01-26 09:24:25 GMT 49.337494 5.107304 23,025 68 422 0
2022-01-26 09:24:18 GMT 49.328842 5.074275 23,025 68 422 0
2022-01-26 09:23:47 GMT 49.306686 4.990106 23,025 67 421 0
2022-01-26 09:23:43 GMT 49.307877 4.994554 23,025 67 421 0
2022-01-26 09:23:40 GMT 49.305386 4.985119 23,025 67 421 0
2022-01-26 09:23:37 GMT 49.303070 4.976314 23,000 68 422 0
2022-01-26 09:23:33 GMT 49.300644 4.967158 23,025 67 420 0
2022-01-26 09:23:30 GMT 49.298080 4.957510 23,000 68 422 0
2022-01-26 09:23:27 GMT 49.295700 4.948355 23,000 68 422 0
2022-01-26 09:23:23 GMT 49.292999 4.938143 23,025 68 422 0
2022-01-26 09:23:19 GMT 49.289795 4.925960 23,000 67 421 0
2022-01-26 09:23:16 GMT 49.287739 4.918189 23,000 68 422 0
2022-01-26 09:23:12 GMT 49.283318 4.901348 23,025 67 421 0
2022-01-26 09:23:09 GMT 49.283318 4.901348 23,025 67 421 0
2022-01-26 09:23:05 GMT 49.279861 4.888353 23,000 67 421 0
2022-01-26 09:23:02 GMT 49.277802 4.880606 23,025 67 421 0
2022-01-26 09:22:58 GMT 49.274323 4.867366 23,025 67 421 0
2022-01-26 09:22:55 GMT 49.272629 4.861028 23,025 67 421 0
2022-01-26 09:22:52 GMT 49.270203 4.851872 23,025 67 422 0
2022-01-26 09:22:49 GMT 49.268002 4.843597 23,025 67 420 0
2022-01-26 09:22:46 GMT 49.266186 4.836731 23,025 67 421 0
2022-01-26 09:22:43 GMT 49.263626 4.827046 23,025 67 421 0
2022-01-26 09:22:40 GMT 49.261139 4.817646 23,025 67 420 0
2022-01-26 09:22:37 GMT 49.259308 4.810814 23,025 67 420 0
2022-01-26 09:22:34 GMT 49.257843 4.805251 23,025 67 420 0
2022-01-26 09:22:31 GMT 49.254868 4.793983 23,025 67 420 0
2022-01-26 09:22:28 GMT 49.253384 4.788521 23,025 67 420 0
2022-01-26 09:22:25 GMT 49.250473 4.777503 23,025 67 420 0
2022-01-26 09:22:22 GMT 49.248638 4.770596 23,025 67 420 0
2022-01-26 09:22:18 GMT 49.244678 4.755779 23,000 67 420 0
2022-01-26 09:22:15 GMT 49.243328 4.750503 23,000 67 421 0
2022-01-26 09:22:12 GMT 49.241280 4.742841 23,000 67 417 64
2022-01-26 09:22:09 GMT 49.238209 4.731277 23,000 67 418 0
2022-01-26 09:22:06 GMT 49.237186 4.727446 23,000 67 421 0
2022-01-26 09:22:03 GMT 49.234955 4.719191 23,025 67 420 0
2022-01-26 09:22:00 GMT 49.232254 4.708980 23,025 67 420 -64
2022-01-26 09:21:57 GMT 49.227875 4.692825 23,025 67 420 0
2022-01-26 09:21:54 GMT 49.227875 4.692825 23,025 67 420 0
2022-01-26 09:21:51 GMT 49.224895 4.681549 23,000 67 420 0
2022-01-26 09:21:48 GMT 49.221729 4.669840 23,025 67 417 64
2022-01-26 09:21:45 GMT 49.221729 4.669840 23,025 67 417 64
2022-01-26 09:21:42 GMT 49.219070 4.660034 23,000 67 417 0
2022-01-26 09:21:39 GMT 49.216888 4.651843 23,000 67 417 0
2022-01-26 09:21:35 GMT 49.214584 4.643132 23,000 67 417 0
2022-01-26 09:21:32 GMT 49.211765 4.632761 23,000 67 419 0
2022-01-26 09:21:29 GMT 49.209534 4.624305 23,000 67 420 0
2022-01-26 09:21:26 GMT 49.207390 4.616354 23,000 67 420 0
2022-01-26 09:21:23 GMT 49.205200 4.608131 23,025 67 420 0
2022-01-26 09:21:20 GMT 49.202877 4.599368 23,000 67 420 0
2022-01-26 09:21:17 GMT 49.200176 4.589177 23,000 67 420 0
2022-01-26 09:21:14 GMT 49.198563 4.583130 23,000 67 420 0
2022-01-26 09:21:11 GMT 49.196823 4.576510 23,025 67 420 0
2022-01-26 09:21:08 GMT 49.194534 4.567988 23,025 67 422 0
2022-01-26 09:21:05 GMT 49.192108 4.558974 23,025 67 420 0
2022-01-26 09:21:01 GMT 49.188679 4.546027 23,025 67 421 0
2022-01-26 09:20:58 GMT 49.185196 4.532846 23,000 67 422 0
2022-01-26 09:20:55 GMT 49.185196 4.532846 23,000 67 422 0
2022-01-26 09:20:52 GMT 49.182533 4.522898 23,025 67 422 0
2022-01-26 09:20:49 GMT 49.179832 4.512707 23,000 67 422 0
2022-01-26 09:20:46 GMT 49.178375 4.507212 23,025 67 422 0
2022-01-26 09:20:43 GMT 49.175491 4.496436 23,025 67 422 -64
2022-01-26 09:20:39 GMT 49.172710 4.485964 23,025 67 422 0
2022-01-26 09:20:36 GMT 49.170502 4.477703 23,025 67 422 0
2022-01-26 09:20:32 GMT 49.168259 4.469182 23,025 67 422 0
2022-01-26 09:20:29 GMT 49.165512 4.458970 23,000 67 422 0
2022-01-26 09:20:26 GMT 49.163490 4.451270 23,025 67 422 0
2022-01-26 09:20:23 GMT 49.161301 4.442984 23,025 67 422 0
2022-01-26 09:20:20 GMT 49.158554 4.432843 23,025 67 422 0
2022-01-26 09:20:17 GMT 49.156742 4.425972 23,025 68 421 0
2022-01-26 09:20:14 GMT 49.154182 4.416287 23,000 68 421 0
2022-01-26 09:20:11 GMT 49.152367 4.409421 23,000 68 422 0
2022-01-26 09:20:08 GMT 49.150314 4.401715 23,000 69 421 64
2022-01-26 09:20:05 GMT 49.147797 4.391433 23,000 70 422 0
2022-01-26 09:20:02 GMT 49.146286 4.384953 23,000 73 423 0
2022-01-26 09:19:59 GMT 49.144409 4.376150 23,000 74 423 0
2022-01-26 09:19:55 GMT 49.142349 4.364953 23,000 76 424 0
2022-01-26 09:19:52 GMT 49.140869 4.355718 23,000 78 425 0
2022-01-26 09:19:48 GMT 49.139008 4.342205 23,000 79 425 0
2022-01-26 09:19:45 GMT 49.138447 4.337793 23,000 80 426 0
2022-01-26 09:19:42 GMT 49.137283 4.326879 23,025 82 426 0
2022-01-26 09:19:38 GMT 49.136124 4.313120 23,025 84 427 0
2022-01-26 09:19:35 GMT 49.135666 4.306218 23,025 84 427 0
2022-01-26 09:19:31 GMT 49.135025 4.295725 23,025 84 427 0
2022-01-26 09:19:28 GMT 49.134445 4.286186 23,025 84 427 0
2022-01-26 09:19:24 GMT 49.133743 4.275372 23,025 84 426 0
2022-01-26 09:19:21 GMT 49.132965 4.262766 23,025 84 426 0
2022-01-26 09:19:17 GMT 49.132141 4.249315 23,025 84 426 0
2022-01-26 09:19:14 GMT 49.131836 4.244553 23,000 84 426 0
2022-01-26 09:19:10 GMT 49.131088 4.232553 23,025 84 426 0
2022-01-26 09:19:07 GMT 49.130493 4.223257 23,025 84 426 0
2022-01-26 09:19:04 GMT 49.129974 4.214269 23,025 84 426 0
2022-01-26 09:19:00 GMT 49.128998 4.199018 23,000 84 427 0
2022-01-26 09:18:57 GMT 49.128441 4.189694 23,025 84 427 0
2022-01-26 09:18:54 GMT 49.128113 4.184946 23,025 84 427 0
2022-01-26 09:18:51 GMT 49.127460 4.174154 23,000 84 427 0
2022-01-26 09:18:48 GMT 49.126831 4.164523 23,025 84 427 0
2022-01-26 09:18:44 GMT 49.125137 4.137550 23,025 84 426 0
2022-01-26 09:18:39 GMT 49.125137 4.137550 23,000 84 427 0
2022-01-26 09:18:36 GMT 49.124577 4.128546 23,025 84 427 0
2022-01-26 09:18:31 GMT 49.123627 4.113535 23,025 84 427 0
2022-01-26 09:18:27 GMT 49.122940 4.103041 23,025 84 428 0
2022-01-26 09:18:24 GMT 49.122482 4.095576 23,000 84 427 0
2022-01-26 09:18:21 GMT 49.121876 4.085974 23,000 84 427 0
2022-01-26 09:18:18 GMT 49.121063 4.074026 23,000 84 427 0
2022-01-26 09:18:15 GMT 49.120663 4.067688 23,025 84 427 0
2022-01-26 09:18:11 GMT 49.119781 4.053955 23,000 84 428 0
2022-01-26 09:18:07 GMT 49.119034 4.042246 23,000 84 428 0
2022-01-26 09:18:04 GMT 49.118523 4.034151 23,025 84 428 0
2022-01-26 09:18:01 GMT 49.117950 4.025151 23,000 84 428 0
2022-01-26 09:17:58 GMT 49.117451 4.017382 23,025 84 427 0
2022-01-26 09:17:55 GMT 49.116707 4.005673 23,025 84 427 0
2022-01-26 09:17:52 GMT 49.116287 3.999746 23,025 84 427 0
2022-01-26 09:17:49 GMT 49.115479 3.986840 23,025 84 427 0
2022-01-26 09:17:45 GMT 49.114754 3.976111 23,025 84 427 0
2022-01-26 09:17:42 GMT 49.114288 3.968883 23,025 84 428 0
2022-01-26 09:17:39 GMT 49.113636 3.958692 23,025 84 427 0
2022-01-26 09:17:35 GMT 49.112732 3.945007 23,025 84 427 0
2022-01-26 09:17:30 GMT 49.111866 3.931804 23,025 84 426 0
2022-01-26 09:17:27 GMT 49.111305 3.923131 23,025 84 426 0
2022-01-26 09:17:23 GMT 49.110470 3.910627 23,025 84 427 0
2022-01-26 09:17:20 GMT 49.109848 3.901344 23,025 84 427 0
2022-01-26 09:17:17 GMT 49.108376 3.878391 23,025 84 427 0
2022-01-26 09:17:14 GMT 49.108376 3.878391 23,000 84 427 0
2022-01-26 09:17:10 GMT 49.107880 3.871202 23,025 84 428 0
2022-01-26 09:17:06 GMT 49.107101 3.859229 23,025 84 427 0
2022-01-26 09:17:02 GMT 49.105816 3.839505 23,000 84 428 0
2022-01-26 09:16:59 GMT 49.105816 3.839505 23,000 84 428 0
2022-01-26 09:16:56 GMT 49.105270 3.831059 23,025 84 428 0
2022-01-26 09:16:53 GMT 49.104675 3.822397 23,025 84 428 0
2022-01-26 09:16:50 GMT 49.104137 3.813991 23,000 84 428 0
2022-01-26 09:16:47 GMT 49.103348 3.802281 23,025 84 428 0
2022-01-26 09:16:44 GMT 49.102695 3.791801 23,025 84 428 0
2022-01-26 09:16:39 GMT 49.101906 3.780164 23,025 84 428 0
2022-01-26 09:16:36 GMT 49.101254 3.770262 23,025 84 428 0
2022-01-26 09:16:33 GMT 49.100693 3.761550 23,025 84 428 0
2022-01-26 09:16:30 GMT 49.099949 3.750458 23,025 84 428 0
2022-01-26 09:16:27 GMT 49.099411 3.742957 23,025 84 428 0
2022-01-26 09:16:24 GMT 49.098862 3.734295 23,025 84 428 0
2022-01-26 09:16:20 GMT 49.098038 3.721971 23,025 84 428 0
2022-01-26 09:16:17 GMT 49.097389 3.712728 23,025 83 428 0
2022-01-26 09:16:14 GMT 49.096828 3.704344 23,025 84 428 0
2022-01-26 09:16:11 GMT 49.096207 3.695350 23,025 83 427 0
2022-01-26 09:16:08 GMT 49.095619 3.686347 23,025 84 428 0
2022-01-26 09:16:05 GMT 49.094879 3.675561 23,025 83 428 0
2022-01-26 09:16:02 GMT 49.094269 3.667193 23,025 83 427 0
2022-01-26 09:15:59 GMT 49.093758 3.659676 23,025 83 427 0
2022-01-26 09:15:56 GMT 49.093140 3.650137 23,025 83 427 0
2022-01-26 09:15:52 GMT 49.092316 3.638447 23,025 84 427 0
2022-01-26 09:15:49 GMT 49.091675 3.629150 23,025 84 427 0
2022-01-26 09:15:46 GMT 49.091034 3.619854 23,025 84 427 0
2022-01-26 09:15:42 GMT 49.090218 3.607925 23,025 84 427 0
2022-01-26 09:15:38 GMT 49.089428 3.596288 23,025 84 427 0
2022-01-26 09:15:34 GMT 49.088684 3.584868 23,025 86 428 0
2022-01-26 09:15:30 GMT 49.087967 3.572881 23,000 85 428 0
2022-01-26 09:15:27 GMT 49.087372 3.561472 23,025 86 428 0
2022-01-26 09:15:24 GMT 49.087051 3.554007 23,000 87 428 0
2022-01-26 09:15:21 GMT 49.086727 3.544970 23,000 87 429 0
2022-01-26 09:15:18 GMT 49.086540 3.537092 23,000 88 429 64
2022-01-26 09:15:15 GMT 49.086273 3.525062 23,000 89 430 64
2022-01-26 09:15:12 GMT 49.086182 3.516893 23,000 89 431 64
2022-01-26 09:15:09 GMT 49.086090 3.506258 23,000 89 433 256
2022-01-26 09:15:06 GMT 49.086075 3.496543 23,000 89 432 192
2022-01-26 09:15:03 GMT 49.086044 3.488652 22,975 89 433 256
2022-01-26 09:15:00 GMT 49.085999 3.482596 22,950 89 433 576
2022-01-26 09:14:57 GMT 49.085983 3.472836 22,925 89 433 576
2022-01-26 09:14:54 GMT 49.085953 3.463088 22,825 89 433 1024
2022-01-26 09:14:51 GMT 49.085907 3.454285 22,850 89 432 1024
2022-01-26 09:14:48 GMT 49.085861 3.443580 22,825 89 432 1088
2022-01-26 09:14:43 GMT 49.085815 3.431115 22,675 89 432 1088
2022-01-26 09:14:40 GMT 49.085770 3.420481 22,625 89 431 1024
2022-01-26 09:14:37 GMT 49.085751 3.412628 22,600 89 430 1024
2022-01-26 09:14:33 GMT 49.085705 3.399257 22,550 89 430 1024
2022-01-26 09:14:30 GMT 49.085678 3.388085 22,500 89 430 960
2022-01-26 09:14:27 GMT 49.085632 3.382310 22,450 89 430 960
2022-01-26 09:14:24 GMT 49.085564 3.361455 22,400 89 430 960
2022-01-26 09:14:21 GMT 49.085564 3.361455 22,375 89 430 960
2022-01-26 09:14:17 GMT 49.085495 3.351746 22,300 89 429 1024
2022-01-26 09:14:14 GMT 49.085495 3.343013 22,250 89 429 1088
2022-01-26 09:14:11 GMT 49.085449 3.334280 22,200 89 428 1152
2022-01-26 09:14:08 GMT 49.085403 3.323716 22,125 89 427 1280
2022-01-26 09:14:05 GMT 49.085358 3.314984 21,850 89 426 1664
2022-01-26 09:14:02 GMT 49.085312 3.304490 21,950 89 426 1600
2022-01-26 09:13:57 GMT 49.085285 3.291273 21,875 89 425 1664
2022-01-26 09:13:54 GMT 49.085239 3.280865 21,775 89 425 1664
2022-01-26 09:13:50 GMT 49.085194 3.269734 21,500 89 427 1920
2022-01-26 09:13:47 GMT 49.085144 3.261060 21,600 89 426 1792
2022-01-26 09:13:44 GMT 49.085129 3.253291 21,525 89 427 1920
2022-01-26 09:13:41 GMT 49.085052 3.243641 21,250 89 428 2304
2022-01-26 09:13:38 GMT 49.085007 3.231932 21,225 89 429 2560
2022-01-26 09:13:35 GMT 49.084991 3.225614 21,125 89 429 2816
2022-01-26 09:13:32 GMT 49.084911 3.212634 20,950 89 430 3008
2022-01-26 09:13:29 GMT 49.084854 3.206247 20,850 89 428 2368
2022-01-26 09:13:25 GMT 49.084774 3.193914 20,675 89 429 2368
2022-01-26 09:13:21 GMT 49.084717 3.183359 20,550 89 428 2368
2022-01-26 09:13:17 GMT 49.084671 3.171880 20,350 89 426 2432
2022-01-26 09:13:14 GMT 49.084633 3.163195 20,275 89 426 2432
2022-01-26 09:13:10 GMT 49.084541 3.149390 20,075 89 424 2240
2022-01-26 09:13:07 GMT 49.084492 3.140138 20,000 89 423 2176
2022-01-26 09:13:04 GMT 49.084400 3.130959 19,875 89 422 2304
2022-01-26 09:13:01 GMT 49.084400 3.123803 19,725 89 421 2432
2022-01-26 09:12:58 GMT 49.084354 3.116431 19,725 89 421 2432
2022-01-26 09:12:55 GMT 49.084259 3.105187 19,500 89 419 2688
2022-01-26 09:12:52 GMT 49.084213 3.096595 19,300 89 419 2944
2022-01-26 09:12:49 GMT 49.084122 3.084552 19,175 89 418 3136
2022-01-26 09:12:45 GMT 49.084072 3.075088 18,525 89 418 3136
2022-01-26 09:12:42 GMT 49.084030 3.065115 18,800 89 418 3136
2022-01-26 09:12:39 GMT 49.083984 3.058354 18,725 89 418 3136
2022-01-26 09:12:35 GMT 49.083794 3.034539 18,450 89 418 3328
2022-01-26 09:12:32 GMT 49.083794 3.034539 18,275 89 418 3456
2022-01-26 09:12:29 GMT 49.083755 3.028635 17,100 89 404 3264
2022-01-26 09:12:25 GMT 49.083710 3.017719 17,900 89 418 3200
2022-01-26 09:12:22 GMT 49.083618 3.007437 17,725 89 418 3008
2022-01-26 09:12:19 GMT 49.083572 2.999761 17,350 89 415 2304
2022-01-26 09:12:15 GMT 49.083481 2.990112 17,475 89 417 2496
2022-01-26 09:12:12 GMT 49.083378 2.976934 17,300 89 414 2304
2022-01-26 09:12:09 GMT 49.083344 2.969619 17,225 89 413 2304
2022-01-26 09:12:04 GMT 49.083237 2.954816 17,000 89 411 2624
2022-01-26 09:12:00 GMT 49.083141 2.944119 16,775 89 409 2688
2022-01-26 09:11:56 GMT 49.083069 2.931448 16,650 89 408 2752
2022-01-26 09:11:53 GMT 49.083004 2.923953 16,525 89 407 2752
2022-01-26 09:11:48 GMT 49.082886 2.911377 15,950 89 404 3264
2022-01-26 09:11:44 GMT 49.082817 2.896849 16,050 89 404 3200
2022-01-26 09:11:40 GMT 49.082657 2.877784 15,800 89 404 3264
2022-01-26 09:11:37 GMT 49.082657 2.877784 15,700 89 403 3328
2022-01-26 09:11:33 GMT 49.082565 2.868418 15,275 89 403 3264
2022-01-26 09:11:29 GMT 49.082474 2.857361 15,250 89 402 3136
2022-01-26 09:11:26 GMT 49.082428 2.848628 15,125 89 401 3072
2022-01-26 09:11:23 GMT 49.082336 2.838698 14,950 89 401 3072
2022-01-26 09:11:19 GMT 49.082260 2.829124 14,750 89 399 3136
2022-01-26 09:11:16 GMT 49.082165 2.820957 14,625 89 398 3136
2022-01-26 09:11:13 GMT 49.082062 2.811162 14,425 89 397 3008
2022-01-26 09:11:10 GMT 49.081970 2.801655 14,250 89 396 2944
2022-01-26 09:11:07 GMT 49.081886 2.790527 14,075 89 395 2944
2022-01-26 09:11:03 GMT 49.081787 2.782147 13,925 89 394 3008
2022-01-26 09:10:59 GMT 49.081699 2.770795 13,725 89 392 3072
2022-01-26 09:10:54 GMT 49.081608 2.757568 13,375 89 390 3072
2022-01-26 09:10:51 GMT 49.081512 2.747075 13,250 89 389 3136
2022-01-26 09:10:48 GMT 49.081467 2.741652 13,175 89 389 3264
2022-01-26 09:10:44 GMT 49.081329 2.728483 12,825 89 387 3520
2022-01-26 09:10:41 GMT 49.081280 2.723308 12,775 89 387 3456
2022-01-26 09:10:38 GMT 49.081234 2.714346 12,500 89 387 3456
2022-01-26 09:10:35 GMT 49.081146 2.707214 12,325 89 386 3328
2022-01-26 09:10:32 GMT 49.081097 2.697433 12,100 89 380 2304
2022-01-26 09:10:28 GMT 49.081009 2.688270 12,075 89 384 2944
2022-01-26 09:10:25 GMT 49.080917 2.678763 11,850 89 381 2368
2022-01-26 09:10:22 GMT 49.080872 2.670452 11,775 89 380 2176
2022-01-26 09:10:18 GMT 49.080734 2.660029 11,500 89 367 1216
2022-01-26 09:10:15 GMT 49.080677 2.652042 11,550 89 370 1344
2022-01-26 09:10:12 GMT 49.080582 2.643441 11,500 89 367 1216
2022-01-26 09:10:08 GMT 49.080490 2.634623 11,425 89 363 1216
2022-01-26 09:10:04 GMT 49.080399 2.623420 11,300 89 343 1280
2022-01-26 09:10:01 GMT 49.080368 2.616648 11,250 89 349 1280
2022-01-26 09:09:58 GMT 49.080276 2.608267 11,225 89 346 1280
2022-01-26 09:09:54 GMT 49.080231 2.598760 11,050 89 338 1344
2022-01-26 09:09:51 GMT 49.080185 2.591295 11,050 90 333 1344
2022-01-26 09:09:48 GMT 49.080185 2.583970 10,975 90 323 1344
2022-01-26 09:09:45 GMT 49.080212 2.577234 10,925 90 325 1344
2022-01-26 09:09:41 GMT 49.080212 2.567837 10,800 90 317 1344
2022-01-26 09:09:38 GMT 49.080257 2.562272 10,775 91 313 1344
2022-01-26 09:09:35 GMT 49.080349 2.554466 10,675 91 307 1472
2022-01-26 09:09:32 GMT 49.080444 2.547310 10,625 91 304 1664
2022-01-26 09:09:28 GMT 49.080597 2.539602 10,500 92 298 2240
2022-01-26 09:09:25 GMT 49.080734 2.532278 10,350 92 296 3072
2022-01-26 09:09:22 GMT 49.080826 2.528334 10,200 92 294 3648
2022-01-26 09:09:19 GMT 49.081009 2.522489 10,050 92 294 3840
2022-01-26 09:09:16 GMT 49.081234 2.514857 9,825 92 293 3904
2022-01-26 09:09:13 GMT 49.081421 2.508641 9,550 92 293 4032
2022-01-26 09:09:10 GMT 49.081650 2.500869 9,375 92 293 4096
2022-01-26 09:09:07 GMT 49.081741 2.497981 9,275 91 293 4160
2022-01-26 09:09:03 GMT 49.081924 2.488051 8,850 91 292 3776
2022-01-26 09:09:00 GMT 49.082073 2.480886 8,725 91 292 3776
2022-01-26 09:08:57 GMT 49.082108 2.476713 8,600 90 291 3776
2022-01-26 09:08:54 GMT 49.082165 2.468527 8,275 88 289 3648
2022-01-26 09:08:51 GMT 49.082211 2.463034 8,125 86 288 3584
2022-01-26 09:08:48 GMT 49.082073 2.457179 7,975 84 286 3520
2022-01-26 09:08:45 GMT 49.081745 2.450891 7,800 79 284 3456
2022-01-26 09:08:42 GMT 49.081146 2.444951 7,600 74 282 3520
2022-01-26 09:08:38 GMT 49.079792 2.436869 7,425 69 278 3392
2022-01-26 09:08:35 GMT 49.078720 2.432460 7,200 63 275 3264
2022-01-26 09:08:32 GMT 49.077232 2.427328 6,800 47 264 3008
2022-01-26 09:08:29 GMT 49.075417 2.422485 6,925 53 268 3072
2022-01-26 09:08:26 GMT 49.072998 2.417203 6,800 47 264 3008
2022-01-26 09:08:23 GMT 49.070709 2.413330 6,625 40 257 2880
2022-01-26 09:08:20 GMT 49.067268 2.408463 6,450 33 251 3008
2022-01-26 09:08:17 GMT 49.065361 2.406223 6,375 33 251 3072
2022-01-26 09:08:13 GMT 49.060799 2.401741 6,075 22 244 2880
2022-01-26 09:08:09 GMT 49.057213 2.399501 5,925 14 237 2752
2022-01-26 09:08:06 GMT 49.054001 2.397907 5,850 12 237 2688
2022-01-26 09:08:02 GMT 49.049534 2.396537 5,600 1 228 2688
2022-01-26 09:07:59 GMT 49.045948 2.396104 5,525 357 225 2752
2022-01-26 09:07:56 GMT 49.043621 2.396176 5,425 354 222 2688
2022-01-26 09:07:53 GMT 49.039059 2.397116 5,225 344 216 2624
2022-01-26 09:07:50 GMT 49.037064 2.397837 5,075 338 212 2560
2022-01-26 09:07:47 GMT 49.033752 2.399501 4,975 334 209 2496
2022-01-26 09:07:43 GMT 49.030075 2.402320 4,675 320 200 2048
2022-01-26 09:07:40 GMT 49.027954 2.404386 4,675 317 197 2048
2022-01-26 09:07:37 GMT 49.025604 2.407235 4,625 315 195 2048
2022-01-26 09:07:32 GMT 49.022873 2.411358 4,375 308 191 2368
2022-01-26 09:07:29 GMT 49.020447 2.416218 4,275 300 186 2304
2022-01-26 09:07:26 GMT 49.019394 2.418823 4,200 295 184 2368
2022-01-26 09:07:23 GMT 49.018112 2.422908 4,000 287 179 2432
2022-01-26 09:07:20 GMT 49.017365 2.425810 3,900 282 177 2496
2022-01-26 09:07:17 GMT 49.016762 2.429569 3,700 272 172 2304
2022-01-26 09:07:14 GMT 49.016418 2.432838 3,650 270 171 2240
2022-01-26 09:07:10 GMT 49.016293 2.437736 3,575 268 168 1984
2022-01-26 09:07:07 GMT 49.016434 2.441350 3,400 266 160 1856
2022-01-26 09:07:04 GMT 49.016647 2.445021 3,375 266 156 1920
2022-01-26 09:07:01 GMT 49.016876 2.449036 3,250 266 150 2112
2022-01-26 09:06:58 GMT 49.017014 2.451219 3,125 265 144 1920
2022-01-26 09:06:55 GMT 49.017197 2.454458 3,025 265 140 1984
2022-01-26 09:06:52 GMT 49.017426 2.457557 2,950 265 138 2368
2022-01-26 09:06:49 GMT 49.017609 2.460445 2,850 265 137 2496
2022-01-26 09:06:46 GMT 49.017792 2.463262 2,750 265 136 2432
2022-01-26 09:06:42 GMT 49.018066 2.467205 2,575 265 135 2432
2022-01-26 09:06:39 GMT 49.018250 2.469952 2,425 265 135 2432
2022-01-26 09:06:36 GMT 49.018433 2.472699 2,350 265 135 2368
2022-01-26 09:06:32 GMT 49.018707 2.476572 2,075 265 136 2432
2022-01-26 09:06:29 GMT 49.018902 2.479658 2,000 265 137 2368
2022-01-26 09:06:26 GMT 49.019089 2.482404 1,950 265 137 2368
2022-01-26 09:06:22 GMT 49.019321 2.486018 1,025 266 138 2240
2022-01-26 09:06:19 GMT 49.019531 2.489460 1,550 266 138 2304
2022-01-26 09:06:16 GMT 49.019669 2.492277 1,550 266 138 2240
2022-01-26 09:06:12 GMT 49.019897 2.495868 1,400 267 136 1984
2022-01-26 09:06:09 GMT 49.020065 2.498595 1,200 266 136 2112
2022-01-26 09:06:04 GMT 49.020344 2.503799 1,125 266 136 2112
2022-01-26 09:06:01 GMT 49.020485 2.506617 1,025 266 136 2304
2022-01-26 09:05:58 GMT 49.020622 2.509220 900 266 136 2304
2022-01-26 09:05:55 GMT 49.020767 2.512277 700 266 136 2304
2022-01-26 09:05:52 GMT 49.020905 2.515024 600 267 137 2112
2022-01-26 09:05:45 GMT 49.021179 2.521362 350 266 135 1856
2022-01-26 09:05:42 GMT 49.021320 2.524615 300 266 135 1856
2022-01-26 09:05:35 GMT 49.021603 2.530614 75 266 136 2368
2022-01-26 09:05:32 GMT 49.021740 2.533361 -50 266 140 1984
2022-01-26 09:05:16 GMT 49.022552 2.548335 -175 267 67
2022-01-26 09:05:05 GMT 49.022816 2.553670 0 264 42
2022-01-26 09:04:56 GMT 49.022930 2.555712 0 275 10
2022-01-26 09:04:44 GMT 49.022812 2.556255 0 345 8
2022-01-26 09:04:35 GMT 49.022511 2.556327 0 354 7
2022-01-26 09:04:25 GMT 49.022217 2.556363 0 354 6
2022-01-26 09:04:15 GMT 49.021946 2.556399 0 354 5
2022-01-26 09:04:05 GMT 49.021729 2.556434 0 354 7
2022-01-26 09:03:58 GMT 49.021496 2.556472 0 354 10
2022-01-26 09:03:53 GMT 49.021309 2.556490 0 357 12
2022-01-26 09:03:44 GMT 49.020802 2.556328 0 56 14
2022-01-26 09:03:39 GMT 49.020664 2.555941 0 84 12
2022-01-26 09:03:35 GMT 49.020634 2.555442 0 84 15
2022-01-26 09:03:29 GMT 49.020618 2.554973 0 84 18
2022-01-26 09:03:24 GMT 49.020588 2.554339 0 84 19
2022-01-26 09:03:14 GMT 49.020519 2.553038 0 84 18
2022-01-26 09:03:04 GMT 49.020451 2.551755 0 87 18
2022-01-26 09:02:54 GMT 49.020401 2.550606 0 87 17
2022-01-26 09:02:44 GMT 49.020355 2.549442 0 87 17
2022-01-26 09:02:31 GMT 49.019886 2.548370 0 0 17
2022-01-26 09:02:23 GMT 49.019119 2.548458 0 354 21
2022-01-26 09:01:39 GMT 49.014408 2.549063 0 351 24
2022-01-26 09:01:25 GMT 49.012951 2.549603 0 345 23
2022-01-26 09:01:17 GMT 49.012184 2.549912 0 343 22
We lost coverage of the aircraft here for a total of 8 minutes
2022-01-26 08:53:26 GMT 49.006107 2.565448 0 255 3
We lost coverage of the aircraft here for a total of 26 minutes
2022-01-26 08:27:26 GMT 49.006130 2.565290 0 151 15
2022-01-26 08:27:18 GMT 49.006519 2.564874 0 146 14
2022-01-26 08:27:09 GMT 49.007019 2.564549 0 174 16
2022-01-26 08:26:59 GMT 49.007729 2.564404 0 143 16
2022-01-26 08:26:54 GMT 49.007996 2.564043 0 112 16
2022-01-26 08:26:49 GMT 49.008076 2.563512 0 81 17
2022-01-26 08:26:40 GMT 49.007973 2.562362 0 81 19
2022-01-26 08:26:29 GMT 49.007835 2.561047 0 81 19
2022-01-26 08:26:24 GMT 49.007774 2.560429 0 81 18
2022-01-26 08:26:18 GMT 49.007706 2.559634 0 81 18
2022-01-26 08:26:10 GMT 49.007595 2.558529 0 81 18
2022-01-26 08:26:06 GMT 49.007565 2.558170 0 81 18
2022-01-26 08:25:51 GMT 49.007416 2.556435 0 84 16
2022-01-26 08:25:45 GMT 49.007355 2.555767 0 84 16
2022-01-26 08:25:34 GMT 49.007275 2.554484 0 92 17
2022-01-26 08:25:27 GMT 49.007412 2.553635 0 135 18
2022-01-26 08:25:19 GMT 49.008007 2.553177 0 163 23
2022-01-26 08:25:02 GMT 49.009769 2.552402 0 163 22
2022-01-26 08:24:54 GMT 49.010502 2.552103 0 163 21
2022-01-26 08:24:48 GMT 49.011017 2.551874 0 163 20
2022-01-26 08:24:44 GMT 49.011429 2.551680 0 165 19
2022-01-26 08:24:38 GMT 49.011967 2.551611 0 191 18
2022-01-26 08:24:27 GMT 49.012653 2.551980 0 202 15
2022-01-26 08:24:20 GMT 49.013123 2.552209 0 180 13
2022-01-26 08:24:17 GMT 49.013279 2.552207 0 171 12
2022-01-26 08:24:13 GMT 49.013466 2.552173 0 168 12
2022-01-26 08:24:08 GMT 49.013779 2.552081 0 168 11
2022-01-26 08:23:58 GMT 49.014259 2.551900 0 165 13
2022-01-26 08:23:46 GMT 49.014931 2.551716 0 174 12
2022-01-26 08:23:36 GMT 49.015514 2.551629 0 174 16
2022-01-26 08:23:27 GMT 49.016281 2.551539 0 177 19
2022-01-26 08:23:15 GMT 49.017242 2.551416 0 174 17
2022-01-26 08:23:04 GMT 49.018085 2.551286 0 165 14
2022-01-26 08:22:56 GMT 49.018513 2.550976 0 115 14
2022-01-26 08:22:47 GMT 49.018574 2.550183 0 84 16
2022-01-26 08:22:37 GMT 49.018517 2.548937 0 87 21
2022-01-26 08:22:27 GMT 49.018425 2.547383 0 84 24
2022-01-26 08:22:16 GMT 49.018318 2.545589 0 84 27
2022-01-26 08:22:06 GMT 49.018227 2.543705 0 84 26
2022-01-26 08:21:55 GMT 49.018108 2.541691 0 84 26
2022-01-26 08:21:49 GMT 49.018055 2.540571 0 84 27
2022-01-26 08:21:46 GMT 49.018032 2.540078 0 84 27
2022-01-26 08:21:32 GMT 49.017899 2.537553 0 84 25
2022-01-26 08:21:19 GMT 49.017761 2.535204 0 84 23
2022-01-26 08:21:13 GMT 49.017727 2.534445 0 84 22
2022-01-26 08:20:57 GMT 49.017609 2.532204 0 84 19
2022-01-26 08:20:47 GMT 49.017540 2.530905 0 87 21
2022-01-26 08:20:44 GMT 49.017517 2.530415 0 87 21
2022-01-26 08:20:33 GMT 49.017410 2.528699 0 84 22
2022-01-26 08:20:23 GMT 49.017334 2.527243 0 84 19
2022-01-26 08:20:15 GMT 49.017284 2.526241 0 84 18
2022-01-26 08:20:05 GMT 49.017223 2.525103 0 84 17
2022-01-26 08:19:56 GMT 49.017155 2.523946 0 84 12
2022-01-26 08:19:44 GMT 49.017117 2.523123 0 87 9
2022-01-26 08:19:35 GMT 49.017105 2.522577 0 87 9
2022-01-26 08:19:27 GMT 49.017097 2.522049 0 106 9
2022-01-26 08:19:24 GMT 49.017109 2.521868 0 120 9
2022-01-26 08:19:15 GMT 49.017323 2.521450 0 163 8
2022-01-26 08:19:04 GMT 49.017620 2.521380 0 174 5
We lost coverage of the aircraft here for a total of 25 minutes
2022-01-26 07:54:04 GMT 49.017792 2.521362 0 174 0 0
2022-01-26 07:50:58 GMT 49.017792 2.521362 0 174 0 0
2022-01-26 07:50:33 GMT 49.017796 2.521362 0 174 0 0
2022-01-26 07:49:53 GMT 49.017792 2.521362 0 174 0 0
2022-01-26 07:49:23 GMT 49.017792 2.521362 0 174 0 0
2022-01-26 07:46:43 GMT 49.017792 2.521362 0 174 0 0
2022-01-26 07:45:43 GMT 49.017796 2.521362 0 174 0 0
2022-01-26 07:43:58 GMT 49.021774 2.534029 0 264 43 0
2022-01-26 07:43:49 GMT 49.021900 2.536662 0 264 55 0
2022-01-26 07:43:25 GMT 49.022873 2.554251 -225 266 157 -896
2022-01-26 07:43:22 GMT 49.022873 2.554251 -225 266 127 -256
2022-01-26 07:43:15 GMT 49.023193 2.560167 -175 266 128 -640
2022-01-26 07:43:11 GMT 49.023369 2.563573 -125 266 128 -640
2022-01-26 07:43:07 GMT 49.023560 2.567350 -75 266 128 -640
2022-01-26 07:43:04 GMT 49.023697 2.569956 -50 266 128 -768
2022-01-26 07:43:00 GMT 49.023930 2.573909 0 266 129 -768
2022-01-26 07:42:57 GMT 49.024071 2.576511 50 266 130 -768
2022-01-26 07:42:49 GMT 49.024429 2.583336 150 266 132 -832
2022-01-26 07:42:46 GMT 49.024628 2.587063 200 266 133 -832
2022-01-26 07:42:39 GMT 49.024906 2.592918 275 266 133 -704
2022-01-26 07:42:36 GMT 49.025024 2.595731 325 266 133 -768
2022-01-26 07:42:32 GMT 49.025299 2.600872 400 266 133 -768
2022-01-26 07:42:29 GMT 49.025391 2.602281 425 266 133 -832
2022-01-26 07:42:26 GMT 49.025513 2.604988 450 266 133 -768
2022-01-26 07:42:19 GMT 49.025894 2.612000 550 266 134 -768
2022-01-26 07:42:16 GMT 49.026031 2.614605 575 265 134 -768
2022-01-26 07:42:13 GMT 49.026306 2.619112 650 265 133 -832
2022-01-26 07:42:09 GMT 49.026443 2.621613 675 266 133 -768
2022-01-26 07:42:05 GMT 49.026630 2.624721 725 267 133 -704
2022-01-26 07:42:01 GMT 49.026810 2.628831 775 266 133 -640
2022-01-26 07:41:57 GMT 49.027046 2.633394 825 265 133 -640
2022-01-26 07:41:54 GMT 49.027187 2.635779 850 266 133 -640
2022-01-26 07:41:51 GMT 49.027359 2.638479 875 266 133 -704
2022-01-26 07:41:47 GMT 49.027496 2.642071 925 267 133 -832
2022-01-26 07:41:44 GMT 49.027634 2.645170 975 266 134 -832
2022-01-26 07:41:41 GMT 49.027771 2.647916 1,000 265 137 -960
2022-01-26 07:41:36 GMT 49.028072 2.653271 1,075 266 143 -1152
2022-01-26 07:41:31 GMT 49.028320 2.657705 1,150 266 145 -1152
2022-01-26 07:41:28 GMT 49.028442 2.660354 1,300 266 156 -832
2022-01-26 07:41:25 GMT 49.028629 2.663245 1,275 266 154 -640
2022-01-26 07:41:21 GMT 49.028816 2.667365 1,300 266 156 -832
2022-01-26 07:41:18 GMT 49.029053 2.671086 1,325 266 158 -896
2022-01-26 07:41:14 GMT 49.029282 2.675966 1,400 266 161 -832
2022-01-26 07:41:11 GMT 49.029419 2.678903 1,450 266 163 -960
2022-01-26 07:41:08 GMT 49.029655 2.682760 1,525 266 167 -832
2022-01-26 07:41:04 GMT 49.029842 2.686591 1,575 266 169 -960
2022-01-26 07:41:01 GMT 49.030075 2.691217 1,625 266 171 -1024
2022-01-26 07:40:56 GMT 49.030380 2.696791 1,700 266 174 -960
2022-01-26 07:40:53 GMT 49.030586 2.700902 1,750 266 200 -64
2022-01-26 07:40:50 GMT 49.030746 2.704116 1,800 266 178 -896
2022-01-26 07:40:46 GMT 49.031052 2.709431 1,875 266 182 -1216
2022-01-26 07:40:43 GMT 49.031250 2.713271 1,900 266 183 -896
2022-01-26 07:40:40 GMT 49.031387 2.716581 1,950 266 183 -832
2022-01-26 07:40:36 GMT 49.031704 2.722369 2,025 266 183 -1472
2022-01-26 07:40:33 GMT 49.031891 2.726229 2,125 266 182 -1600
2022-01-26 07:40:30 GMT 49.032074 2.729539 2,200 266 181 -1216
2022-01-26 07:40:27 GMT 49.032257 2.733483 2,250 266 186 -704
2022-01-26 07:40:24 GMT 49.032486 2.738061 2,275 266 188 -832
2022-01-26 07:40:20 GMT 49.032715 2.742709 2,325 266 190 -896
2022-01-26 07:40:14 GMT 49.033192 2.751425 2,400 266 196 -320
2022-01-26 07:40:10 GMT 49.033447 2.756371 2,400 266 202 -64
2022-01-26 07:40:04 GMT 49.033890 2.765085 2,400 266 209 0
2022-01-26 07:40:00 GMT 49.034218 2.770795 2,400 266 214 0
2022-01-26 07:39:55 GMT 49.034592 2.778344 2,400 266 218 0
2022-01-26 07:39:49 GMT 49.035004 2.786724 2,400 266 224 -128
2022-01-26 07:39:45 GMT 49.035427 2.794286 2,450 266 229 -640
2022-01-26 07:39:39 GMT 49.035847 2.802526 2,475 266 230 -832
2022-01-26 07:39:36 GMT 49.036148 2.807993 2,575 266 231 -1152
2022-01-26 07:39:33 GMT 49.036404 2.812861 2,575 266 231 -1216
2022-01-26 07:39:30 GMT 49.036732 2.819511 2,675 266 232 -1408
2022-01-26 07:39:25 GMT 49.037064 2.826726 2,775 266 233 -1472
2022-01-26 07:39:22 GMT 49.037292 2.830811 2,825 266 234 -1472
2022-01-26 07:39:19 GMT 49.037521 2.835557 2,900 266 235 -1472
2022-01-26 07:39:15 GMT 49.037941 2.843507 3,025 266 237 -1408
2022-01-26 07:39:12 GMT 49.038128 2.846977 3,075 266 240 -1408
2022-01-26 07:39:09 GMT 49.038437 2.853065 3,225 266 242 -1408
2022-01-26 07:39:04 GMT 49.038872 2.861143 3,375 266 244 -1344
2022-01-26 07:38:58 GMT 49.039398 2.871305 3,425 266 248 -1280
2022-01-26 07:38:55 GMT 49.039616 2.876539 3,500 266 251 -1280
2022-01-26 07:38:52 GMT 49.039944 2.882321 3,500 266 251 -1280
2022-01-26 07:38:49 GMT 49.040131 2.887080 3,775 266 261 -1216
2022-01-26 07:38:45 GMT 49.040543 2.895461 3,750 266 260 -1216
2022-01-26 07:38:42 GMT 49.040726 2.899686 3,775 266 261 -1216
2022-01-26 07:38:39 GMT 49.041061 2.905884 3,825 266 263 -1280
2022-01-26 07:38:32 GMT 49.041618 2.918316 3,975 267 271 -1472
2022-01-26 07:38:28 GMT 49.041962 2.925180 4,025 267 271 -1472
2022-01-26 07:38:22 GMT 49.042458 2.936819 4,200 267 274 -1280
2022-01-26 07:38:18 GMT 49.042786 2.944477 4,275 267 275 -1216
2022-01-26 07:38:14 GMT 49.043156 2.953009 4,375 266 279 -832
2022-01-26 07:38:11 GMT 49.043480 2.959442 4,400 265 282 -512
2022-01-26 07:38:08 GMT 49.043701 2.963421 4,425 265 284 -128
2022-01-26 07:38:05 GMT 49.044205 2.971168 4,425 263 290 -320
2022-01-26 07:38:02 GMT 49.044689 2.977223 4,450 258 299 -896
2022-01-26 07:37:59 GMT 49.045296 2.984161 4,475 261 295 -640
2022-01-26 07:37:52 GMT 49.046997 2.998000 4,575 253 304 -1216
2022-01-26 07:37:48 GMT 49.048229 3.004978 4,650 252 305 -1216
2022-01-26 07:37:43 GMT 49.051437 3.018142 4,775 244 311 -1472
2022-01-26 07:37:38 GMT 49.053722 3.024999 4,875 241 314 -1536
2022-01-26 07:37:32 GMT 49.057938 3.035818 5,025 239 317 -1792
2022-01-26 07:37:28 GMT 49.061310 3.044225 5,175 239 318 -2112
2022-01-26 07:37:23 GMT 49.065445 3.054340 5,450 239 321 -2176
2022-01-26 07:37:18 GMT 49.069244 3.063707 5,525 239 322 -2176
2022-01-26 07:37:14 GMT 49.072632 3.072017 5,700 238 324 -2304
2022-01-26 07:37:11 GMT 49.074577 3.076678 5,775 238 329 -2944
2022-01-26 07:37:08 GMT 49.077255 3.083285 5,925 239 326 -2496
2022-01-26 07:37:03 GMT 49.083748 3.099084 6,150 238 327 -2752
2022-01-26 07:37:00 GMT 49.083748 3.099084 6,275 238 329 -2944
2022-01-26 07:36:57 GMT 49.085518 3.103421 6,375 238 329 -2944
2022-01-26 07:36:53 GMT 49.091618 3.118166 6,650 238 331 -2880
2022-01-26 07:36:50 GMT 49.091618 3.118166 6,750 238 332 -2944
2022-01-26 07:36:47 GMT 49.093964 3.123920 6,900 238 332 -2944
2022-01-26 07:36:44 GMT 49.096737 3.130670 7,100 239 334 -2944
2022-01-26 07:36:41 GMT 49.098644 3.135296 7,175 239 334 -2944
2022-01-26 07:36:38 GMT 49.102139 3.143897 7,375 239 336 -2944
2022-01-26 07:36:32 GMT 49.106514 3.154594 7,675 239 339 -2944
2022-01-26 07:36:29 GMT 49.108795 3.160260 7,775 238 339 -2944
2022-01-26 07:36:26 GMT 49.111038 3.165753 7,900 238 341 -3008
2022-01-26 07:36:21 GMT 49.115402 3.176350 8,175 238 342 -3136
2022-01-26 07:36:17 GMT 49.118851 3.184734 8,375 238 342 -3328
2022-01-26 07:36:13 GMT 49.122574 3.193712 8,675 238 342 -3392
2022-01-26 07:36:10 GMT 49.124249 3.197817 8,750 238 342 -3392
2022-01-26 07:36:07 GMT 49.127369 3.205334 8,950 238 342 -3392
2022-01-26 07:36:03 GMT 49.131088 3.214346 9,400 238 342 -3264
2022-01-26 07:36:00 GMT 49.132721 3.218271 9,500 238 342 -3264
2022-01-26 07:35:57 GMT 49.135895 3.226037 9,525 238 342 -3264
2022-01-26 07:35:52 GMT 49.140244 3.236389 10,050 238 343 -3200
2022-01-26 07:35:49 GMT 49.142853 3.242727 9,950 238 343 -3200
2022-01-26 07:35:46 GMT 49.145004 3.247868 10,100 238 343 -3200
2022-01-26 07:35:43 GMT 49.148411 3.256001 10,300 238 343 -3136
2022-01-26 07:35:39 GMT 49.151871 3.264137 10,525 238 342 -3136
2022-01-26 07:35:36 GMT 49.153152 3.267165 10,600 238 342 -3072
2022-01-26 07:35:32 GMT 49.156860 3.275898 11,125 237 342 -2880
2022-01-26 07:35:28 GMT 49.160934 3.285405 11,025 237 342 -2816
2022-01-26 07:35:25 GMT 49.163315 3.291039 11,150 238 342 -2496
2022-01-26 07:35:22 GMT 49.165649 3.296532 11,575 238 343 -2240
2022-01-26 07:35:18 GMT 49.168671 3.303645 11,400 238 343 -2176
2022-01-26 07:35:15 GMT 49.171917 3.311366 11,625 238 345 -1856
2022-01-26 07:35:12 GMT 49.177917 3.325759 12,000 241 346 -1152
2022-01-26 07:35:09 GMT 49.177917 3.325759 11,750 239 346 -1408
2022-01-26 07:35:06 GMT 49.178993 3.328496 11,800 241 347 -1152
2022-01-26 07:35:03 GMT 49.182346 3.337097 11,850 242 347 -1088
2022-01-26 07:35:00 GMT 49.183884 3.341434 11,875 246 347 -768
2022-01-26 07:34:57 GMT 49.186535 3.349746 11,925 250 347 -576
2022-01-26 07:34:54 GMT 49.187981 3.355239 11,950 252 346 -512
2022-01-26 07:34:51 GMT 49.189423 3.361961 11,975 257 344 -384
2022-01-26 07:34:48 GMT 49.191055 3.372380 12,000 265 342 -64
2022-01-26 07:34:45 GMT 49.191605 3.377873 12,000 268 342 0
2022-01-26 07:34:42 GMT 49.192062 3.385338 12,625 268 368 -2368
2022-01-26 07:34:37 GMT 49.192402 3.397883 12,000 268 342 0
2022-01-26 07:34:34 GMT 49.192493 3.402654 12,000 268 342 0
2022-01-26 07:34:31 GMT 49.192657 3.409917 12,000 268 352 -640
2022-01-26 07:34:26 GMT 49.192978 3.422664 12,000 268 342 0
2022-01-26 07:34:22 GMT 49.193207 3.433791 12,000 268 344 0
2022-01-26 07:34:18 GMT 49.193424 3.441756 12,000 268 346 -192
2022-01-26 07:34:14 GMT 49.193665 3.452313 12,050 268 352 -640
2022-01-26 07:34:11 GMT 49.193802 3.458721 12,075 268 354 -704
2022-01-26 07:34:08 GMT 49.194031 3.466692 12,100 268 357 -960
2022-01-26 07:34:05 GMT 49.194214 3.474285 12,175 268 359 -1152
2022-01-26 07:34:02 GMT 49.194580 3.488230 12,250 268 362 -1472
2022-01-26 07:33:59 GMT 49.194580 3.488230 12,425 268 367 -2240
2022-01-26 07:33:55 GMT 49.194855 3.498723 12,625 327 365 -3712
2022-01-26 07:33:52 GMT 49.195148 3.508759 12,575 268 369 -2624
2022-01-26 07:33:49 GMT 49.195267 3.513724 12,825 269 372 0
2022-01-26 07:33:46 GMT 49.195614 3.525166 12,825 268 369 -2880
2022-01-26 07:33:43 GMT 49.195816 3.531893 13,000 268 369 -3136
2022-01-26 07:33:40 GMT 49.196136 3.542034 13,150 268 370 -3072
2022-01-26 07:33:35 GMT 49.196411 3.550697 13,425 268 370 -3072
2022-01-26 07:33:32 GMT 49.196732 3.559570 13,550 268 370 -3072
2022-01-26 07:33:29 GMT 49.196960 3.567388 13,650 268 371 -3072
2022-01-26 07:33:25 GMT 49.197384 3.579375 13,900 268 371 -3072
2022-01-26 07:33:22 GMT 49.197662 3.588048 14,100 267 372 -3072
2022-01-26 07:33:19 GMT 49.197849 3.593541 14,150 268 372 -3072
2022-01-26 07:33:14 GMT 49.198288 3.606614 14,425 268 372 -3072
2022-01-26 07:33:11 GMT 49.198502 3.614285 14,600 269 372 -3072
2022-01-26 07:33:08 GMT 49.198639 3.620862 14,700 269 372 -3136
2022-01-26 07:33:05 GMT 49.198685 3.630042 14,925 273 370 -3200
2022-01-26 07:33:02 GMT 49.198502 3.638137 15,050 274 369 -3200
2022-01-26 07:32:59 GMT 49.198013 3.645912 15,300 283 367 -3392
2022-01-26 07:32:54 GMT 49.196636 3.657219 15,450 287 365 -3456
2022-01-26 07:32:51 GMT 49.194309 3.668566 15,725 292 363 -3456
2022-01-26 07:32:48 GMT 49.193161 3.673096 15,825 295 362 -3456
2022-01-26 07:32:44 GMT 49.187840 3.688804 16,125 303 360 -3520
2022-01-26 07:32:41 GMT 49.187840 3.688804 17,325 327 365 -3712
2022-01-26 07:32:38 GMT 49.183884 3.697333 16,475 313 360 -3392
2022-01-26 07:32:34 GMT 49.180904 3.702899 16,750 317 361 -3392
2022-01-26 07:32:31 GMT 49.176853 3.709331 16,825 320 361 -3328
2022-01-26 07:32:28 GMT 49.173569 3.713661 16,975 323 362 -3392
2022-01-26 07:32:25 GMT 49.167542 3.720607 17,275 330 366 -4032
2022-01-26 07:32:22 GMT 49.164051 3.723859 17,500 334 368 -4096
2022-01-26 07:32:19 GMT 49.159721 3.727473 17,600 336 370 -4096
2022-01-26 07:32:16 GMT 49.156631 3.729647 17,700 339 371 -4160
2022-01-26 07:32:13 GMT 49.151203 3.732894 18,075 345 375 -4224
2022-01-26 07:32:10 GMT 49.139374 3.737887 18,475 51 396 -4800
2022-01-26 07:32:06 GMT 49.139374 3.737887 18,400 5 383 -4992
2022-01-26 07:32:03 GMT 49.134888 3.738943 18,825 357 381 -4672
2022-01-26 07:32:00 GMT 49.128765 3.739833 18,950 0 382 -4992
2022-01-26 07:31:55 GMT 49.120152 3.739905 19,350 5 383 -4992
2022-01-26 07:31:52 GMT 49.115936 3.739366 19,550 9 384 -4928
2022-01-26 07:31:49 GMT 49.110535 3.738309 19,900 10 384 -4928
2022-01-26 07:31:46 GMT 49.103394 3.736126 20,150 13 389 -4928
2022-01-26 07:31:43 GMT 49.098598 3.734123 20,375 19 391 -4928
2022-01-26 07:31:40 GMT 49.093525 3.731521 20,625 21 390 -4928
2022-01-26 07:31:36 GMT 49.087875 3.728027 21,400 45 396 -4864
2022-01-26 07:31:32 GMT 49.082199 3.723802 21,200 30 392 -4992
2022-01-26 07:31:29 GMT 49.071487 3.713590 23,350 48 398 -4928
2022-01-26 07:31:25 GMT 49.071487 3.713590 21,925 40 395 -4928
2022-01-26 07:31:22 GMT 49.065903 3.706970 22,200 42 396 -4864
2022-01-26 07:31:19 GMT 49.061821 3.701453 23,325 46 396 -4864
2022-01-26 07:31:16 GMT 49.057709 3.695139 22,575 48 397 -4864
2022-01-26 07:31:12 GMT 49.053535 3.688081 23,250 50 397 -4864
2022-01-26 07:31:09 GMT 49.050232 3.682082 24,025 52 383 0
2022-01-26 07:31:04 GMT 49.043427 3.669222 23,550 51 397 -4800
2022-01-26 07:31:01 GMT 49.040409 3.663579 24,150 51 396 -4736
2022-01-26 07:30:58 GMT 49.037102 3.657291 24,150 51 396 -4736
2022-01-26 07:30:55 GMT 49.033218 3.649855 24,250 51 396 -4736
2022-01-26 07:30:52 GMT 49.030727 3.645076 24,675 51 396 -4736
2022-01-26 07:30:49 GMT 49.026169 3.636334 24,825 51 395 -4736
2022-01-26 07:30:46 GMT 49.022766 3.629753 25,350 51 393 -4800
2022-01-26 07:30:43 GMT 49.019505 3.623392 25,350 51 393 -4800
2022-01-26 07:30:40 GMT 49.016373 3.617249 25,425 51 393 -4800
2022-01-26 07:30:37 GMT 49.014084 3.612953 25,575 51 390 -4800
2022-01-26 07:30:35 GMT 49.010941 3.606840 25,800 51 390 -4800
2022-01-26 07:30:34 GMT 49.009823 3.604672 25,875 51 390 -4800
2022-01-26 07:30:31 GMT 49.006145 3.597517 26,375 52 386 -4736
2022-01-26 07:30:28 GMT 49.003052 3.591543 26,375 52 386 -4736
2022-01-26 07:30:27 GMT 48.997997 3.581688 26,725 52 384 -4736
2022-01-26 07:30:23 GMT 48.997997 3.581688 26,725 52 382 -4800
2022-01-26 07:30:21 GMT 48.995728 3.577247 26,900 52 382 -4800
2022-01-26 07:30:20 GMT 48.994648 3.575110 26,975 52 381 -4736
2022-01-26 07:30:19 GMT 48.993668 3.573162 27,050 54 376 -4416
2022-01-26 07:30:17 GMT 48.991745 3.569359 27,425 54 376 -4416
2022-01-26 07:30:14 GMT 48.988598 3.562967 27,425 54 376 -4416
2022-01-26 07:30:11 GMT 48.985016 3.555486 27,900 56 373 -4224
2022-01-26 07:30:08 GMT 48.981720 3.547880 27,900 58 372 -4032
2022-01-26 07:30:05 GMT 48.978745 3.540485 28,125 61 370 -3776
2022-01-26 07:30:02 GMT 48.976959 3.535791 28,275 62 369 -3712
2022-01-26 07:29:59 GMT 48.974072 3.527190 28,550 65 367 -3456
2022-01-26 07:29:56 GMT 48.972256 3.521407 28,725 66 367 -3456
2022-01-26 07:29:53 GMT 48.968067 3.506229 29,100 67 364 -3200
2022-01-26 07:29:50 GMT 48.968067 3.506229 29,100 67 363 -2944
2022-01-26 07:29:47 GMT 48.966297 3.499868 29,125 67 362 -2816
2022-01-26 07:29:45 GMT 48.964901 3.494664 29,225 67 362 -2688
2022-01-26 07:29:44 GMT 48.964325 3.492596 29,275 67 361 -2624
2022-01-26 07:29:43 GMT 48.963692 3.490255 29,300 67 361 -2496
2022-01-26 07:29:42 GMT 48.963039 3.487870 29,350 67 361 -2496
2022-01-26 07:29:40 GMT 48.961781 3.483172 29,425 67 361 -2304
2022-01-26 07:29:39 GMT 48.961128 3.480859 29,475 67 360 -2240
2022-01-26 07:29:38 GMT 48.960480 3.478511 29,500 67 360 -2176
2022-01-26 07:29:37 GMT 48.959702 3.475694 29,550 67 360 -2048
2022-01-26 07:29:34 GMT 48.958237 3.470342 29,725 67 360 -1664
2022-01-26 07:29:31 GMT 48.955963 3.461922 29,725 67 360 -1536
2022-01-26 07:29:29 GMT 48.954758 3.457454 29,775 67 360 -1152
2022-01-26 07:29:27 GMT 48.952332 3.448623 29,875 67 360 -1024
2022-01-26 07:29:25 GMT 48.952332 3.448623 29,875 67 360 -832
2022-01-26 07:29:22 GMT 48.950775 3.443017 29,875 67 360 -832
2022-01-26 07:29:20 GMT 48.949585 3.438580 29,900 67 360 -448
2022-01-26 07:29:18 GMT 48.947865 3.432288 29,975 67 360 -448
2022-01-26 07:29:14 GMT 48.945210 3.422675 29,975 67 362 -192
2022-01-26 07:29:11 GMT 48.943298 3.415664 30,000 67 362 -192
2022-01-26 07:29:08 GMT 48.941711 3.409776 30,000 67 371 0
2022-01-26 07:29:05 GMT 48.939972 3.403438 30,000 67 371 0
2022-01-26 07:29:02 GMT 48.937729 3.395198 30,000 67 371 0
2022-01-26 07:28:59 GMT 48.934341 3.382803 30,000 67 371 0
2022-01-26 07:28:56 GMT 48.934341 3.382803 30,000 67 373 0
2022-01-26 07:28:55 GMT 48.933617 3.380175 30,000 67 373 0
2022-01-26 07:28:53 GMT 48.931709 3.373236 30,000 67 378 -192
2022-01-26 07:28:50 GMT 48.930267 3.367888 30,000 67 378 -192
2022-01-26 07:28:47 GMT 48.927425 3.357335 30,050 67 382 -320
2022-01-26 07:28:44 GMT 48.926403 3.353649 30,050 67 389 -960
2022-01-26 07:28:42 GMT 48.924446 3.346421 30,050 67 389 -960
2022-01-26 07:28:39 GMT 48.922352 3.338687 30,100 67 389 -960
2022-01-26 07:28:36 GMT 48.920288 3.331181 30,150 67 389 -960
2022-01-26 07:28:33 GMT 48.916718 3.318016 30,200 67 391 -1088
2022-01-26 07:28:31 GMT 48.916718 3.318016 30,425 67 393 -1088
2022-01-26 07:28:28 GMT 48.915298 3.312941 30,425 67 395 -1088
2022-01-26 07:28:25 GMT 48.912735 3.303504 30,425 67 397 -1024
2022-01-26 07:28:22 GMT 48.909969 3.293224 30,425 67 400 -1024
2022-01-26 07:28:19 GMT 48.908478 3.287803 30,425 67 400 -1024
2022-01-26 07:28:15 GMT 48.906013 3.278768 30,600 67 403 -1024
2022-01-26 07:28:12 GMT 48.903500 3.269661 30,600 67 405 -1024
2022-01-26 07:28:09 GMT 48.901245 3.261249 30,600 67 411 -1088
2022-01-26 07:28:06 GMT 48.898376 3.250724 30,875 67 411 -1088
2022-01-26 07:28:03 GMT 48.896713 3.244629 30,875 67 423 -2880
2022-01-26 07:28:00 GMT 48.895538 3.240389 30,875 67 423 -2880
2022-01-26 07:27:57 GMT 48.892914 3.230755 30,825 67 415 -1152
2022-01-26 07:27:54 GMT 48.890945 3.223501 30,975 67 416 -1216
2022-01-26 07:27:51 GMT 48.888382 3.214135 30,975 67 420 -1344
2022-01-26 07:27:48 GMT 48.886002 3.205402 30,975 67 420 -1344
2022-01-26 07:27:47 GMT 48.885315 3.203008 31,000 67 421 -1536
2022-01-26 07:27:46 GMT 48.884583 3.200261 31,025 67 421 -1536
2022-01-26 07:27:43 GMT 48.882385 3.192373 31,075 67 422 -1856
2022-01-26 07:27:40 GMT 48.880371 3.184979 31,175 67 423 -1920
2022-01-26 07:27:38 GMT 48.878963 3.179819 31,250 67 423 -2176
2022-01-26 07:27:36 GMT 48.877304 3.173781 31,325 67 424 -2368
2022-01-26 07:27:35 GMT 48.876637 3.171290 31,375 67 424 -2368
2022-01-26 07:27:33 GMT 48.875195 3.166086 31,475 67 424 -2432
2022-01-26 07:27:31 GMT 48.873009 3.158136 31,575 67 424 -2816
2022-01-26 07:27:27 GMT 48.870255 3.148287 31,825 67 424 -2880
2022-01-26 07:27:24 GMT 48.868164 3.140572 31,875 67 424 -2880
2022-01-26 07:27:21 GMT 48.865860 3.132371 32,125 67 423 -2880
2022-01-26 07:27:18 GMT 48.863464 3.123659 32,350 67 423 -2880
2022-01-26 07:27:15 GMT 48.861191 3.115469 32,350 67 423 -2880
2022-01-26 07:27:12 GMT 48.859039 3.107793 32,450 67 422 -2880
2022-01-26 07:27:09 GMT 48.856155 3.097422 32,625 67 422 -2880
2022-01-26 07:27:06 GMT 48.854572 3.091712 32,850 67 422 -2880
2022-01-26 07:27:02 GMT 48.851532 3.080820 32,925 67 422 -2880
2022-01-26 07:27:00 GMT 48.849747 3.074552 33,025 67 422 -2880
2022-01-26 07:26:57 GMT 48.847870 3.067791 33,150 67 421 -2880
2022-01-26 07:26:54 GMT 48.845123 3.058030 33,325 67 420 -2880
2022-01-26 07:26:51 GMT 48.842880 3.049833 33,525 67 420 -2880
2022-01-26 07:26:48 GMT 48.841026 3.043068 33,625 67 420 -2880
2022-01-26 07:26:45 GMT 48.838486 3.033846 33,800 67 420 -2880
2022-01-26 07:26:42 GMT 48.836197 3.025395 33,900 67 419 -2880
2022-01-26 07:26:40 GMT 48.834595 3.019761 34,075 67 418 -2880
2022-01-26 07:26:37 GMT 48.832832 3.013217 34,225 67 417 -2880
2022-01-26 07:26:34 GMT 48.829807 3.002159 34,475 67 416 -2880
2022-01-26 07:26:31 GMT 48.828186 2.996239 34,450 67 416 -2880
2022-01-26 07:26:28 GMT 48.825668 2.986732 34,675 68 414 -2752
2022-01-26 07:26:25 GMT 48.823746 2.979478 34,850 68 415 -2816
2022-01-26 07:26:22 GMT 48.821548 2.971098 34,875 68 414 -2816
2022-01-26 07:26:19 GMT 48.819752 2.964357 35,025 68 413 -2624
2022-01-26 07:26:16 GMT 48.817291 2.954970 35,300 68 413 -2624
2022-01-26 07:26:12 GMT 48.814545 2.944477 35,300 68 413 -2304
2022-01-26 07:26:10 GMT 48.813187 2.939349 35,375 68 413 -2176
2022-01-26 07:26:06 GMT 48.808205 2.920267 35,600 68 414 -1984
2022-01-26 07:26:03 GMT 48.808205 2.920267 35,700 68 415 -1664
2022-01-26 07:26:00 GMT 48.805691 2.910871 35,725 68 417 -1152
2022-01-26 07:25:57 GMT 48.801819 2.896024 35,850 68 417 -1152
2022-01-26 07:25:54 GMT 48.801819 2.896024 35,850 68 417 -1088
2022-01-26 07:25:51 GMT 48.799732 2.888176 35,925 68 420 -768
2022-01-26 07:25:48 GMT 48.797779 2.880803 35,975 68 422 -384
2022-01-26 07:25:45 GMT 48.795544 2.872347 35,975 68 422 -448
2022-01-26 07:25:41 GMT 48.792751 2.861649 36,000 68 425 -64
2022-01-26 07:25:39 GMT 48.791382 2.856445 36,000 68 428 -64
2022-01-26 07:25:36 GMT 48.789120 2.847844 36,000 68 430 -64
2022-01-26 07:25:33 GMT 48.786026 2.836163 36,000 68 431 -64
2022-01-26 07:25:30 GMT 48.783768 2.827751 36,000 68 432 0
2022-01-26 07:25:27 GMT 48.782463 2.822691 36,000 68 431 -64
2022-01-26 07:25:24 GMT 48.780258 2.814261 36,000 68 431 0
2022-01-26 07:25:21 GMT 48.777294 2.803032 36,000 68 431 0
2022-01-26 07:25:18 GMT 48.775818 2.797429 36,000 68 432 -64
2022-01-26 07:25:15 GMT 48.772751 2.785950 36,000 68 432 0
2022-01-26 07:25:11 GMT 48.770683 2.778095 36,000 68 432 0
2022-01-26 07:25:09 GMT 48.769135 2.772217 36,000 68 432 0
2022-01-26 07:25:06 GMT 48.767193 2.764941 36,000 68 432 -64
2022-01-26 07:25:03 GMT 48.764214 2.753738 36,000 68 432 0
2022-01-26 07:25:00 GMT 48.762444 2.747016 36,000 68 432 0
2022-01-26 07:24:57 GMT 48.759796 2.737215 36,000 68 432 0
2022-01-26 07:24:54 GMT 48.758011 2.730525 36,025 68 432 0
2022-01-26 07:24:50 GMT 48.755264 2.720173 36,000 68 432 0
2022-01-26 07:24:47 GMT 48.752655 2.710383 36,000 68 432 0
2022-01-26 07:24:44 GMT 48.750435 2.701986 36,000 68 431 0
2022-01-26 07:24:40 GMT 48.747547 2.691072 36,000 68 432 64
2022-01-26 07:24:37 GMT 48.744431 2.679291 36,000 68 432 64
2022-01-26 07:24:34 GMT 48.743042 2.673974 36,000 68 431 0
2022-01-26 07:24:30 GMT 48.739262 2.659703 36,000 68 431 0
2022-01-26 07:24:27 GMT 48.735538 2.645754 36,000 68 431 0
2022-01-26 07:24:24 GMT 48.735538 2.645754 36,000 68 431 -64
2022-01-26 07:24:21 GMT 48.733154 2.636789 36,000 68 431 0
2022-01-26 07:24:18 GMT 48.731068 2.628985 36,000 68 431 0
2022-01-26 07:24:15 GMT 48.728508 2.619516 36,000 68 431 0
2022-01-26 07:24:12 GMT 48.726288 2.611084 36,000 68 431 0
2022-01-26 07:24:09 GMT 48.723587 2.601013 36,000 68 431 0
2022-01-26 07:24:06 GMT 48.722122 2.595450 36,000 68 431 0
2022-01-26 07:24:03 GMT 48.719971 2.587351 36,000 68 431 -64
2022-01-26 07:24:00 GMT 48.717545 2.578125 36,000 68 431 0
2022-01-26 07:23:57 GMT 48.715530 2.570590 36,000 68 431 0
2022-01-26 07:23:53 GMT 48.712784 2.560237 36,000 68 431 -64
2022-01-26 07:23:50 GMT 48.710175 2.550518 36,000 68 431 0
2022-01-26 07:23:47 GMT 48.708298 2.543476 36,000 68 431 0
2022-01-26 07:23:44 GMT 48.705414 2.532630 36,000 67 430 0
2022-01-26 07:23:41 GMT 48.703857 2.526785 36,000 67 431 64
2022-01-26 07:23:39 GMT 48.702347 2.521221 36,000 67 431 64
2022-01-26 07:23:36 GMT 48.699600 2.510869 36,000 67 431 64
2022-01-26 07:23:32 GMT 48.696808 2.500587 36,000 67 431 0
2022-01-26 07:23:29 GMT 48.694519 2.491925 36,000 67 431 0
2022-01-26 07:23:26 GMT 48.691452 2.480453 36,000 67 431 0
2022-01-26 07:23:23 GMT 48.690033 2.475163 36,000 67 431 0
2022-01-26 07:23:20 GMT 48.687031 2.464045 36,000 67 430 64
2022-01-26 07:23:17 GMT 48.685547 2.458473 36,000 67 430 0
2022-01-26 07:23:14 GMT 48.681290 2.442557 36,000 67 430 0
2022-01-26 07:23:11 GMT 48.681290 2.442557 35,975 67 430 64
2022-01-26 07:23:08 GMT 48.678791 2.433399 36,000 67 430 64
2022-01-26 07:23:05 GMT 48.676804 2.425866 36,000 67 430 64
2022-01-26 07:23:02 GMT 48.674553 2.417498 35,975 67 430 0
2022-01-26 07:22:59 GMT 48.672592 2.410302 35,975 67 430 0
2022-01-26 07:22:57 GMT 48.670506 2.402464 35,975 67 430 0
2022-01-26 07:22:54 GMT 48.668037 2.393285 35,975 67 431 0
2022-01-26 07:22:50 GMT 48.665039 2.382132 35,975 67 430 0
2022-01-26 07:22:47 GMT 48.663162 2.375160 35,975 67 430 0
2022-01-26 07:22:44 GMT 48.660637 2.365747 35,975 67 430 0
2022-01-26 07:22:40 GMT 48.657944 2.355722 35,975 67 430 0
2022-01-26 07:22:38 GMT 48.656773 2.351291 35,975 67 430 0
2022-01-26 07:22:35 GMT 48.654602 2.343187 35,975 67 429 0
2022-01-26 07:22:32 GMT 48.652267 2.334595 35,975 67 429 0
2022-01-26 07:22:29 GMT 48.650070 2.326566 35,975 67 429 0
2022-01-26 07:22:26 GMT 48.647598 2.317411 35,975 67 430 0
2022-01-26 07:22:23 GMT 48.645126 2.308256 35,975 67 429 0
2022-01-26 07:22:21 GMT 48.643570 2.302410 35,975 67 430 0
2022-01-26 07:22:18 GMT 48.641098 2.293255 35,975 67 430 0
2022-01-26 07:22:14 GMT 48.638523 2.283855 35,975 67 430 0
2022-01-26 07:22:11 GMT 48.634415 2.268536 35,975 67 430 0
2022-01-26 07:22:08 GMT 48.634415 2.268536 35,975 67 430 0
2022-01-26 07:22:05 GMT 48.631401 2.257474 35,975 67 430 0
2022-01-26 07:22:02 GMT 48.626743 2.240271 35,975 67 430 0
2022-01-26 07:21:59 GMT 48.626743 2.240271 36,000 67 430 0
2022-01-26 07:21:56 GMT 48.624481 2.231985 36,000 67 430 0
2022-01-26 07:21:53 GMT 48.623108 2.226985 35,975 67 430 0
2022-01-26 07:21:51 GMT 48.621487 2.220901 35,975 67 430 0
2022-01-26 07:21:49 GMT 48.619812 2.214801 35,975 67 430 0
2022-01-26 07:21:46 GMT 48.617569 2.206491 35,975 67 430 0
2022-01-26 07:21:43 GMT 48.615372 2.198463 35,975 67 430 0
2022-01-26 07:21:41 GMT 48.613770 2.192618 35,975 67 430 0
2022-01-26 07:21:39 GMT 48.611523 2.184328 35,975 67 430 0
2022-01-26 07:21:36 GMT 48.610382 2.180152 35,975 67 430 0
2022-01-26 07:21:33 GMT 48.607773 2.170434 35,975 67 430 0
2022-01-26 07:21:31 GMT 48.606262 2.164885 35,975 67 430 0
2022-01-26 07:21:29 GMT 48.604843 2.159659 35,975 67 430 0
2022-01-26 07:21:26 GMT 48.602509 2.151067 35,975 67 430 0
2022-01-26 07:21:23 GMT 48.600395 2.143346 35,975 67 430 0
2022-01-26 07:21:20 GMT 48.597233 2.131709 35,975 67 430 -64
2022-01-26 07:21:16 GMT 48.594955 2.123390 35,975 67 430 0
2022-01-26 07:21:13 GMT 48.592621 2.114798 35,975 67 430 -64
2022-01-26 07:21:09 GMT 48.589783 2.104243 36,000 67 430 0
2022-01-26 07:21:07 GMT 48.587410 2.095714 35,975 67 430 0
2022-01-26 07:21:04 GMT 48.585480 2.088529 35,975 67 430 0
2022-01-26 07:21:01 GMT 48.583359 2.080753 36,000 67 430 -64
2022-01-26 07:20:58 GMT 48.581402 2.073525 36,000 67 430 -64
2022-01-26 07:20:55 GMT 48.579494 2.066658 36,000 67 430 0
2022-01-26 07:20:52 GMT 48.575863 2.053359 36,000 67 430 -64
2022-01-26 07:20:49 GMT 48.574375 2.047794 36,000 67 430 0
2022-01-26 07:20:46 GMT 48.572327 2.040349 36,000 67 430 0
2022-01-26 07:20:42 GMT 48.569778 2.030921 36,000 67 430 0
2022-01-26 07:20:39 GMT 48.566666 2.019583 36,000 67 430 0
2022-01-26 07:20:36 GMT 48.564606 2.012118 36,000 67 430 0
2022-01-26 07:20:33 GMT 48.562729 2.005216 36,000 67 430 0
2022-01-26 07:20:31 GMT 48.558033 1.988019 36,000 67 430 -64
2022-01-26 07:20:28 GMT 48.558033 1.988019 36,000 67 430 0
2022-01-26 07:20:25 GMT 48.556171 1.981081 36,000 67 430 0
2022-01-26 07:20:22 GMT 48.554543 1.975298 36,000 67 430 0
2022-01-26 07:20:19 GMT 48.552109 1.966412 36,000 67 430 0
2022-01-26 07:20:17 GMT 48.550537 1.960626 36,000 67 430 0
2022-01-26 07:20:14 GMT 48.546722 1.946748 36,000 67 430 0
2022-01-26 07:20:12 GMT 48.546722 1.946748 36,000 67 430 0
2022-01-26 07:20:09 GMT 48.544006 1.936763 36,000 67 430 0
2022-01-26 07:20:04 GMT 48.540810 1.925137 36,000 67 431 0
2022-01-26 07:20:02 GMT 48.539291 1.919579 36,000 67 431 0
2022-01-26 07:19:59 GMT 48.536316 1.908804 36,000 67 430 0
2022-01-26 07:19:56 GMT 48.534012 1.900490 36,000 67 430 64
2022-01-26 07:19:53 GMT 48.532425 1.894649 36,000 67 430 0
2022-01-26 07:19:50 GMT 48.530228 1.886620 36,000 67 430 64
2022-01-26 07:19:47 GMT 48.527527 1.876901 36,000 67 431 0
2022-01-26 07:19:44 GMT 48.525330 1.868873 36,000 67 431 0
2022-01-26 07:19:41 GMT 48.522793 1.859797 36,000 67 431 0
2022-01-26 07:19:38 GMT 48.520653 1.852064 36,000 67 431 0
2022-01-26 07:19:35 GMT 48.518417 1.844041 36,000 67 431 0
2022-01-26 07:19:32 GMT 48.516129 1.835703 36,000 67 431 0
2022-01-26 07:19:30 GMT 48.514526 1.829928 36,000 67 431 0
2022-01-26 07:19:28 GMT 48.512970 1.824364 36,000 67 432 0
2022-01-26 07:19:26 GMT 48.510460 1.815202 36,000 67 432 0
2022-01-26 07:19:23 GMT 48.507477 1.804432 36,000 67 431 0
2022-01-26 07:19:18 GMT 48.505234 1.796405 36,000 67 431 0
2022-01-26 07:19:15 GMT 48.502914 1.788097 36,000 67 431 0
2022-01-26 07:19:13 GMT 48.501007 1.781158 36,000 67 431 0
2022-01-26 07:19:10 GMT 48.496857 1.766264 36,000 67 431 0
2022-01-26 07:19:07 GMT 48.496857 1.766264 36,000 67 431 0
2022-01-26 07:19:04 GMT 48.494614 1.758235 36,000 67 431 0
2022-01-26 07:19:01 GMT 48.492691 1.751333 36,000 67 434 64
2022-01-26 07:18:58 GMT 48.490311 1.742742 36,000 67 432 0
2022-01-26 07:18:55 GMT 48.487747 1.733586 36,000 67 434 0
2022-01-26 07:18:52 GMT 48.485367 1.724994 36,000 67 433 0
2022-01-26 07:18:49 GMT 48.483227 1.717192 36,000 67 434 0
2022-01-26 07:18:47 GMT 48.481613 1.711402 36,000 67 434 0
2022-01-26 07:18:44 GMT 48.478477 1.699990 36,000 67 434 64
2022-01-26 07:18:41 GMT 48.476395 1.692458 36,000 46 426 0
2022-01-26 07:18:38 GMT 48.473831 1.683303 36,000 63 433 64
2022-01-26 07:18:35 GMT 48.472286 1.677728 36,000 64 433 64
2022-01-26 07:18:32 GMT 48.469986 1.669992 36,000 61 434 0
2022-01-26 07:18:30 GMT 48.467583 1.662405 36,000 62 433 64
2022-01-26 07:18:27 GMT 48.462135 1.646576 36,000 61 433 64
2022-01-26 07:18:24 GMT 48.462135 1.646576 36,000 60 434 0
2022-01-26 07:18:22 GMT 48.460648 1.642601 36,000 60 434 0
2022-01-26 07:18:19 GMT 48.457947 1.635590 36,000 58 434 0
2022-01-26 07:18:16 GMT 48.454193 1.626329 36,000 56 434 -64
2022-01-26 07:18:13 GMT 48.450916 1.618749 36,000 55 434 -64
2022-01-26 07:18:10 GMT 48.447510 1.611258 36,000 53 433 -64
2022-01-26 07:18:08 GMT 48.445724 1.607596 36,000 53 433 -64
2022-01-26 07:18:05 GMT 48.441559 1.599145 36,000 51 431 0
2022-01-26 07:18:02 GMT 48.438126 1.592525 36,000 51 430 64
2022-01-26 07:17:59 GMT 48.434624 1.586007 36,000 48 426 128
2022-01-26 07:17:57 GMT 48.431808 1.580975 36,000 48 426 192
2022-01-26 07:17:55 GMT 48.429363 1.576683 35,975 48 426 192
2022-01-26 07:17:53 GMT 48.426498 1.571820 35,975 47 425 192
2022-01-26 07:17:51 GMT 48.423706 1.567242 35,975 46 424 0
2022-01-26 07:17:48 GMT 48.420101 1.561432 35,975 46 423 0
2022-01-26 07:17:46 GMT 48.417027 1.556517 35,975 46 423 0
2022-01-26 07:17:43 GMT 48.412327 1.549000 35,975 46 424 0
2022-01-26 07:17:39 GMT 48.408463 1.542734 35,975 46 424 0
2022-01-26 07:17:36 GMT 48.404297 1.536114 35,975 46 428 -64
2022-01-26 07:17:33 GMT 48.399197 1.527967 35,975 46 424 0
2022-01-26 07:17:30 GMT 48.392540 1.517197 35,975 46 428 -64
2022-01-26 07:17:27 GMT 48.392540 1.517197 35,975 46 428 -64
2022-01-26 07:17:24 GMT 48.387680 1.509493 35,975 46 424 0
2022-01-26 07:17:21 GMT 48.377087 1.492478 35,975 46 425 0
2022-01-26 07:17:17 GMT 48.377087 1.492478 35,975 46 425 0
2022-01-26 07:17:14 GMT 48.374954 1.489000 35,975 46 425 0
2022-01-26 07:17:12 GMT 48.367035 1.476323 35,975 46 425 0
2022-01-26 07:17:08 GMT 48.367035 1.476323 35,975 46 425 0
2022-01-26 07:17:05 GMT 48.361816 1.467904 35,975 46 425 -64
2022-01-26 07:17:01 GMT 48.356556 1.459519 35,975 46 425 -64
2022-01-26 07:16:58 GMT 48.352783 1.453520 36,000 46 425 -64
2022-01-26 07:16:55 GMT 48.348724 1.447097 36,000 46 425 -64
2022-01-26 07:16:52 GMT 48.344685 1.440655 36,000 46 425 0
2022-01-26 07:16:49 GMT 48.340347 1.433786 36,000 46 425 0
2022-01-26 07:16:46 GMT 48.336025 1.426849 36,000 46 426 0
2022-01-26 07:16:42 GMT 48.331837 1.420200 36,000 46 427 0
2022-01-26 07:16:40 GMT 48.324715 1.408780 36,000 46 427 0
2022-01-26 07:16:37 GMT 48.324715 1.408780 36,000 46 427 0
2022-01-26 07:16:34 GMT 48.317780 1.397793 36,000 46 428 -64
2022-01-26 07:16:32 GMT 48.317780 1.397793 36,000 46 428 -64
2022-01-26 07:16:29 GMT 48.313869 1.391577 36,000 46 428 -64
2022-01-26 07:16:27 GMT 48.310364 1.385968 36,000 46 428 -64
2022-01-26 07:16:24 GMT 48.307259 1.380953 36,000 46 428 -64
2022-01-26 07:16:22 GMT 48.303860 1.375604 36,000 46 428 -64
2022-01-26 07:16:19 GMT 48.300320 1.369966 36,000 46 428 -64
2022-01-26 07:16:17 GMT 48.297638 1.365615 36,000 46 428 -64
2022-01-26 07:16:15 GMT 48.294250 1.360262 36,025 46 428 -64
2022-01-26 07:16:13 GMT 48.292053 1.356812 36,025 46 428 -64
2022-01-26 07:16:10 GMT 48.288265 1.350740 36,025 46 428 -64
2022-01-26 07:16:07 GMT 48.282722 1.341850 36,025 46 428 0
2022-01-26 07:16:04 GMT 48.279839 1.337369 36,025 46 429 -64
2022-01-26 07:16:01 GMT 48.276066 1.331297 36,025 46 429 -64
2022-01-26 07:15:59 GMT 48.269550 1.320889 36,025 46 429 -64
2022-01-26 07:15:57 GMT 48.269550 1.320889 36,025 46 429 0
2022-01-26 07:15:53 GMT 48.264755 1.313372 36,025 46 430 -64
2022-01-26 07:15:49 GMT 48.258377 1.303181 36,025 46 430 -64
2022-01-26 07:15:46 GMT 48.255661 1.298852 36,025 46 430 0
2022-01-26 07:15:43 GMT 48.250900 1.291246 36,025 46 430 0
2022-01-26 07:15:41 GMT 48.248428 1.287372 36,025 46 430 0
2022-01-26 07:15:38 GMT 48.244492 1.281104 36,025 46 430 0
2022-01-26 07:15:36 GMT 48.243118 1.278921 36,025 46 430 0
2022-01-26 07:15:34 GMT 48.238731 1.271957 36,025 46 430 0
2022-01-26 07:15:31 GMT 48.235748 1.267231 36,025 46 431 64
2022-01-26 07:15:29 GMT 48.231537 1.260470 36,025 46 431 64
2022-01-26 07:15:27 GMT 48.228790 1.256174 36,025 46 431 64
2022-01-26 07:15:24 GMT 48.224442 1.249189 36,025 46 430 0
2022-01-26 07:15:22 GMT 48.217850 1.238779 36,025 46 430 0
2022-01-26 07:15:19 GMT 48.217850 1.238779 36,025 46 432 64
2022-01-26 07:15:17 GMT 48.216202 1.236179 36,025 46 434 0
2022-01-26 07:15:13 GMT 48.205399 1.219060 36,025 46 432 64
2022-01-26 07:15:09 GMT 48.205399 1.219060 36,000 46 432 64
2022-01-26 07:15:06 GMT 48.201118 1.212327 36,000 46 434 0
2022-01-26 07:15:04 GMT 48.197571 1.206735 36,025 46 433 0
2022-01-26 07:15:01 GMT 48.193996 1.201051 36,025 46 433 -64
2022-01-26 07:14:58 GMT 48.188873 1.193029 36,025 46 433 0
2022-01-26 07:14:54 GMT 48.184204 1.185608 36,025 46 433 -64
2022-01-26 07:14:51 GMT 48.178299 1.176312 36,025 46 433 -64
2022-01-26 07:14:48 GMT 48.176910 1.174164 36,025 46 433 0
2022-01-26 07:14:46 GMT 48.172897 1.167861 36,025 46 435 0
2022-01-26 07:14:43 GMT 48.168915 1.161522 36,025 46 433 0
2022-01-26 07:14:41 GMT 48.165878 1.156745 36,025 46 433 0
2022-01-26 07:14:38 GMT 48.161911 1.150466 36,025 46 433 0
2022-01-26 07:14:35 GMT 48.158012 1.144339 36,025 46 433 0
2022-01-26 07:14:33 GMT 48.154053 1.138071 36,025 46 434 0
2022-01-26 07:14:30 GMT 48.151428 1.133926 36,025 46 434 0
2022-01-26 07:14:26 GMT 48.146046 1.125465 36,025 46 434 0
2022-01-26 07:14:23 GMT 48.142181 1.119408 36,025 46 434 0
2022-01-26 07:14:21 GMT 48.139015 1.114408 36,025 46 434 64
2022-01-26 07:14:19 GMT 48.132267 1.103703 36,025 46 435 0
2022-01-26 07:14:16 GMT 48.132267 1.103703 36,025 46 435 0
2022-01-26 07:14:13 GMT 48.124260 1.091097 36,025 46 435 0
2022-01-26 07:14:10 GMT 48.124260 1.091097 36,025 46 435 0
2022-01-26 07:14:07 GMT 48.118301 1.081731 36,025 46 435 0
2022-01-26 07:14:03 GMT 48.113617 1.074326 36,025 46 435 0
2022-01-26 07:14:00 GMT 48.110016 1.068632 36,025 46 435 0
2022-01-26 07:13:58 GMT 48.105881 1.062103 36,025 46 435 0
2022-01-26 07:13:56 GMT 48.103825 1.058843 36,025 46 435 0
2022-01-26 07:13:53 GMT 48.099773 1.052575 36,025 46 435 0
2022-01-26 07:13:51 GMT 48.096451 1.047340 36,025 46 435 0
2022-01-26 07:13:47 GMT 48.091488 1.039476 36,025 46 435 0
2022-01-26 07:13:45 GMT 48.089401 1.036217 36,025 46 435 0
2022-01-26 07:13:43 GMT 48.085529 1.030180 36,025 46 435 0
2022-01-26 07:13:41 GMT 48.083572 1.027081 36,025 46 435 0
2022-01-26 07:13:38 GMT 48.079571 1.020813 36,025 46 435 0
2022-01-26 07:13:36 GMT 48.076683 1.016235 36,000 46 435 0
2022-01-26 07:13:33 GMT 48.071960 1.008820 36,025 46 435 64
2022-01-26 07:13:31 GMT 48.069328 1.004686 36,000 46 435 64
2022-01-26 07:13:28 GMT 48.064316 0.996872 36,000 46 435 64
2022-01-26 07:13:25 GMT 48.060997 0.991657 36,000 46 435 64
2022-01-26 07:13:22 GMT 48.056854 0.985199 36,000 46 435 0
2022-01-26 07:13:19 GMT 48.052711 0.978628 36,000 46 435 0
2022-01-26 07:13:16 GMT 48.049217 0.973206 36,000 46 435 0
2022-01-26 07:13:14 GMT 48.046051 0.968239 36,000 46 435 0
2022-01-26 07:13:11 GMT 48.040924 0.960205 36,000 46 435 0
2022-01-26 07:13:08 GMT 48.037022 0.954120 36,000 46 435 0
2022-01-26 07:13:05 GMT 48.033691 0.948875 36,000 46 435 0
2022-01-26 07:13:02 GMT 48.029945 0.943064 36,000 46 435 -64
2022-01-26 07:13:00 GMT 48.026367 0.937408 36,025 46 435 -64
2022-01-26 07:12:57 GMT 48.022888 0.931984 36,025 46 435 -64
2022-01-26 07:12:55 GMT 48.018726 0.925457 36,025 46 435 -64
2022-01-26 07:12:52 GMT 48.015934 0.921161 36,025 46 435 -64
2022-01-26 07:12:50 GMT 48.012489 0.915739 36,025 46 435 -64
2022-01-26 07:12:47 GMT 48.008331 0.909256 36,025 46 435 0
2022-01-26 07:12:44 GMT 48.003479 0.901634 36,025 46 435 0
2022-01-26 07:12:41 GMT 47.999874 0.896020 36,025 46 435 -64
2022-01-26 07:12:38 GMT 47.996704 0.891060 36,025 46 435 -64
2022-01-26 07:12:35 GMT 47.991726 0.883202 36,025 46 435 -64
2022-01-26 07:12:32 GMT 47.986885 0.875667 36,025 46 435 -64
2022-01-26 07:12:30 GMT 47.984116 0.871353 36,025 46 435 -64
2022-01-26 07:12:27 GMT 47.980507 0.865666 36,025 46 435 -64
2022-01-26 07:12:22 GMT 47.973862 0.855286 36,025 46 435 0
2022-01-26 07:12:20 GMT 47.970825 0.850525 36,025 46 435 0
2022-01-26 07:12:17 GMT 47.961960 0.836678 36,025 46 435 0
2022-01-26 07:12:14 GMT 47.961960 0.836678 36,025 46 434 0
2022-01-26 07:12:11 GMT 47.958347 0.831088 36,025 46 434 0
2022-01-26 07:12:07 GMT 47.949921 0.817863 36,025 46 434 0
2022-01-26 07:12:05 GMT 47.949921 0.817863 36,025 46 434 0
2022-01-26 07:12:02 GMT 47.946350 0.812233 36,025 46 434 0
2022-01-26 07:12:00 GMT 47.939438 0.801453 36,025 46 434 64
2022-01-26 07:11:57 GMT 47.939438 0.801453 36,025 46 434 0
2022-01-26 07:11:54 GMT 47.934586 0.793900 36,025 46 434 0
2022-01-26 07:11:51 GMT 47.930695 0.787846 36,025 46 434 0
2022-01-26 07:11:48 GMT 47.926926 0.782001 36,025 46 434 0
2022-01-26 07:11:45 GMT 47.922642 0.775311 36,025 46 434 0
2022-01-26 07:11:42 GMT 47.917923 0.768013 36,025 46 434 0
2022-01-26 07:11:39 GMT 47.912796 0.760048 36,025 46 434 0
2022-01-26 07:11:36 GMT 47.907944 0.752495 36,025 46 434 64
2022-01-26 07:11:31 GMT 47.902905 0.744746 36,025 46 434 0
2022-01-26 07:11:27 GMT 47.897369 0.736153 36,000 46 434 0
2022-01-26 07:11:24 GMT 47.893341 0.729904 36,000 46 434 0
2022-01-26 07:11:22 GMT 47.890011 0.724746 36,025 46 434 64
2022-01-26 07:11:20 GMT 47.888214 0.721939 36,000 46 434 0
2022-01-26 07:11:16 GMT 47.882652 0.713337 36,000 46 434 0
2022-01-26 07:11:13 GMT 47.878044 0.706224 36,000 46 433 64
2022-01-26 07:11:10 GMT 47.870319 0.694181 36,000 46 433 64
2022-01-26 07:11:07 GMT 47.870319 0.694181 36,000 46 433 64
2022-01-26 07:11:04 GMT 47.865707 0.687138 36,000 46 433 0
2022-01-26 07:11:01 GMT 47.861984 0.681290 36,000 46 433 64
2022-01-26 07:10:59 GMT 47.858631 0.676152 36,000 46 433 0
2022-01-26 07:10:56 GMT 47.854908 0.670377 36,000 46 433 64
2022-01-26 07:10:54 GMT 47.851696 0.665448 36,000 46 432 64
2022-01-26 07:10:51 GMT 47.843399 0.652588 36,000 46 432 64
2022-01-26 07:10:48 GMT 47.839222 0.646151 36,000 46 432 64
2022-01-26 07:10:45 GMT 47.839222 0.646151 35,975 46 432 0
2022-01-26 07:10:41 GMT 47.833969 0.638031 35,975 46 432 0
2022-01-26 07:10:38 GMT 47.829819 0.631573 35,975 46 432 0
2022-01-26 07:10:35 GMT 47.825638 0.625122 35,975 46 432 0
2022-01-26 07:10:33 GMT 47.823715 0.622169 35,975 46 432 0
2022-01-26 07:10:30 GMT 47.818176 0.613586 35,975 46 432 0
2022-01-26 07:10:27 GMT 47.813461 0.606308 35,975 46 432 0
2022-01-26 07:10:24 GMT 47.810730 0.602065 35,975 46 432 0
2022-01-26 07:10:21 GMT 47.806450 0.595445 35,975 46 432 0
2022-01-26 07:10:18 GMT 47.800770 0.586642 35,975 46 432 0
2022-01-26 07:10:15 GMT 47.798023 0.582346 35,975 46 431 64
2022-01-26 07:10:13 GMT 47.795090 0.577909 35,975 46 431 64
2022-01-26 07:10:10 GMT 47.790527 0.570867 35,975 46 431 64
2022-01-26 07:10:07 GMT 47.787083 0.565514 35,975 46 431 64
2022-01-26 07:10:05 GMT 47.778282 0.551922 35,975 46 431 0
2022-01-26 07:10:01 GMT 47.778282 0.551922 35,975 46 431 0
2022-01-26 07:09:59 GMT 47.774689 0.546364 35,975 46 431 0
2022-01-26 07:09:55 GMT 47.770416 0.539739 35,975 46 431 0
2022-01-26 07:09:53 GMT 47.766541 0.533798 35,975 46 431 0
2022-01-26 07:09:50 GMT 47.763657 0.529335 35,975 46 431 0
2022-01-26 07:09:47 GMT 47.759525 0.522907 35,975 46 430 0
2022-01-26 07:09:45 GMT 47.756359 0.518048 35,975 46 430 -64
2022-01-26 07:09:43 GMT 47.753613 0.513752 35,975 46 430 0
2022-01-26 07:09:40 GMT 47.749329 0.507202 35,975 46 430 0
2022-01-26 07:09:37 GMT 47.745884 0.501850 35,975 46 430 0
2022-01-26 07:09:35 GMT 47.742485 0.496568 35,975 46 430 0
2022-01-26 07:09:33 GMT 47.740017 0.492695 35,975 46 430 0
2022-01-26 07:09:30 GMT 47.735737 0.486145 35,975 46 430 0
2022-01-26 07:09:28 GMT 47.733688 0.482976 35,975 46 429 0
2022-01-26 07:09:25 GMT 47.728565 0.475088 35,975 46 430 0
2022-01-26 07:09:23 GMT 47.726097 0.471285 35,975 46 430 0
2022-01-26 07:09:20 GMT 47.721954 0.464928 35,975 46 429 0
2022-01-26 07:09:17 GMT 47.717697 0.458405 35,975 46 429 0
2022-01-26 07:09:14 GMT 47.713577 0.451989 35,975 46 429 0
2022-01-26 07:09:12 GMT 47.710968 0.448036 35,975 46 429 0
2022-01-26 07:09:09 GMT 47.706985 0.441856 35,975 46 429 0
2022-01-26 07:09:05 GMT 47.700634 0.432129 35,975 46 429 0
2022-01-26 07:09:02 GMT 47.697750 0.427692 36,000 45 428 0
2022-01-26 07:08:59 GMT 47.693619 0.421394 35,975 46 429 0
2022-01-26 07:08:57 GMT 47.691559 0.418185 35,975 46 429 0
2022-01-26 07:08:55 GMT 47.684830 0.407867 35,975 46 429 0
2022-01-26 07:08:53 GMT 47.684830 0.407867 35,975 46 429 0
2022-01-26 07:08:49 GMT 47.679035 0.398959 35,975 46 429 0
2022-01-26 07:08:47 GMT 47.676407 0.394958 35,975 46 429 0
2022-01-26 07:08:44 GMT 47.672283 0.388677 35,975 46 429 0
2022-01-26 07:08:40 GMT 47.667023 0.380676 36,000 45 428 0
2022-01-26 07:08:37 GMT 47.662647 0.373887 36,000 46 429 0
2022-01-26 07:08:34 GMT 47.654083 0.360788 36,000 45 428 0
2022-01-26 07:08:31 GMT 47.654083 0.360788 36,000 45 429 0
2022-01-26 07:08:28 GMT 47.651196 0.356422 36,000 45 429 0
2022-01-26 07:08:25 GMT 47.647064 0.350052 36,000 45 429 0
2022-01-26 07:08:23 GMT 47.643494 0.344627 36,000 45 429 0
2022-01-26 07:08:20 GMT 47.639191 0.338104 36,000 45 428 0
2022-01-26 07:08:17 GMT 47.636307 0.333641 36,000 45 428 0
2022-01-26 07:08:15 GMT 47.632324 0.327530 36,000 45 428 0
2022-01-26 07:08:12 GMT 47.628708 0.322105 36,000 46 429 0
2022-01-26 07:08:08 GMT 47.623077 0.313454 36,000 46 429 0
2022-01-26 07:08:05 GMT 47.618820 0.306931 36,000 45 428 0
2022-01-26 07:08:02 GMT 47.615490 0.301842 36,000 45 428 0
2022-01-26 07:07:58 GMT 47.609299 0.292405 36,000 46 429 0
2022-01-26 07:07:56 GMT 47.605854 0.287123 36,000 45 428 0
2022-01-26 07:07:53 GMT 47.601292 0.280151 36,000 45 428 0
2022-01-26 07:07:50 GMT 47.597855 0.274933 36,000 45 428 0
2022-01-26 07:07:47 GMT 47.593323 0.267998 36,000 45 429 0
2022-01-26 07:07:45 GMT 47.591400 0.265045 36,000 45 429 0
2022-01-26 07:07:42 GMT 47.587234 0.258672 36,000 45 429 0
2022-01-26 07:07:37 GMT 47.580368 0.248222 36,000 45 429 0
2022-01-26 07:07:34 GMT 47.576340 0.242111 36,000 45 428 0
2022-01-26 07:07:31 GMT 47.572758 0.236629 36,000 45 428 0
2022-01-26 07:07:28 GMT 47.567123 0.227966 36,000 45 428 0
2022-01-26 07:07:25 GMT 47.564514 0.224022 36,000 45 428 0
2022-01-26 07:07:23 GMT 47.561737 0.219795 36,000 45 428 0
2022-01-26 07:07:21 GMT 47.558441 0.214714 36,000 45 429 0
2022-01-26 07:07:18 GMT 47.553360 0.206955 36,000 45 429 0
2022-01-26 07:07:16 GMT 47.552086 0.205078 36,000 45 429 0
2022-01-26 07:07:14 GMT 47.548084 0.198951 36,000 45 429 0
2022-01-26 07:07:10 GMT 47.542831 0.191025 36,000 45 429 0
2022-01-26 07:07:07 GMT 47.538849 0.184914 36,025 45 429 0
2022-01-26 07:07:04 GMT 47.535515 0.179866 36,025 45 429 0
2022-01-26 07:06:59 GMT 47.526810 0.166626 36,000 45 429 0
2022-01-26 07:06:56 GMT 47.523922 0.162260 36,000 45 429 0
2022-01-26 07:06:54 GMT 47.520584 0.157242 36,000 45 429 -64
2022-01-26 07:06:49 GMT 47.513680 0.146696 36,025 45 429 -64
2022-01-26 07:06:46 GMT 47.510235 0.141484 36,025 45 429 0
2022-01-26 07:06:44 GMT 47.501907 0.128883 36,025 45 429 0
2022-01-26 07:06:40 GMT 47.501907 0.128883 36,025 45 429 0
2022-01-26 07:06:37 GMT 47.497879 0.122841 36,025 45 429 0
2022-01-26 07:06:35 GMT 47.495247 0.118878 36,025 45 429 0
2022-01-26 07:06:33 GMT 47.492359 0.114441 36,025 45 429 0
2022-01-26 07:06:30 GMT 47.487518 0.107117 36,025 45 429 0
2022-01-26 07:06:27 GMT 47.483234 0.100638 36,025 45 429 0
2022-01-26 07:06:24 GMT 47.479790 0.095356 36,025 45 429 0
2022-01-26 07:06:22 GMT 47.477142 0.091393 36,025 45 429 0
2022-01-26 07:06:20 GMT 47.473831 0.086341 36,000 45 429 64
2022-01-26 07:06:17 GMT 47.469681 0.080063 36,025 45 429 64
2022-01-26 07:06:15 GMT 47.465652 0.073952 36,000 45 429 0
2022-01-26 07:06:12 GMT 47.463730 0.071059 36,000 45 429 0
2022-01-26 07:06:10 GMT 47.460148 0.065566 36,000 45 429 0
2022-01-26 07:06:07 GMT 47.455673 0.058846 36,000 45 429 0
2022-01-26 07:06:05 GMT 47.452930 0.054650 36,000 45 429 0
2022-01-26 07:06:03 GMT 47.450138 0.050495 36,000 45 429 0
2022-01-26 07:05:59 GMT 47.439468 0.034332 36,000 45 429 0
2022-01-26 07:05:55 GMT 47.439468 0.034332 36,000 45 429 0
2022-01-26 07:05:53 GMT 47.436539 0.029938 36,000 45 429 0
2022-01-26 07:05:50 GMT 47.431286 0.021973 36,000 45 430 0
2022-01-26 07:05:47 GMT 47.427658 0.016479 36,000 45 430 0
2022-01-26 07:05:44 GMT 47.422806 0.009201 36,000 45 430 0
2022-01-26 07:05:41 GMT 47.420158 0.005211 36,000 45 429 0
2022-01-26 07:05:39 GMT 47.417271 0.000775 36,000 45 430 0
2022-01-26 07:05:36 GMT 47.413101 -0.005493 36,000 45 429 0
2022-01-26 07:05:34 GMT 47.410583 -0.009270 36,000 45 430 0
2022-01-26 07:05:31 GMT 47.405457 -0.017029 36,000 45 430 0
2022-01-26 07:05:28 GMT 47.402252 -0.021835 36,000 45 430 0
2022-01-26 07:05:26 GMT 47.398819 -0.027054 36,000 45 430 0
2022-01-26 07:05:23 GMT 47.394241 -0.033989 36,000 45 430 0
2022-01-26 07:05:18 GMT 47.387569 -0.044016 36,000 45 429 0
2022-01-26 07:05:15 GMT 47.384640 -0.048453 36,000 45 429 0
2022-01-26 07:05:12 GMT 47.380077 -0.055354 36,000 45 429 0
2022-01-26 07:05:09 GMT 47.373688 -0.064957 36,000 45 430 64
2022-01-26 07:05:05 GMT 47.369659 -0.071068 36,000 45 430 64
2022-01-26 07:05:02 GMT 47.366501 -0.075874 36,000 45 430 0
2022-01-26 07:04:58 GMT 47.360386 -0.085144 36,000 45 429 0
2022-01-26 07:04:55 GMT 47.356522 -0.090981 36,000 45 429 0
2022-01-26 07:04:52 GMT 47.352329 -0.097257 35,975 45 429 0
2022-01-26 07:04:50 GMT 47.348740 -0.102722 36,000 45 429 0
2022-01-26 07:04:46 GMT 47.343208 -0.111131 36,000 45 430 0
2022-01-26 07:04:43 GMT 47.339035 -0.117348 35,975 45 429 0
2022-01-26 07:04:40 GMT 47.334869 -0.123665 35,975 45 430 0
2022-01-26 07:04:35 GMT 47.327911 -0.134102 36,000 45 429 0
2022-01-26 07:04:32 GMT 47.323608 -0.140556 36,000 45 429 0
2022-01-26 07:04:28 GMT 47.317230 -0.150146 36,000 45 429 0
2022-01-26 07:04:25 GMT 47.314297 -0.154513 36,000 45 429 0
2022-01-26 07:04:22 GMT 47.306259 -0.166649 35,975 45 429 0
2022-01-26 07:04:20 GMT 47.306259 -0.166649 35,975 45 429 0
2022-01-26 07:04:14 GMT 47.298611 -0.178035 35,975 45 429 0
2022-01-26 07:04:12 GMT 47.295959 -0.182030 35,975 45 429 64
2022-01-26 07:04:09 GMT 47.292480 -0.187248 35,975 45 429 64
2022-01-26 07:04:06 GMT 47.287483 -0.194726 35,975 45 429 0
2022-01-26 07:04:04 GMT 47.284149 -0.199677 35,975 45 429 64
2022-01-26 07:04:01 GMT 47.281357 -0.203865 35,975 45 429 0
2022-01-26 07:03:57 GMT 47.275520 -0.212614 35,975 45 429 0
2022-01-26 07:03:55 GMT 47.267853 -0.224052 35,975 45 429 0
2022-01-26 07:03:52 GMT 47.267853 -0.224052 35,975 45 429 0
2022-01-26 07:03:49 GMT 47.264256 -0.229445 35,975 45 429 0
2022-01-26 07:03:45 GMT 47.259415 -0.236769 35,975 45 429 0
2022-01-26 07:03:42 GMT 47.253967 -0.244868 35,975 45 429 -64
2022-01-26 07:03:39 GMT 47.250523 -0.250080 35,975 45 429 -64
2022-01-26 07:03:35 GMT 47.245239 -0.257973 35,975 45 429 -64
2022-01-26 07:03:33 GMT 47.242310 -0.262367 36,000 45 429 0
2022-01-26 07:03:30 GMT 47.238419 -0.268179 35,975 45 429 0
2022-01-26 07:03:27 GMT 47.233856 -0.275081 35,975 45 429 0
2022-01-26 07:03:24 GMT 47.229668 -0.281278 36,000 45 429 0
2022-01-26 07:03:21 GMT 47.224964 -0.288321 36,000 45 429 0
2022-01-26 07:03:17 GMT 47.220078 -0.295645 36,000 45 429 0
2022-01-26 07:03:13 GMT 47.214909 -0.303321 35,975 45 429 0
2022-01-26 07:03:11 GMT 47.212143 -0.307411 36,000 45 429 0
2022-01-26 07:03:09 GMT 47.207832 -0.313885 36,000 45 429 0
2022-01-26 07:03:04 GMT 47.201454 -0.323392 36,000 45 429 0
2022-01-26 07:03:01 GMT 47.193375 -0.335426 36,000 45 429 0
2022-01-26 07:02:58 GMT 47.193375 -0.335426 36,000 45 429 0
2022-01-26 07:02:55 GMT 47.189213 -0.341703 36,000 45 429 0
2022-01-26 07:02:53 GMT 47.185722 -0.346844 36,000 45 429 0
2022-01-26 07:02:51 GMT 47.183765 -0.349731 36,000 45 429 0
2022-01-26 07:02:48 GMT 47.180145 -0.355133 36,000 45 429 0
2022-01-26 07:02:44 GMT 47.173599 -0.364883 36,000 45 429 0
2022-01-26 07:02:41 GMT 47.169147 -0.371493 36,000 45 429 0
2022-01-26 07:02:38 GMT 47.165703 -0.376704 36,000 45 429 0
2022-01-26 07:02:35 GMT 47.160816 -0.383958 36,000 45 429 0
2022-01-26 07:02:32 GMT 47.157509 -0.388958 36,000 45 429 0
2022-01-26 07:02:28 GMT 47.152061 -0.397057 36,000 45 429 0
2022-01-26 07:02:24 GMT 47.145687 -0.406565 36,000 45 429 0
2022-01-26 07:02:21 GMT 47.141098 -0.413429 36,000 45 429 0
2022-01-26 07:02:18 GMT 47.137619 -0.418579 36,000 45 429 0
2022-01-26 07:02:14 GMT 47.132046 -0.426847 36,000 45 429 0
2022-01-26 07:02:10 GMT 47.126175 -0.435608 36,000 45 429 0
2022-01-26 07:02:05 GMT 47.119057 -0.446144 36,000 45 429 0
2022-01-26 07:02:03 GMT 47.117149 -0.449031 36,000 45 429 0
2022-01-26 07:02:00 GMT 47.112541 -0.455933 36,000 45 429 0
2022-01-26 07:01:57 GMT 47.108490 -0.461919 36,000 45 429 0
2022-01-26 07:01:55 GMT 47.104614 -0.467743 36,000 45 429 0
2022-01-26 07:01:52 GMT 47.101822 -0.471863 36,000 45 429 0
2022-01-26 07:01:49 GMT 47.096649 -0.479485 36,000 45 429 0
2022-01-26 07:01:46 GMT 47.093037 -0.484877 36,000 45 429 0
2022-01-26 07:01:43 GMT 47.088985 -0.490864 36,025 45 429 0
2022-01-26 07:01:40 GMT 47.081726 -0.501663 36,000 45 429 0
2022-01-26 07:01:35 GMT 47.077652 -0.507637 36,025 45 429 0
2022-01-26 07:01:32 GMT 47.073624 -0.513611 36,025 45 429 0
2022-01-26 07:01:28 GMT 47.063988 -0.527907 36,000 45 430 0
2022-01-26 07:01:25 GMT 47.063988 -0.527907 36,000 45 430 0
2022-01-26 07:01:22 GMT 47.059658 -0.534316 36,025 45 430 0
2022-01-26 07:01:20 GMT 47.055328 -0.540725 36,025 45 429 0
2022-01-26 07:01:17 GMT 47.052383 -0.545059 36,000 45 430 0
2022-01-26 07:01:14 GMT 47.048161 -0.551218 36,000 45 430 0
2022-01-26 07:01:10 GMT 47.038662 -0.565303 36,000 45 430 0
2022-01-26 07:01:07 GMT 47.038662 -0.565303 36,000 45 430 0
2022-01-26 07:01:04 GMT 47.033775 -0.572486 36,000 45 430 0
2022-01-26 07:01:01 GMT 47.030701 -0.577064 36,000 45 430 0
2022-01-26 07:00:57 GMT 47.024368 -0.586327 36,000 45 430 0
2022-01-26 07:00:54 GMT 47.020180 -0.592557 36,000 45 430 0
2022-01-26 07:00:51 GMT 47.016129 -0.598549 36,000 45 430 0
2022-01-26 07:00:48 GMT 47.006168 -0.613192 36,000 45 430 0
2022-01-26 07:00:44 GMT 47.006168 -0.613192 36,000 45 430 0
2022-01-26 07:00:39 GMT 46.999187 -0.623545 36,000 45 430 0
2022-01-26 07:00:36 GMT 46.994019 -0.631221 36,000 45 430 0
2022-01-26 07:00:33 GMT 46.991364 -0.635147 36,000 45 430 0
2022-01-26 07:00:31 GMT 46.987175 -0.641292 36,000 45 430 0
2022-01-26 07:00:28 GMT 46.983639 -0.646433 36,000 45 429 0
2022-01-26 07:00:26 GMT 46.982243 -0.648545 36,000 45 429 0
2022-01-26 07:00:24 GMT 46.977913 -0.654884 36,000 45 429 0
2022-01-26 07:00:21 GMT 46.973419 -0.661514 36,000 45 429 0
2022-01-26 07:00:17 GMT 46.967972 -0.669548 36,000 45 429 0
2022-01-26 07:00:12 GMT 46.961105 -0.679603 36,000 45 429 0
2022-01-26 07:00:10 GMT 46.959274 -0.682320 36,000 45 429 0
2022-01-26 07:00:07 GMT 46.955795 -0.687469 36,000 45 429 0
2022-01-26 07:00:04 GMT 46.950214 -0.695730 36,000 45 429 0
2022-01-26 07:00:02 GMT 46.941555 -0.708407 36,000 45 429 0
2022-01-26 06:59:58 GMT 46.940159 -0.710520 36,000 45 428 0
2022-01-26 06:59:56 GMT 46.940159 -0.710520 36,000 45 428 0
2022-01-26 06:59:53 GMT 46.935268 -0.717703 36,000 45 428 0
2022-01-26 06:59:50 GMT 46.932476 -0.721788 36,000 45 428 0
2022-01-26 06:59:48 GMT 46.927734 -0.728737 36,000 45 428 0
2022-01-26 06:59:44 GMT 46.922001 -0.737140 36,000 45 428 0
2022-01-26 06:59:41 GMT 46.917953 -0.743127 36,000 45 429 0
2022-01-26 06:59:38 GMT 46.914043 -0.748831 36,000 45 429 0
2022-01-26 06:59:36 GMT 46.911530 -0.752563 36,000 45 429 0
2022-01-26 06:59:33 GMT 46.907318 -0.758675 36,000 45 429 0
2022-01-26 06:59:30 GMT 46.902542 -0.765663 36,000 45 429 0
2022-01-26 06:59:27 GMT 46.899052 -0.770733 36,000 45 429 0
2022-01-26 06:59:25 GMT 46.896423 -0.774673 36,000 45 428 0
2022-01-26 06:59:22 GMT 46.890953 -0.782635 36,000 45 427 0
2022-01-26 06:59:18 GMT 46.885391 -0.790810 36,000 45 427 0
2022-01-26 06:59:16 GMT 46.883270 -0.793903 36,000 45 427 0
2022-01-26 06:59:13 GMT 46.879074 -0.800011 36,000 45 427 0
2022-01-26 06:59:10 GMT 46.876011 -0.804467 36,000 45 428 0
2022-01-26 06:59:08 GMT 46.871704 -0.810791 36,000 45 428 0
2022-01-26 06:59:06 GMT 46.870422 -0.812645 36,000 45 428 0
2022-01-26 06:59:03 GMT 46.865524 -0.819821 36,000 45 429 0
2022-01-26 06:59:01 GMT 46.862183 -0.824711 36,000 45 429 64
2022-01-26 06:58:58 GMT 46.857559 -0.831477 36,000 45 429 0
2022-01-26 06:58:55 GMT 46.854630 -0.835765 36,000 45 429 0
2022-01-26 06:58:52 GMT 46.845383 -0.849297 36,000 45 431 0
2022-01-26 06:58:49 GMT 46.845383 -0.849297 36,000 45 431 0
2022-01-26 06:58:46 GMT 46.837646 -0.860618 36,000 45 432 0
2022-01-26 06:58:43 GMT 46.837646 -0.860618 36,000 45 433 -64
2022-01-26 06:58:39 GMT 46.830597 -0.870934 36,000 44 433 -64
2022-01-26 06:58:36 GMT 46.827576 -0.875289 36,000 44 434 -64
2022-01-26 06:58:33 GMT 46.823311 -0.881447 36,000 43 432 0
2022-01-26 06:58:31 GMT 46.820023 -0.886141 36,000 43 432 0
2022-01-26 06:58:27 GMT 46.814514 -0.893738 36,000 42 431 0
2022-01-26 06:58:25 GMT 46.811722 -0.897446 36,000 42 430 64
2022-01-26 06:58:22 GMT 46.805992 -0.905067 36,000 42 430 0
2022-01-26 06:58:16 GMT 46.798325 -0.915215 36,000 42 430 0
2022-01-26 06:58:13 GMT 46.793938 -0.921066 36,000 42 430 0
2022-01-26 06:58:11 GMT 46.789810 -0.926469 36,000 42 429 0
2022-01-26 06:58:07 GMT 46.783928 -0.934250 36,000 42 429 0
2022-01-26 06:58:03 GMT 46.779087 -0.940636 36,000 42 429 -64
2022-01-26 06:58:00 GMT 46.775253 -0.945695 36,000 42 429 -64
2022-01-26 06:57:56 GMT 46.768936 -0.954069 36,025 42 429 -64
2022-01-26 06:57:53 GMT 46.763958 -0.960686 36,025 42 429 0
2022-01-26 06:57:51 GMT 46.761581 -0.963776 36,025 42 429 0
2022-01-26 06:57:48 GMT 46.757172 -0.969610 36,025 42 429 0
2022-01-26 06:57:45 GMT 46.753510 -0.974434 36,025 42 429 0
2022-01-26 06:57:43 GMT 46.745106 -0.985474 36,025 42 429 0
2022-01-26 06:57:40 GMT 46.745106 -0.985474 36,025 42 429 0
2022-01-26 06:57:36 GMT 46.739380 -0.993027 36,025 42 429 0
2022-01-26 06:57:32 GMT 46.734100 -0.999957 36,025 42 429 0
2022-01-26 06:57:29 GMT 46.728928 -1.006723 36,025 42 429 0
2022-01-26 06:57:27 GMT 46.725861 -1.010809 36,025 42 429 0
2022-01-26 06:57:24 GMT 46.722153 -1.015617 36,025 42 429 0
2022-01-26 06:57:20 GMT 46.715836 -1.023939 36,025 42 429 0
2022-01-26 06:57:17 GMT 46.711899 -1.029164 36,025 42 429 0
2022-01-26 06:57:15 GMT 46.708923 -1.032983 36,025 42 429 0
2022-01-26 06:57:12 GMT 46.703064 -1.040754 36,025 42 429 0
2022-01-26 06:57:09 GMT 46.698669 -1.046515 36,025 42 429 0
2022-01-26 06:57:05 GMT 46.694412 -1.052142 36,025 42 429 0
2022-01-26 06:57:02 GMT 46.689560 -1.058506 36,025 42 429 0
2022-01-26 06:56:59 GMT 46.684818 -1.064644 36,025 42 428 0
2022-01-26 06:56:56 GMT 46.679699 -1.071442 36,025 42 428 0
2022-01-26 06:56:52 GMT 46.674393 -1.078377 36,025 42 428 0
2022-01-26 06:56:49 GMT 46.670013 -1.084145 36,000 42 428 64
2022-01-26 06:56:45 GMT 46.664246 -1.091666 36,000 42 428 64
2022-01-26 06:56:42 GMT 46.659866 -1.097466 36,000 42 428 64
2022-01-26 06:56:40 GMT 46.655724 -1.102821 36,000 42 428 64
2022-01-26 06:56:35 GMT 46.649857 -1.110580 36,000 42 428 64
2022-01-26 06:56:32 GMT 46.645294 -1.116554 36,000 42 428 64
2022-01-26 06:56:29 GMT 46.641449 -1.121543 36,000 42 428 64
2022-01-26 06:56:24 GMT 46.634403 -1.130768 36,000 42 428 0
2022-01-26 06:56:19 GMT 46.625881 -1.141960 36,000 42 428 0
2022-01-26 06:56:15 GMT 46.619877 -1.149857 36,000 42 428 64
2022-01-26 06:56:09 GMT 46.611637 -1.160568 36,000 42 428 0
2022-01-26 06:56:05 GMT 46.605026 -1.169220 35,975 41 427 0
2022-01-26 06:56:02 GMT 46.601486 -1.173862 35,975 41 427 0
2022-01-26 06:55:59 GMT 46.588688 -1.190506 35,975 41 427 0
2022-01-26 06:55:54 GMT 46.588688 -1.190506 35,975 41 427 0
2022-01-26 06:55:51 GMT 46.585896 -1.194145 37,725 41 427 0
2022-01-26 06:55:49 GMT 46.582077 -1.199118 35,975 41 427 0
2022-01-26 06:55:46 GMT 46.577377 -1.205269 35,975 41 427 0
2022-01-26 06:55:44 GMT 46.570908 -1.213654 35,975 41 427 0
2022-01-26 06:55:41 GMT 46.570908 -1.213654 35,975 41 427 0
2022-01-26 06:55:39 GMT 46.567509 -1.218109 35,975 41 427 0
2022-01-26 06:55:36 GMT 46.562527 -1.224564 35,975 41 427 0
2022-01-26 06:55:33 GMT 46.559593 -1.228409 35,975 42 426 64
2022-01-26 06:55:29 GMT 46.552139 -1.238173 35,975 42 426 64
2022-01-26 06:55:24 GMT 46.546417 -1.245675 35,975 42 426 64
2022-01-26 06:55:22 GMT 46.543346 -1.249695 35,975 42 426 64
2022-01-26 06:55:19 GMT 46.537766 -1.256930 35,975 42 426 0
2022-01-26 06:55:16 GMT 46.533188 -1.262892 35,975 42 426 0
2022-01-26 06:55:14 GMT 46.529526 -1.267648 35,975 41 427 0
2022-01-26 06:55:11 GMT 46.526596 -1.271534 35,975 41 427 0
2022-01-26 06:55:08 GMT 46.522659 -1.276692 35,975 41 427 0
2022-01-26 06:55:04 GMT 46.515739 -1.285675 35,975 41 427 0
2022-01-26 06:55:01 GMT 46.511505 -1.291168 35,975 41 427 0
2022-01-26 06:54:58 GMT 46.507095 -1.296923 35,950 41 427 0
2022-01-26 06:54:54 GMT 46.500656 -1.305313 35,975 41 427 0
2022-01-26 06:54:51 GMT 46.496841 -1.310254 35,975 41 427 0
2022-01-26 06:54:49 GMT 46.494186 -1.313737 35,975 41 427 0
2022-01-26 06:54:46 GMT 46.489487 -1.319801 35,975 41 427 0
2022-01-26 06:54:43 GMT 46.484924 -1.325706 35,950 41 427 0
2022-01-26 06:54:40 GMT 46.481140 -1.330685 35,950 41 427 0
2022-01-26 06:54:36 GMT 46.474548 -1.339260 35,975 41 426 0
2022-01-26 06:54:34 GMT 46.471756 -1.342878 35,975 41 426 0
2022-01-26 06:54:31 GMT 46.467327 -1.348572 35,975 41 426 0
2022-01-26 06:54:29 GMT 46.465164 -1.351452 35,975 41 426 0
2022-01-26 06:54:25 GMT 46.458115 -1.360563 35,975 41 426 0
2022-01-26 06:54:23 GMT 46.455780 -1.363644 35,975 41 427 0
2022-01-26 06:54:20 GMT 46.452118 -1.368401 35,975 41 426 0
2022-01-26 06:54:17 GMT 46.447403 -1.374458 35,975 41 426 0
2022-01-26 06:54:14 GMT 46.443008 -1.380191 35,975 41 426 0
2022-01-26 06:54:12 GMT 46.440186 -1.383797 35,975 41 426 0
2022-01-26 06:54:09 GMT 46.435776 -1.389503 35,975 41 426 0
2022-01-26 06:54:06 GMT 46.431389 -1.395195 35,975 41 426 0
2022-01-26 06:54:03 GMT 46.425797 -1.402365 35,975 41 426 0
2022-01-26 06:54:00 GMT 46.422264 -1.406937 35,975 41 426 0
2022-01-26 06:53:56 GMT 46.415653 -1.415520 35,975 41 427 0
2022-01-26 06:53:51 GMT 46.408020 -1.425407 35,975 41 427 0
2022-01-26 06:53:49 GMT 46.405197 -1.429027 35,975 41 427 0
2022-01-26 06:53:45 GMT 46.400524 -1.435089 35,975 41 427 -64
2022-01-26 06:53:41 GMT 46.393890 -1.443630 35,975 41 427 0
2022-01-26 06:53:38 GMT 46.388744 -1.450333 35,975 41 427 0
2022-01-26 06:53:34 GMT 46.384186 -1.456169 35,975 41 427 -64
2022-01-26 06:53:32 GMT 46.381805 -1.459239 35,975 41 427 -64
2022-01-26 06:53:30 GMT 46.378410 -1.463585 35,975 41 427 -64
2022-01-26 06:53:28 GMT 46.375061 -1.467979 36,000 41 427 -64
2022-01-26 06:53:25 GMT 46.370453 -1.473885 36,000 41 427 -64
2022-01-26 06:53:22 GMT 46.367523 -1.477661 36,000 41 427 -64
2022-01-26 06:53:20 GMT 46.363403 -1.483020 36,000 41 427 -64
2022-01-26 06:53:17 GMT 46.358997 -1.488716 36,000 41 428 -64
2022-01-26 06:53:12 GMT 46.349854 -1.500572 36,000 41 428 -64
2022-01-26 06:53:08 GMT 46.344818 -1.507003 36,000 41 429 -64
2022-01-26 06:53:05 GMT 46.341263 -1.511581 36,000 41 429 0
2022-01-26 06:53:03 GMT 46.338329 -1.515427 36,000 41 429 0
2022-01-26 06:53:00 GMT 46.332550 -1.522812 36,000 41 429 0
2022-01-26 06:52:57 GMT 46.329895 -1.526229 36,000 41 429 -64
2022-01-26 06:52:54 GMT 46.325157 -1.532387 36,000 41 429 0
2022-01-26 06:52:52 GMT 46.322800 -1.535406 36,000 41 429 0
2022-01-26 06:52:49 GMT 46.317352 -1.542440 36,000 41 429 0
2022-01-26 06:52:46 GMT 46.312912 -1.548180 36,000 41 429 0
2022-01-26 06:52:41 GMT 46.306412 -1.556575 36,000 41 432 0
2022-01-26 06:52:39 GMT 46.303276 -1.560608 36,000 41 430 0
2022-01-26 06:52:35 GMT 46.296936 -1.568834 36,000 41 430 0
2022-01-26 06:52:33 GMT 46.294106 -1.572418 36,000 41 430 0
2022-01-26 06:52:31 GMT 46.289776 -1.577980 36,000 41 430 0
2022-01-26 06:52:28 GMT 46.281769 -1.588280 36,000 41 431 0
2022-01-26 06:52:25 GMT 46.281769 -1.588280 36,025 41 431 -64
2022-01-26 06:52:20 GMT 46.273624 -1.598785 36,025 41 431 0
2022-01-26 06:52:17 GMT 46.270782 -1.602425 36,025 41 431 0
2022-01-26 06:52:14 GMT 46.266312 -1.608157 36,025 41 431 0
2022-01-26 06:52:12 GMT 46.262146 -1.613516 36,025 41 431 0
2022-01-26 06:52:10 GMT 46.257248 -1.619814 36,025 41 432 0
2022-01-26 06:52:05 GMT 46.252163 -1.626251 36,025 41 432 0
2022-01-26 06:52:03 GMT 46.249043 -1.630302 36,025 41 432 0
2022-01-26 06:52:00 GMT 46.245178 -1.635246 36,025 41 432 0
2022-01-26 06:51:57 GMT 46.240524 -1.641151 36,025 41 432 0
2022-01-26 06:51:54 GMT 46.235779 -1.647279 36,025 41 432 0
2022-01-26 06:51:52 GMT 46.232620 -1.651299 36,025 41 432 0
2022-01-26 06:51:49 GMT 46.227997 -1.657194 36,025 41 432 0
2022-01-26 06:51:46 GMT 46.223785 -1.662553 36,025 41 433 0
2022-01-26 06:51:39 GMT 46.213623 -1.675616 36,000 41 433 0
2022-01-26 06:51:36 GMT 46.208405 -1.682281 36,000 41 433 0
2022-01-26 06:51:31 GMT 46.202866 -1.689416 36,000 41 433 0
2022-01-26 06:51:29 GMT 46.198067 -1.695534 36,000 41 433 0
2022-01-26 06:51:26 GMT 46.193459 -1.701508 36,000 41 433 64
2022-01-26 06:51:21 GMT 46.186710 -1.710091 36,000 41 434 0
2022-01-26 06:51:18 GMT 46.182495 -1.715475 36,000 41 434 0
2022-01-26 06:51:16 GMT 46.177826 -1.721437 36,000 41 434 0
2022-01-26 06:51:12 GMT 46.173798 -1.726595 36,000 41 434 0
2022-01-26 06:51:09 GMT 46.163155 -1.740234 36,000 41 434 0
2022-01-26 06:51:05 GMT 46.163155 -1.740234 36,000 41 434 0
2022-01-26 06:51:00 GMT 46.155659 -1.749847 36,000 41 434 0
2022-01-26 06:50:57 GMT 46.151596 -1.755066 36,000 41 434 0
2022-01-26 06:50:54 GMT 46.146488 -1.761589 36,000 41 434 0
2022-01-26 06:50:50 GMT 46.138668 -1.771545 36,000 41 435 0
2022-01-26 06:50:47 GMT 46.130859 -1.781527 36,000 41 435 0
2022-01-26 06:50:44 GMT 46.130859 -1.781527 36,000 41 435 0
2022-01-26 06:50:37 GMT 46.120926 -1.794188 36,000 41 435 0
2022-01-26 06:50:33 GMT 46.115810 -1.800728 36,000 41 434 0
2022-01-26 06:50:30 GMT 46.108921 -1.809586 36,000 41 434 0
2022-01-26 06:50:26 GMT 46.104080 -1.815765 36,000 41 434 0
2022-01-26 06:50:23 GMT 46.100464 -1.820381 36,000 41 435 0
2022-01-26 06:50:17 GMT 46.091324 -1.832108 36,000 41 435 0
2022-01-26 06:50:14 GMT 46.085739 -1.839180 36,000 41 435 0
2022-01-26 06:50:09 GMT 46.078056 -1.848999 36,000 41 435 0
2022-01-26 06:50:06 GMT 46.073547 -1.854747 36,000 41 435 0
2022-01-26 06:50:03 GMT 46.069351 -1.860123 36,000 41 435 0
2022-01-26 06:50:01 GMT 46.065445 -1.865130 36,000 41 435 0
2022-01-26 06:49:57 GMT 46.060181 -1.871829 36,000 41 435 0
2022-01-26 06:49:54 GMT 46.055943 -1.877220 36,000 41 435 0
2022-01-26 06:49:51 GMT 46.051575 -1.882748 36,000 41 435 0
2022-01-26 06:49:48 GMT 46.046448 -1.889236 36,000 41 435 0
2022-01-26 06:49:45 GMT 46.041000 -1.896146 36,000 41 435 0
2022-01-26 06:49:42 GMT 46.036926 -1.901305 36,025 41 435 0
2022-01-26 06:49:37 GMT 46.029549 -1.910660 36,025 41 435 0
2022-01-26 06:49:34 GMT 46.025757 -1.915440 36,025 41 435 -64
2022-01-26 06:49:31 GMT 46.021683 -1.920598 36,025 41 435 0
2022-01-26 06:49:27 GMT 46.014908 -1.929239 36,025 41 436 0
2022-01-26 06:49:24 GMT 46.009460 -1.936139 36,025 41 435 0
2022-01-26 06:49:20 GMT 46.005524 -1.941097 36,025 41 435 -64
2022-01-26 06:49:17 GMT 46.000259 -1.947796 36,025 41 435 -64
2022-01-26 06:49:14 GMT 45.995007 -1.954536 36,025 41 435 -64
2022-01-26 06:49:11 GMT 45.991516 -1.958916 36,025 41 435 -64
2022-01-26 06:49:07 GMT 45.984558 -1.967759 36,025 41 436 0
2022-01-26 06:49:04 GMT 45.980347 -1.973118 36,025 41 436 0
2022-01-26 06:49:01 GMT 45.976109 -1.978432 36,025 41 436 0
2022-01-26 06:48:57 GMT 45.968891 -1.987633 36,025 41 436 0
2022-01-26 06:48:54 GMT 45.964516 -1.993195 36,025 41 436 0
2022-01-26 06:48:51 GMT 45.961029 -1.997569 36,025 41 435 0
2022-01-26 06:48:46 GMT 45.953156 -2.007550 36,025 41 436 0
2022-01-26 06:48:44 GMT 45.948780 -2.013039 36,025 41 436 0
2022-01-26 06:48:41 GMT 45.945740 -2.016862 36,025 41 436 0
2022-01-26 06:48:35 GMT 45.937141 -2.027733 36,025 41 437 0
2022-01-26 06:48:31 GMT 45.930302 -2.036385 36,025 41 437 0
2022-01-26 06:48:27 GMT 45.924107 -2.044212 36,025 41 436 0
2022-01-26 06:48:23 GMT 45.918045 -2.051831 36,025 41 436 0
2022-01-26 06:48:21 GMT 45.915031 -2.055679 36,025 41 437 0
2022-01-26 06:48:17 GMT 45.907627 -2.065018 36,025 41 437 0
2022-01-26 06:48:14 GMT 45.904312 -2.069248 36,025 41 437 0
2022-01-26 06:48:11 GMT 45.899918 -2.074808 36,025 41 437 0
2022-01-26 06:48:05 GMT 45.890808 -2.086264 36,025 41 437 0
2022-01-26 06:48:01 GMT 45.884773 -2.093857 36,025 41 437 0
2022-01-26 06:47:57 GMT 45.879139 -2.100929 36,025 41 437 0
2022-01-26 06:47:54 GMT 45.875198 -2.105892 36,025 41 436 0
2022-01-26 06:47:51 GMT 45.869614 -2.112992 36,025 41 436 0
2022-01-26 06:47:44 GMT 45.858994 -2.126323 36,025 41 436 0
2022-01-26 06:47:41 GMT 45.853863 -2.132790 36,025 41 436 0
2022-01-26 06:47:36 GMT 45.846554 -2.141922 36,025 41 436 0
2022-01-26 06:47:33 GMT 45.843704 -2.145549 36,025 41 436 0
2022-01-26 06:47:30 GMT 45.838825 -2.151672 36,025 41 436 0
2022-01-26 06:47:26 GMT 45.831425 -2.161011 36,025 41 436 0
2022-01-26 06:47:23 GMT 45.827606 -2.165749 36,025 41 436 0
2022-01-26 06:47:20 GMT 45.823837 -2.170470 36,025 41 436 0
2022-01-26 06:47:16 GMT 45.816387 -2.179825 36,025 41 436 0
2022-01-26 06:47:12 GMT 45.811523 -2.185877 36,025 41 436 0
2022-01-26 06:47:09 GMT 45.806854 -2.191772 36,025 41 435 0
2022-01-26 06:47:07 GMT 45.803211 -2.196373 36,025 41 435 0
2022-01-26 06:47:04 GMT 45.798977 -2.201660 36,025 41 435 64
2022-01-26 06:47:00 GMT 45.792664 -2.209659 36,025 41 435 64
2022-01-26 06:46:55 GMT 45.785522 -2.218620 36,025 41 435 64
2022-01-26 06:46:52 GMT 45.780991 -2.224263 36,025 41 435 64
2022-01-26 06:46:49 GMT 45.777050 -2.229195 36,025 41 435 64
2022-01-26 06:46:46 GMT 45.770393 -2.237572 36,000 41 435 64
2022-01-26 06:46:43 GMT 45.762405 -2.247575 36,000 41 435 64
2022-01-26 06:46:40 GMT 45.762405 -2.247575 36,000 41 435 0
2022-01-26 06:46:35 GMT 45.754669 -2.257288 36,000 41 435 0
2022-01-26 06:46:30 GMT 45.746651 -2.267303 36,000 41 435 0
2022-01-26 06:46:25 GMT 45.739857 -2.275818 36,000 41 435 0
2022-01-26 06:46:22 GMT 45.734875 -2.282066 36,000 41 435 0
2022-01-26 06:46:19 GMT 45.730362 -2.287702 36,000 41 435 0
2022-01-26 06:46:15 GMT 45.724457 -2.295071 36,000 41 434 0
2022-01-26 06:46:11 GMT 45.719326 -2.301498 36,000 41 434 0
2022-01-26 06:46:07 GMT 45.712234 -2.310411 36,000 41 434 0
2022-01-26 06:46:02 GMT 45.705460 -2.318852 36,000 41 434 64
2022-01-26 06:45:59 GMT 45.700195 -2.325484 36,000 41 434 64
2022-01-26 06:45:55 GMT 45.694141 -2.333015 36,000 41 433 64
2022-01-26 06:45:53 GMT 45.690216 -2.337877 35,975 41 433 0
2022-01-26 06:45:49 GMT 45.683716 -2.345983 35,975 41 433 0
2022-01-26 06:45:43 GMT 45.674870 -2.357117 35,975 41 433 0
2022-01-26 06:45:39 GMT 45.671219 -2.361592 35,975 41 433 0
2022-01-26 06:45:35 GMT 45.664581 -2.369888 35,975 41 432 0
2022-01-26 06:45:32 GMT 45.660206 -2.375313 35,975 41 432 0
2022-01-26 06:45:28 GMT 45.654942 -2.381836 35,975 41 432 0
2022-01-26 06:45:25 GMT 45.648472 -2.389938 35,975 41 431 0
2022-01-26 06:45:22 GMT 45.644375 -2.394951 35,975 41 432 0
2022-01-26 06:45:17 GMT 45.637627 -2.403397 35,975 41 432 0
2022-01-26 06:45:14 GMT 45.632645 -2.409576 35,975 41 432 0
2022-01-26 06:45:11 GMT 45.628143 -2.415183 35,975 41 432 0
2022-01-26 06:45:07 GMT 45.622742 -2.421882 35,975 41 431 0
2022-01-26 06:45:02 GMT 45.614136 -2.432534 35,975 41 431 0
2022-01-26 06:44:59 GMT 45.610535 -2.437042 35,975 41 432 0
2022-01-26 06:44:55 GMT 45.604061 -2.445076 35,975 41 431 0
2022-01-26 06:44:52 GMT 45.599258 -2.451023 35,975 41 431 0
2022-01-26 06:44:48 GMT 45.591770 -2.460388 35,975 41 431 0
2022-01-26 06:44:44 GMT 45.587395 -2.465813 35,975 41 431 0
2022-01-26 06:44:41 GMT 45.583786 -2.470249 35,975 41 431 0
2022-01-26 06:44:38 GMT 45.578972 -2.476250 35,975 41 431 0
2022-01-26 06:44:31 GMT 45.567890 -2.490051 35,975 41 431 0
2022-01-26 06:44:28 GMT 45.563690 -2.495303 35,975 41 431 0
2022-01-26 06:44:24 GMT 45.557556 -2.502940 35,975 40 430 0
2022-01-26 06:44:19 GMT 45.549736 -2.512642 35,975 41 430 0
2022-01-26 06:44:14 GMT 45.541763 -2.522474 35,975 41 430 0
2022-01-26 06:44:09 GMT 45.534439 -2.531629 36,000 41 430 0
2022-01-26 06:44:01 GMT 45.523315 -2.545362 35,975 40 430 0
2022-01-26 06:43:57 GMT 45.517456 -2.552621 35,975 40 430 0
2022-01-26 06:43:53 GMT 45.512028 -2.559279 35,975 40 430 0
2022-01-26 06:43:50 GMT 45.506332 -2.566289 36,000 40 430 0
2022-01-26 06:43:46 GMT 45.501507 -2.572275 36,000 40 430 0
2022-01-26 06:43:41 GMT 45.492523 -2.583395 36,000 40 431 0
2022-01-26 06:43:36 GMT 45.486191 -2.591139 36,000 40 431 0
2022-01-26 06:43:31 GMT 45.477448 -2.601929 36,000 40 431 0
2022-01-26 06:43:26 GMT 45.470829 -2.610057 36,000 40 431 0
2022-01-26 06:43:18 GMT 45.458820 -2.624929 36,000 41 430 0
2022-01-26 06:43:16 GMT 45.455200 -2.629329 36,000 40 431 0
2022-01-26 06:43:10 GMT 45.446949 -2.639532 36,000 40 431 -64
2022-01-26 06:43:05 GMT 45.438812 -2.649536 36,000 40 431 -64
2022-01-26 06:42:59 GMT 45.429352 -2.661237 36,000 40 431 0
2022-01-26 06:42:56 GMT 45.424976 -2.666596 36,000 40 431 0
2022-01-26 06:42:53 GMT 45.420040 -2.672692 36,000 40 431 0
2022-01-26 06:42:48 GMT 45.412491 -2.681972 36,000 41 430 0
2022-01-26 06:42:44 GMT 45.407986 -2.687564 36,025 40 431 0
2022-01-26 06:42:41 GMT 45.402878 -2.693874 36,000 41 430 0
2022-01-26 06:42:37 GMT 45.397018 -2.701067 36,000 41 430 0
2022-01-26 06:42:34 GMT 45.393135 -2.705919 36,000 41 430 0
2022-01-26 06:42:30 GMT 45.386215 -2.714473 36,000 40 431 0
2022-01-26 06:42:26 GMT 45.380035 -2.722059 36,000 40 431 0
2022-01-26 06:42:24 GMT 45.377609 -2.725002 36,025 40 431 0
2022-01-26 06:42:20 GMT 45.371017 -2.733176 36,000 40 431 0
2022-01-26 06:42:14 GMT 45.362408 -2.743768 36,000 40 431 0
2022-01-26 06:42:11 GMT 45.355053 -2.752812 36,000 40 431 0
2022-01-26 06:42:09 GMT 45.355053 -2.752812 36,000 40 431 0
2022-01-26 06:42:06 GMT 45.351105 -2.757634 36,000 40 431 0
2022-01-26 06:42:04 GMT 45.346756 -2.762996 36,025 40 431 0
2022-01-26 06:42:00 GMT 45.340111 -2.771167 36,000 40 432 0
2022-01-26 06:41:56 GMT 45.335724 -2.776533 36,000 40 431 0
2022-01-26 06:41:53 GMT 45.330734 -2.782615 36,000 40 431 0
2022-01-26 06:41:50 GMT 45.324554 -2.790200 36,025 40 431 0
2022-01-26 06:41:47 GMT 45.321537 -2.793944 36,025 40 432 0
2022-01-26 06:41:41 GMT 45.311852 -2.805734 36,025 40 432 0
2022-01-26 06:41:38 GMT 45.307152 -2.811495 36,025 40 432 0
2022-01-26 06:41:32 GMT 45.298691 -2.821851 36,000 40 432 0
2022-01-26 06:41:29 GMT 45.294491 -2.827037 36,025 40 433 0
2022-01-26 06:41:21 GMT 45.282715 -2.841535 36,025 40 433 0
2022-01-26 06:41:19 GMT 45.278778 -2.846309 36,025 40 433 0
2022-01-26 06:41:12 GMT 45.268654 -2.858790 36,025 40 432 0
2022-01-26 06:41:08 GMT 45.263393 -2.865288 36,025 40 433 0
2022-01-26 06:41:01 GMT 45.252914 -2.878026 36,025 40 432 0
2022-01-26 06:40:58 GMT 45.248199 -2.883715 36,025 40 432 0
2022-01-26 06:40:51 GMT 45.236206 -2.898247 36,025 40 432 0
2022-01-26 06:40:48 GMT 45.232716 -2.902534 36,025 40 432 64
2022-01-26 06:40:39 GMT 45.217255 -2.921382 36,025 40 432 0
2022-01-26 06:40:31 GMT 45.206459 -2.934488 36,000 40 432 0
2022-01-26 06:40:27 GMT 45.200546 -2.941655 36,000 40 432 0
2022-01-26 06:40:21 GMT 45.190678 -2.953648 36,000 40 433 0
2022-01-26 06:40:18 GMT 45.186905 -2.958265 36,000 40 433 0
2022-01-26 06:40:08 GMT 45.170986 -2.977697 36,000 40 433 64
2022-01-26 06:40:00 GMT 45.159302 -2.991943 36,000 40 433 0
2022-01-26 06:39:57 GMT 45.154926 -2.997258 36,000 40 433 0
2022-01-26 06:39:48 GMT 45.140682 -3.014675 36,000 40 433 0
2022-01-26 06:39:38 GMT 45.124741 -3.034058 36,000 40 433 0
2022-01-26 06:39:33 GMT 45.117916 -3.042342 36,000 40 433 0
2022-01-26 06:39:29 GMT 45.112286 -3.049108 36,000 40 433 0
2022-01-26 06:39:26 GMT 45.108627 -3.053545 36,000 40 433 0
2022-01-26 06:39:20 GMT 45.098007 -3.066428 36,000 40 433 0
2022-01-26 06:39:17 GMT 45.093758 -3.071550 36,000 40 433 0
2022-01-26 06:39:10 GMT 45.082817 -3.084747 36,000 40 433 0
2022-01-26 06:39:07 GMT 45.078415 -3.090101 36,000 40 433 0
2022-01-26 06:38:56 GMT 45.063080 -3.108673 36,000 40 433 0
2022-01-26 06:38:47 GMT 45.048508 -3.126280 36,025 40 433 -64
2022-01-26 06:38:44 GMT 45.044540 -3.131038 36,025 40 433 0
2022-01-26 06:38:40 GMT 45.036636 -3.140616 36,025 40 432 0
2022-01-26 06:38:36 GMT 45.031654 -3.146645 36,025 40 432 0
2022-01-26 06:38:29 GMT 45.021469 -3.158962 36,025 40 432 0
2022-01-26 06:38:25 GMT 45.016159 -3.165370 36,025 40 432 0
2022-01-26 06:38:19 GMT 45.005859 -3.177861 36,025 40 431 0
2022-01-26 06:38:14 GMT 44.999176 -3.185904 36,025 40 432 0
2022-01-26 06:38:06 GMT 44.986862 -3.200749 36,000 40 431 64
2022-01-26 06:37:58 GMT 44.974594 -3.215594 36,000 40 431 0
2022-01-26 06:37:55 GMT 44.969879 -3.221283 36,000 40 431 64
2022-01-26 06:37:49 GMT 44.960617 -3.232459 36,000 40 431 64
2022-01-26 06:37:45 GMT 44.955311 -3.238823 36,000 40 431 64
2022-01-26 06:37:35 GMT 44.923874 -3.276607 35,975 40 432 0
2022-01-26 06:37:25 GMT 44.918442 -3.283170 35,975 40 432 0
2022-01-26 06:37:18 GMT 44.914017 -3.288463 35,975 40 431 0
2022-01-26 06:37:14 GMT 44.908264 -3.295375 35,975 40 431 0
2022-01-26 06:37:04 GMT 44.891907 -3.315125 35,975 40 431 0
2022-01-26 06:36:59 GMT 44.884830 -3.323766 35,975 40 431 0
2022-01-26 06:36:54 GMT 44.877090 -3.333043 35,975 40 431 0
2022-01-26 06:36:43 GMT 44.860764 -3.352773 36,000 40 431 0
2022-01-26 06:36:36 GMT 44.850430 -3.365099 35,975 40 431 0
2022-01-26 06:36:33 GMT 44.845276 -3.371233 35,975 40 431 -64
2022-01-26 06:36:28 GMT 44.837677 -3.380258 35,975 40 430 0
2022-01-26 06:36:23 GMT 44.830086 -3.389349 35,975 40 430 0
2022-01-26 06:36:16 GMT 44.819469 -3.402010 35,975 40 430 0
2022-01-26 06:36:11 GMT 44.812534 -3.410317 36,000 40 430 0
2022-01-26 06:36:07 GMT 44.804619 -3.419763 36,000 40 430 0
2022-01-26 06:36:02 GMT 44.798264 -3.427407 36,000 40 430 0
2022-01-26 06:35:50 GMT 44.778900 -3.450557 36,000 40 430 0
2022-01-26 06:35:45 GMT 44.772823 -3.457813 36,000 40 430 0
2022-01-26 06:35:41 GMT 44.765991 -3.465925 36,000 40 430 0
2022-01-26 06:35:31 GMT 44.751755 -3.482928 36,000 40 430 -64
2022-01-26 06:35:27 GMT 44.744614 -3.491442 36,000 40 430 -64
2022-01-26 06:35:22 GMT 44.736282 -3.501369 36,000 40 430 0
2022-01-26 06:35:19 GMT 44.733124 -3.505162 36,000 40 430 0
2022-01-26 06:35:11 GMT 44.720993 -3.519614 36,000 40 430 0
2022-01-26 06:35:04 GMT 44.710537 -3.532104 36,000 40 430 0
2022-01-26 06:35:01 GMT 44.705509 -3.538067 36,000 40 431 0
2022-01-26 06:34:58 GMT 44.700943 -3.543483 36,000 40 431 0
2022-01-26 06:34:55 GMT 44.697006 -3.548192 36,000 40 431 0
2022-01-26 06:34:48 GMT 44.686386 -3.560813 36,000 40 431 0
2022-01-26 06:34:40 GMT 44.673752 -3.575788 36,000 40 430 64
2022-01-26 06:34:36 GMT 44.668129 -3.582481 36,000 40 430 64
2022-01-26 06:34:29 GMT 44.657516 -3.595075 36,000 40 431 0
2022-01-26 06:34:19 GMT 44.642624 -3.612802 36,000 40 431 0
2022-01-26 06:34:10 GMT 44.628002 -3.630111 36,000 40 431 0
2022-01-26 06:33:58 GMT 44.610947 -3.650338 36,000 40 432 -64
2022-01-26 06:33:48 GMT 44.595741 -3.668362 36,000 40 432 -64
2022-01-26 06:33:38 GMT 44.579132 -3.688006 36,000 40 432 0
2022-01-26 06:33:27 GMT 44.563110 -3.706970 36,000 40 432 0
2022-01-26 06:33:17 GMT 44.548164 -3.724633 36,000 40 432 0
2022-01-26 06:33:07 GMT 44.532475 -3.743189 36,000 40 432 0
2022-01-26 06:32:56 GMT 44.515858 -3.762884 36,000 40 432 0
2022-01-26 06:32:46 GMT 44.499985 -3.781586 36,000 40 432 0
2022-01-26 06:32:36 GMT 44.485600 -3.798523 36,000 40 432 0
2022-01-26 06:32:25 GMT 44.468655 -3.818486 36,025 40 432 -64
2022-01-26 06:32:15 GMT 44.452591 -3.837377 36,025 40 432 0
2022-01-26 06:32:03 GMT 44.435413 -3.857407 36,025 39 432 0
2022-01-26 06:31:52 GMT 44.418274 -3.877389 36,025 39 432 0
2022-01-26 06:31:47 GMT 44.408752 -3.888506 36,025 40 432 0
2022-01-26 06:31:42 GMT 44.403248 -3.894921 36,025 40 432 0
2022-01-26 06:31:35 GMT 44.392540 -3.907515 36,025 40 432 0
2022-01-26 06:31:32 GMT 44.387791 -3.913076 36,025 40 432 0
2022-01-26 06:31:26 GMT 44.377899 -3.924735 36,025 40 432 0
2022-01-26 06:31:22 GMT 44.372223 -3.931405 36,025 40 431 0
2022-01-26 06:31:15 GMT 44.361397 -3.944092 36,025 39 431 0
2022-01-26 06:31:12 GMT 44.356647 -3.949652 36,025 39 431 0
2022-01-26 06:31:05 GMT 44.344620 -3.963449 36,025 38 431 64
2022-01-26 06:31:01 GMT 44.339283 -3.969280 36,000 36 431 64
2022-01-26 06:30:54 GMT 44.328873 -3.979994 36,000 35 431 128
2022-01-26 06:30:51 GMT 44.323517 -3.985291 36,000 33 431 64
2022-01-26 06:30:43 GMT 44.310196 -3.997585 35,975 32 431 64
2022-01-26 06:30:40 GMT 44.305984 -4.001247 35,975 31 432 64
2022-01-26 06:30:30 GMT 44.288727 -4.015235 35,975 27 431 0
2022-01-26 06:30:20 GMT 44.271011 -4.027993 35,975 26 431 64
2022-01-26 06:30:06 GMT 44.245342 -4.045782 35,975 26 431 0
2022-01-26 06:29:57 GMT 44.229080 -4.056963 35,975 26 430 0
2022-01-26 06:29:50 GMT 44.216434 -4.065745 35,975 26 430 0
2022-01-26 06:29:47 GMT 44.211311 -4.069296 35,975 26 429 -64
2022-01-26 06:29:40 GMT 44.199020 -4.077803 36,000 26 429 -64
2022-01-26 06:29:37 GMT 44.193329 -4.081676 36,000 26 429 -64
2022-01-26 06:29:27 GMT 44.175186 -4.094238 36,000 26 429 -64
2022-01-26 06:29:18 GMT 44.160244 -4.104571 36,000 26 429 -64
2022-01-26 06:29:08 GMT 44.142151 -4.117063 36,025 26 429 -64
2022-01-26 06:29:01 GMT 44.127193 -4.127328 36,025 26 429 -64
2022-01-26 06:28:57 GMT 44.122559 -4.130540 36,025 26 429 0
2022-01-26 06:28:51 GMT 44.110992 -4.138445 36,025 26 429 0
2022-01-26 06:28:47 GMT 44.105499 -4.142238 36,025 26 429 0
2022-01-26 06:28:33 GMT 44.079712 -4.159986 36,025 26 429 0
2022-01-26 06:28:27 GMT 44.069237 -4.167219 36,025 26 429 0
2022-01-26 06:28:18 GMT 44.053757 -4.177871 36,025 26 429 0
2022-01-26 06:28:16 GMT 44.049496 -4.180821 36,025 26 429 0
2022-01-26 06:28:09 GMT 44.037720 -4.188865 36,025 26 429 0
2022-01-26 06:28:06 GMT 44.032379 -4.192562 36,025 26 429 0
2022-01-26 06:28:00 GMT 44.020493 -4.200766 36,025 26 429 0
2022-01-26 06:27:56 GMT 44.013885 -4.205344 36,025 26 429 0
2022-01-26 06:27:51 GMT 44.004852 -4.211557 36,025 26 429 0
2022-01-26 06:27:46 GMT 43.995941 -4.217664 36,025 26 429 0
2022-01-26 06:27:42 GMT 43.986511 -4.224112 36,025 26 429 0
2022-01-26 06:27:38 GMT 43.981342 -4.227709 36,025 26 429 0
2022-01-26 06:27:35 GMT 43.977081 -4.230631 36,025 26 429 0
2022-01-26 06:27:29 GMT 43.965145 -4.238761 36,025 26 429 0
2022-01-26 06:27:25 GMT 43.958771 -4.243214 36,025 26 428 0
2022-01-26 06:27:19 GMT 43.948105 -4.250495 36,025 26 428 0
2022-01-26 06:27:15 GMT 43.940285 -4.255894 36,025 26 429 0
2022-01-26 06:27:10 GMT 43.930893 -4.262312 36,025 26 429 0
2022-01-26 06:27:01 GMT 43.914867 -4.273224 36,000 26 428 0
2022-01-26 06:26:54 GMT 43.903694 -4.280875 36,000 26 428 0
2022-01-26 06:26:50 GMT 43.897316 -4.285257 36,000 26 428 0
2022-01-26 06:26:48 GMT 43.892521 -4.288526 36,025 26 428 0
2022-01-26 06:26:44 GMT 43.885391 -4.293419 36,000 26 428 0
2022-01-26 06:26:40 GMT 43.879211 -4.297634 36,000 26 428 0
2022-01-26 06:26:34 GMT 43.867493 -4.305683 36,025 26 427 0
2022-01-26 06:26:30 GMT 43.861099 -4.310041 36,000 26 427 0
2022-01-26 06:26:26 GMT 43.853466 -4.315207 36,000 26 427 0
2022-01-26 06:26:20 GMT 43.842850 -4.322466 36,000 26 427 0
2022-01-26 06:26:17 GMT 43.836090 -4.327016 36,000 26 427 0
2022-01-26 06:26:13 GMT 43.830963 -4.330530 36,000 26 427 0
2022-01-26 06:26:10 GMT 43.824928 -4.334630 36,000 26 427 0
2022-01-26 06:26:07 GMT 43.820847 -4.337428 36,000 26 427 0
2022-01-26 06:26:00 GMT 43.807426 -4.346597 36,000 26 427 0
2022-01-26 06:25:56 GMT 43.801373 -4.350651 36,000 26 426 0
2022-01-26 06:25:50 GMT 43.789536 -4.358762 36,000 26 427 0
2022-01-26 06:25:44 GMT 43.779648 -4.365532 36,000 26 425 0
2022-01-26 06:25:40 GMT 43.772049 -4.370706 36,000 26 425 0
2022-01-26 06:25:34 GMT 43.762711 -4.377030 36,000 26 425 0
2022-01-26 06:25:30 GMT 43.753510 -4.383289 36,000 26 425 0
2022-01-26 06:25:26 GMT 43.748585 -4.386684 36,000 26 424 0
2022-01-26 06:25:19 GMT 43.735703 -4.395425 36,000 26 424 0
2022-01-26 06:25:16 GMT 43.730621 -4.398939 36,000 26 424 0
2022-01-26 06:25:10 GMT 43.719486 -4.406499 35,975 26 424 0
2022-01-26 06:25:07 GMT 43.713715 -4.410422 36,000 26 424 0
2022-01-26 06:24:59 GMT 43.700638 -4.419250 35,975 26 424 0
2022-01-26 06:24:57 GMT 43.681824 -4.432025 36,000 26 423 0
2022-01-26 06:24:48 GMT 43.681824 -4.432025 35,975 26 424 0
2022-01-26 06:24:46 GMT 43.677612 -4.434836 35,975 26 424 0
2022-01-26 06:24:39 GMT 43.665440 -4.443054 35,975 26 423 0
2022-01-26 06:24:37 GMT 43.659992 -4.446782 35,975 26 423 0
2022-01-26 06:24:29 GMT 43.647518 -4.455218 35,975 26 423 0
2022-01-26 06:24:24 GMT 43.638748 -4.461152 35,975 26 423 0
2022-01-26 06:24:19 GMT 43.629959 -4.467092 35,975 26 423 0
2022-01-26 06:24:15 GMT 43.623825 -4.471244 35,975 26 423 0
2022-01-26 06:24:06 GMT 43.605423 -4.483699 35,975 26 423 0
2022-01-26 06:23:58 GMT 43.592960 -4.492166 35,975 26 423 0
2022-01-26 06:23:54 GMT 43.586815 -4.496286 35,975 26 423 0
2022-01-26 06:23:48 GMT 43.575760 -4.503692 35,975 26 422 0
2022-01-26 06:23:44 GMT 43.569077 -4.508253 35,975 26 422 0
2022-01-26 06:23:39 GMT 43.556992 -4.516403 35,975 26 422 0
2022-01-26 06:23:34 GMT 43.551064 -4.520416 35,975 26 422 0
2022-01-26 06:23:28 GMT 43.540009 -4.527836 35,975 26 422 0
2022-01-26 06:23:25 GMT 43.534241 -4.531796 35,975 26 422 0
2022-01-26 06:23:19 GMT 43.523758 -4.538886 35,975 26 422 0
2022-01-26 06:23:13 GMT 43.514984 -4.544809 35,975 26 422 -64
2022-01-26 06:23:08 GMT 43.505161 -4.551413 35,975 26 422 0
2022-01-26 06:23:04 GMT 43.497803 -4.556388 35,975 26 422 0
2022-01-26 06:22:59 GMT 43.486774 -4.563838 35,975 26 424 0
2022-01-26 06:22:54 GMT 43.480301 -4.568154 35,975 26 422 0
2022-01-26 06:22:48 GMT 43.469604 -4.575422 35,975 26 422 0
2022-01-26 06:22:44 GMT 43.462280 -4.580341 35,975 26 422 0
2022-01-26 06:22:38 GMT 43.451580 -4.587511 35,975 26 423 0
2022-01-26 06:22:33 GMT 43.444363 -4.592351 35,975 26 423 0
2022-01-26 06:22:27 GMT 43.433304 -4.599758 35,975 26 423 0
2022-01-26 06:22:22 GMT 43.425751 -4.604868 35,975 26 423 0
2022-01-26 06:22:17 GMT 43.415405 -4.611767 35,975 26 423 -64
2022-01-26 06:22:13 GMT 43.408379 -4.616481 35,975 26 423 -64
2022-01-26 06:22:08 GMT 43.399567 -4.622370 35,975 26 423 -64
2022-01-26 06:22:03 GMT 43.390224 -4.628579 36,000 26 423 0
2022-01-26 06:21:57 GMT 43.380386 -4.635208 36,000 26 423 -64
2022-01-26 06:21:51 GMT 43.371048 -4.641468 36,000 26 423 -64
2022-01-26 06:21:46 GMT 43.361893 -4.647600 36,000 26 424 0
2022-01-26 06:21:42 GMT 43.353821 -4.653037 36,000 26 424 0
2022-01-26 06:21:37 GMT 43.343250 -4.660165 36,000 26 424 0
2022-01-26 06:21:31 GMT 43.336037 -4.665004 36,000 26 424 0
2022-01-26 06:21:26 GMT 43.325638 -4.672000 36,000 26 425 0
2022-01-26 06:21:22 GMT 43.317883 -4.677233 36,000 26 425 0
2022-01-26 06:21:16 GMT 43.307640 -4.684099 35,975 26 425 64
2022-01-26 06:21:11 GMT 43.299679 -4.689396 35,975 26 426 0
2022-01-26 06:21:06 GMT 43.289436 -4.696263 35,975 26 426 0
2022-01-26 06:21:01 GMT 43.282177 -4.701102 36,000 26 426 0
2022-01-26 06:20:56 GMT 43.273144 -4.707184 35,975 26 426 64
2022-01-26 06:20:54 GMT 43.269608 -4.709494 36,000 26 426 0
2022-01-26 06:20:51 GMT 43.263927 -4.713331 35,975 25 427 -64
2022-01-26 06:20:47 GMT 43.257202 -4.717798 36,000 25 427 -64
2022-01-26 06:20:44 GMT 43.251022 -4.721949 36,000 26 426 -64
2022-01-26 06:20:39 GMT 43.242142 -4.727826 36,000 26 426 -64
2022-01-26 06:20:36 GMT 43.238232 -4.730464 36,000 25 427 -64
2022-01-26 06:20:34 GMT 43.234177 -4.733191 36,000 25 427 -64
2022-01-26 06:20:31 GMT 43.229897 -4.736023 36,000 25 427 -64
2022-01-26 06:20:27 GMT 43.221039 -4.741942 36,000 25 427 -64
2022-01-26 06:20:25 GMT 43.218384 -4.743730 36,000 25 427 0
2022-01-26 06:20:22 GMT 43.211277 -4.748448 36,000 25 427 0
2022-01-26 06:20:17 GMT 43.203461 -4.753631 36,000 25 427 0
2022-01-26 06:20:14 GMT 43.198105 -4.757211 36,000 25 428 0
2022-01-26 06:20:09 GMT 43.189224 -4.763084 36,000 25 428 0
2022-01-26 06:20:06 GMT 43.184975 -4.765908 36,000 26 428 0
2022-01-26 06:20:04 GMT 43.179436 -4.769636 36,000 26 428 0
2022-01-26 06:19:57 GMT 43.167519 -4.777549 36,000 26 428 64
2022-01-26 06:19:53 GMT 43.160954 -4.781930 36,000 26 428 64
2022-01-26 06:19:49 GMT 43.153831 -4.786704 36,000 25 429 64
2022-01-26 06:19:44 GMT 43.145451 -4.792262 36,000 25 429 0
2022-01-26 06:19:41 GMT 43.139214 -4.796448 36,000 25 429 0
2022-01-26 06:19:36 GMT 43.131859 -4.801287 36,000 25 429 0
2022-01-26 06:19:33 GMT 43.125248 -4.805668 36,000 25 430 0
2022-01-26 06:19:29 GMT 43.117752 -4.810638 36,000 25 430 0
2022-01-26 06:19:26 GMT 43.113647 -4.813417 36,000 25 430 0
2022-01-26 06:19:23 GMT 43.107185 -4.817636 36,000 25 430 -64
2022-01-26 06:19:19 GMT 43.101471 -4.821465 36,000 25 430 0
2022-01-26 06:19:16 GMT 43.095566 -4.825361 36,000 25 430 0
2022-01-26 06:19:13 GMT 43.088425 -4.830126 36,000 25 430 0
2022-01-26 06:19:09 GMT 43.081070 -4.834965 36,000 25 430 -64
2022-01-26 06:19:05 GMT 43.075699 -4.838519 36,000 25 430 0
2022-01-26 06:19:03 GMT 43.072128 -4.840883 36,000 25 431 -64
2022-01-26 06:19:00 GMT 43.066910 -4.844332 36,000 25 431 -64
2022-01-26 06:18:56 GMT 43.059036 -4.849570 36,000 25 431 -64
2022-01-26 06:18:53 GMT 43.053864 -4.853019 36,025 25 431 -64
2022-01-26 06:18:49 GMT 43.047592 -4.857171 36,025 25 431 -64
2022-01-26 06:18:46 GMT 43.041500 -4.861254 36,025 25 431 -64
2022-01-26 06:18:42 GMT 43.033588 -4.866420 36,025 25 431 -64
2022-01-26 06:18:39 GMT 43.029099 -4.869434 36,025 25 431 -64
2022-01-26 06:18:35 GMT 43.021389 -4.874529 36,025 25 432 0
2022-01-26 06:18:32 GMT 43.015274 -4.878505 36,025 25 432 -64
2022-01-26 06:18:28 GMT 43.007751 -4.883488 36,025 25 432 -64
2022-01-26 06:18:25 GMT 43.004120 -4.885842 36,025 25 432 -64
2022-01-26 06:18:23 GMT 42.999649 -4.888851 36,025 25 432 -64
2022-01-26 06:18:19 GMT 42.994064 -4.892513 36,025 25 432 0
2022-01-26 06:18:16 GMT 42.986526 -4.897539 36,050 25 432 -64
2022-01-26 06:18:11 GMT 42.977875 -4.903224 36,050 25 432 0
2022-01-26 06:18:07 GMT 42.971066 -4.907750 36,050 25 432 0
2022-01-26 06:18:03 GMT 42.963684 -4.912613 36,025 25 433 0
2022-01-26 06:17:59 GMT 42.956635 -4.917276 36,050 25 433 0
2022-01-26 06:17:54 GMT 42.949795 -4.921810 36,050 25 433 0
2022-01-26 06:17:50 GMT 42.941528 -4.927304 36,050 25 433 0
2022-01-26 06:17:46 GMT 42.931412 -4.933947 36,050 25 433 -64
2022-01-26 06:17:43 GMT 42.924934 -4.938224 36,050 25 433 0
2022-01-26 06:17:38 GMT 42.919533 -4.941820 36,050 25 433 0
2022-01-26 06:17:35 GMT 42.914108 -4.945381 36,050 25 433 0
2022-01-26 06:17:30 GMT 42.904358 -4.951832 36,050 25 433 0
2022-01-26 06:17:25 GMT 42.895340 -4.957836 36,050 25 433 0
2022-01-26 06:17:20 GMT 42.885971 -4.963989 36,050 25 434 0
2022-01-26 06:17:15 GMT 42.877312 -4.969744 36,050 25 434 0
2022-01-26 06:17:09 GMT 42.865719 -4.977330 36,050 25 434 0
2022-01-26 06:17:04 GMT 42.858318 -4.982169 36,050 25 434 0
2022-01-26 06:17:00 GMT 42.849289 -4.988112 36,050 25 434 0
2022-01-26 06:16:55 GMT 42.840958 -4.993542 36,050 25 434 64
2022-01-26 06:16:49 GMT 42.831024 -5.000057 36,025 25 434 64
2022-01-26 06:16:45 GMT 42.822327 -5.005742 36,025 25 434 64
2022-01-26 06:16:42 GMT 42.816376 -5.009702 36,025 25 434 64
2022-01-26 06:16:38 GMT 42.810974 -5.013279 36,025 25 434 64
2022-01-26 06:16:34 GMT 42.804272 -5.017622 36,025 25 434 0
2022-01-26 06:16:31 GMT 42.798683 -5.021327 36,025 25 434 64
2022-01-26 06:16:28 GMT 42.792709 -5.025246 36,025 25 434 64
2022-01-26 06:16:24 GMT 42.786579 -5.029247 36,025 25 434 64
2022-01-26 06:16:21 GMT 42.779507 -5.033846 36,025 25 434 0
2022-01-26 06:16:18 GMT 42.774292 -5.037295 36,025 25 433 64
2022-01-26 06:16:14 GMT 42.767960 -5.041447 36,025 25 433 64
2022-01-26 06:16:11 GMT 42.761303 -5.045854 36,000 25 433 64
2022-01-26 06:16:07 GMT 42.755718 -5.049495 36,000 25 432 64
2022-01-26 06:16:03 GMT 42.748169 -5.054522 36,000 25 432 64
2022-01-26 06:15:58 GMT 42.738098 -5.061139 36,000 25 433 64
2022-01-26 06:15:54 GMT 42.730858 -5.065911 36,000 25 432 64
2022-01-26 06:15:51 GMT 42.724045 -5.070378 36,000 25 432 0
2022-01-26 06:15:48 GMT 42.720058 -5.072937 36,000 25 432 0
2022-01-26 06:15:43 GMT 42.710358 -5.079304 36,000 25 432 0
2022-01-26 06:15:40 GMT 42.706371 -5.081879 36,000 25 432 0
2022-01-26 06:15:37 GMT 42.700241 -5.085921 36,000 25 432 0
2022-01-26 06:15:33 GMT 42.693787 -5.090166 36,000 25 432 0
2022-01-26 06:15:28 GMT 42.677765 -5.100653 36,000 25 432 0
2022-01-26 06:15:24 GMT 42.677765 -5.100653 36,000 25 432 0
2022-01-26 06:15:17 GMT 42.664856 -5.109142 36,000 25 430 0
2022-01-26 06:15:14 GMT 42.659122 -5.112858 36,000 25 430 0
2022-01-26 06:15:10 GMT 42.651394 -5.117904 36,000 25 430 0
2022-01-26 06:15:07 GMT 42.646877 -5.120843 36,000 25 430 0
2022-01-26 06:15:04 GMT 42.640965 -5.124739 36,000 25 431 0
2022-01-26 06:14:59 GMT 42.633087 -5.129866 36,000 25 431 0
2022-01-26 06:14:54 GMT 42.622856 -5.136556 36,000 25 429 0
2022-01-26 06:14:50 GMT 42.614803 -5.141857 36,000 25 429 0
2022-01-26 06:14:47 GMT 42.604095 -5.148883 36,000 25 429 0
2022-01-26 06:14:43 GMT 42.604095 -5.148883 36,000 25 429 0
2022-01-26 06:14:39 GMT 42.596741 -5.153674 36,000 25 429 64
2022-01-26 06:14:34 GMT 42.587616 -5.159678 36,000 25 429 64
2022-01-26 06:14:29 GMT 42.578156 -5.165821 36,000 25 429 64
2022-01-26 06:14:25 GMT 42.572067 -5.169816 36,000 25 429 128
2022-01-26 06:14:22 GMT 42.564388 -5.174816 35,975 25 429 128
2022-01-26 06:14:19 GMT 42.560989 -5.176995 35,975 25 429 64
2022-01-26 06:14:14 GMT 42.551167 -5.183375 35,975 25 428 64
2022-01-26 06:14:08 GMT 42.542229 -5.189188 35,975 25 429 0
2022-01-26 06:14:05 GMT 42.536682 -5.192788 35,975 25 428 0
2022-01-26 06:14:02 GMT 42.531830 -5.195909 35,975 25 428 0
2022-01-26 06:14:00 GMT 42.528076 -5.198343 35,975 25 428 0
2022-01-26 06:13:56 GMT 42.518486 -5.204645 35,975 25 428 0
2022-01-26 06:13:52 GMT 42.513271 -5.208031 35,975 25 428 0
2022-01-26 06:13:48 GMT 42.506008 -5.212757 35,975 25 427 0
2022-01-26 06:13:45 GMT 42.499771 -5.216845 35,975 25 427 0
2022-01-26 06:13:41 GMT 42.494606 -5.220167 35,975 25 427 0
2022-01-26 06:13:38 GMT 42.487473 -5.224811 35,975 25 427 64
2022-01-26 06:13:35 GMT 42.482128 -5.228279 35,975 25 427 64
2022-01-26 06:13:32 GMT 42.477661 -5.231153 35,975 25 427 64
2022-01-26 06:13:27 GMT 42.469116 -5.236671 35,950 25 427 64
2022-01-26 06:13:23 GMT 42.460602 -5.242226 35,950 25 427 0
2022-01-26 06:13:18 GMT 42.451683 -5.247952 35,975 25 427 0
2022-01-26 06:13:13 GMT 42.443161 -5.253525 35,950 25 426 0
2022-01-26 06:13:07 GMT 42.432861 -5.260204 35,950 25 426 0
2022-01-26 06:13:03 GMT 42.425217 -5.265198 35,975 25 426 0
2022-01-26 06:12:58 GMT 42.415100 -5.271752 35,950 25 425 0
2022-01-26 06:12:53 GMT 42.407272 -5.276808 35,975 25 426 0
2022-01-26 06:12:47 GMT 42.397339 -5.283238 35,975 25 426 -64
2022-01-26 06:12:42 GMT 42.387024 -5.289917 35,975 25 425 -64
2022-01-26 06:12:37 GMT 42.378662 -5.295348 35,975 25 425 -64
2022-01-26 06:12:34 GMT 42.373894 -5.298412 35,975 25 425 -64
2022-01-26 06:12:31 GMT 42.370171 -5.300839 35,975 25 425 -64
2022-01-26 06:12:27 GMT 42.361084 -5.306646 35,975 25 425 -64
2022-01-26 06:12:22 GMT 42.353806 -5.311328 36,000 25 425 0
2022-01-26 06:12:16 GMT 42.342285 -5.318788 36,000 25 425 -64
2022-01-26 06:12:12 GMT 42.336048 -5.322748 36,000 25 425 -64
2022-01-26 06:12:06 GMT 42.324188 -5.330429 36,000 25 425 -64
2022-01-26 06:12:01 GMT 42.317230 -5.334923 36,000 25 425 -64
2022-01-26 06:11:57 GMT 42.307278 -5.341336 36,000 25 425 -64
2022-01-26 06:11:52 GMT 42.299835 -5.346097 36,000 25 425 -64
2022-01-26 06:11:46 GMT 42.289028 -5.353088 36,000 25 425 0
2022-01-26 06:11:42 GMT 42.282257 -5.357458 36,000 25 425 0
2022-01-26 06:11:36 GMT 42.270687 -5.364905 36,000 25 426 0
2022-01-26 06:11:31 GMT 42.263580 -5.369505 36,000 25 426 -64
2022-01-26 06:11:26 GMT 42.252720 -5.376466 36,000 25 426 -64
2022-01-26 06:11:22 GMT 42.245956 -5.380804 36,025 25 426 0
2022-01-26 06:11:16 GMT 42.234379 -5.388219 36,025 25 427 0
2022-01-26 06:11:11 GMT 42.227444 -5.392690 36,025 25 427 0
2022-01-26 06:11:05 GMT 42.215294 -5.400419 36,025 25 427 0
2022-01-26 06:11:02 GMT 42.209610 -5.404087 36,025 25 427 0
2022-01-26 06:10:56 GMT 42.198395 -5.411278 36,025 25 428 0
2022-01-26 06:10:51 GMT 42.190338 -5.416447 36,025 25 427 0
2022-01-26 06:10:45 GMT 42.180004 -5.423158 36,025 25 427 0
2022-01-26 06:10:41 GMT 42.173069 -5.427629 36,025 25 428 0
2022-01-26 06:10:35 GMT 42.161499 -5.435174 36,025 25 428 0
2022-01-26 06:10:32 GMT 42.155960 -5.438794 36,025 25 428 -64
2022-01-26 06:10:30 GMT 42.154354 -5.439829 36,025 25 428 -64
2022-01-26 06:10:25 GMT 42.144196 -5.446410 36,025 25 428 0
2022-01-26 06:10:21 GMT 42.136337 -5.451518 36,025 25 428 0
2022-01-26 06:10:17 GMT 42.128082 -5.456772 36,025 25 428 0
2022-01-26 06:10:14 GMT 42.125259 -5.458608 36,025 25 428 0
2022-01-26 06:10:10 GMT 42.117531 -5.463590 36,025 25 428 0
2022-01-26 06:10:05 GMT 42.107895 -5.469722 36,025 25 429 0
2022-01-26 06:10:00 GMT 42.099289 -5.475249 36,025 25 428 0
2022-01-26 06:09:55 GMT 42.089447 -5.481554 36,050 26 428 0
2022-01-26 06:09:50 GMT 42.081593 -5.486713 36,025 27 428 0
2022-01-26 06:09:44 GMT 42.070702 -5.494314 36,025 28 428 0
2022-01-26 06:09:40 GMT 42.063721 -5.499406 36,025 29 428 0
2022-01-26 06:09:36 GMT 42.057201 -5.504342 36,025 30 427 64
2022-01-26 06:09:33 GMT 42.053101 -5.507521 36,025 30 428 64
2022-01-26 06:09:29 GMT 42.045456 -5.513639 36,025 31 427 64
2022-01-26 06:09:24 GMT 42.036026 -5.521441 36,025 31 427 64
2022-01-26 06:09:21 GMT 42.032318 -5.524562 36,025 31 427 0
2022-01-26 06:09:19 GMT 42.028992 -5.527337 36,025 31 427 0
2022-01-26 06:09:14 GMT 42.020100 -5.534810 36,025 31 427 64
2022-01-26 06:09:11 GMT 42.015747 -5.538420 36,025 31 427 64
2022-01-26 06:09:08 GMT 42.011169 -5.542228 36,025 31 427 64
2022-01-26 06:09:04 GMT 42.004456 -5.547776 36,000 31 427 64
2022-01-26 06:09:01 GMT 41.998444 -5.552840 36,000 31 427 64
2022-01-26 06:08:58 GMT 41.994049 -5.556460 36,000 31 427 64
2022-01-26 06:08:55 GMT 41.987373 -5.562020 36,000 31 427 64
2022-01-26 06:08:51 GMT 41.981319 -5.567066 36,000 31 427 64
2022-01-26 06:08:48 GMT 41.976620 -5.570963 36,000 31 427 64
2022-01-26 06:08:45 GMT 41.972260 -5.574625 35,975 31 427 64
2022-01-26 06:08:41 GMT 41.959675 -5.585143 35,975 31 427 64
2022-01-26 06:08:38 GMT 41.959675 -5.585143 35,975 31 427 0
2022-01-26 06:08:34 GMT 41.952644 -5.590955 35,975 31 427 0
2022-01-26 06:08:30 GMT 41.947105 -5.595618 35,975 31 427 0
2022-01-26 06:08:27 GMT 41.941910 -5.599906 35,975 31 426 0
2022-01-26 06:08:24 GMT 41.936539 -5.604369 35,975 31 426 0
2022-01-26 06:08:21 GMT 41.925133 -5.613886 35,975 31 426 0
2022-01-26 06:08:17 GMT 41.925133 -5.613886 35,975 31 426 0
2022-01-26 06:08:13 GMT 41.917282 -5.620443 35,975 31 426 64
2022-01-26 06:08:07 GMT 41.908279 -5.627938 35,975 31 425 64
2022-01-26 06:08:03 GMT 41.901260 -5.633802 35,975 31 425 64
2022-01-26 06:08:00 GMT 41.896549 -5.637647 35,975 31 425 64
2022-01-26 06:07:57 GMT 41.891556 -5.641854 35,975 31 425 0
2022-01-26 06:07:52 GMT 41.882034 -5.649719 35,975 31 424 0
2022-01-26 06:07:49 GMT 41.877502 -5.653465 35,975 31 424 0
2022-01-26 06:07:45 GMT 41.869827 -5.659811 35,975 31 424 0
2022-01-26 06:07:42 GMT 41.866337 -5.662750 35,950 31 424 0
2022-01-26 06:07:39 GMT 41.860470 -5.667604 35,950 31 424 0
2022-01-26 06:07:37 GMT 41.857304 -5.670223 35,950 31 424 0
2022-01-26 06:07:34 GMT 41.852463 -5.674247 35,950 31 424 0
2022-01-26 06:07:31 GMT 41.847427 -5.678371 35,950 31 424 0
2022-01-26 06:07:27 GMT 41.839920 -5.684613 35,975 31 424 -64
2022-01-26 06:07:21 GMT 41.830444 -5.692451 35,975 31 424 0
2022-01-26 06:07:19 GMT 41.827240 -5.695100 35,975 31 424 0
2022-01-26 06:07:16 GMT 41.822948 -5.698647 35,975 31 424 0
2022-01-26 06:07:13 GMT 41.817085 -5.703501 35,975 31 424 0
2022-01-26 06:07:10 GMT 41.813267 -5.706631 35,975 31 424 0
2022-01-26 06:07:06 GMT 41.805725 -5.712827 35,975 31 424 -64
2022-01-26 06:07:00 GMT 41.796890 -5.720132 35,975 31 423 0
2022-01-26 06:06:56 GMT 41.789246 -5.726432 35,975 31 423 0
2022-01-26 06:06:52 GMT 41.779358 -5.734551 35,975 31 423 -64
2022-01-26 06:06:43 GMT 41.768669 -5.743295 35,975 31 423 -64
2022-01-26 06:06:40 GMT 41.763500 -5.747574 35,975 31 423 0
2022-01-26 06:06:37 GMT 41.758335 -5.751790 35,975 31 423 -64
2022-01-26 06:06:34 GMT 41.751984 -5.757023 35,975 31 423 -64
2022-01-26 06:06:30 GMT 41.746651 -5.761435 36,000 31 423 -64
2022-01-26 06:06:27 GMT 41.741482 -5.765651 36,000 31 424 -64
2022-01-26 06:06:23 GMT 41.734818 -5.771193 36,025 31 426 -64
2022-01-26 06:06:20 GMT 41.729599 -5.775438 36,000 31 424 -64
2022-01-26 06:06:16 GMT 41.721451 -5.782179 36,000 31 424 -64
2022-01-26 06:06:13 GMT 41.717926 -5.785051 36,000 31 424 -64
2022-01-26 06:06:10 GMT 41.712753 -5.789358 36,000 31 424 -64
2022-01-26 06:06:07 GMT 41.707779 -5.793500 36,000 31 424 -64
2022-01-26 06:06:04 GMT 41.702938 -5.797460 36,025 32 424 -64
2022-01-26 06:06:00 GMT 41.696419 -5.802889 36,025 32 424 -64
2022-01-26 06:05:55 GMT 41.686131 -5.811448 36,025 32 424 0
2022-01-26 06:05:51 GMT 41.679611 -5.816886 36,025 32 424 0
2022-01-26 06:05:48 GMT 41.675472 -5.820391 36,025 32 424 0
2022-01-26 06:05:45 GMT 41.670456 -5.824502 36,025 31 425 0
2022-01-26 06:05:42 GMT 41.666115 -5.828119 36,025 31 425 0
2022-01-26 06:05:39 GMT 41.661972 -5.831632 36,025 31 425 0
2022-01-26 06:05:36 GMT 41.657269 -5.835465 36,025 31 425 0
2022-01-26 06:05:32 GMT 41.650242 -5.841277 36,025 31 426 0
2022-01-26 06:05:29 GMT 41.644547 -5.845975 36,025 31 426 0
2022-01-26 06:05:27 GMT 41.641205 -5.848722 36,025 31 426 0
2022-01-26 06:05:24 GMT 41.635483 -5.853413 36,025 31 426 0
2022-01-26 06:05:20 GMT 41.629292 -5.858459 36,025 31 426 -64
2022-01-26 06:05:17 GMT 41.623581 -5.863141 36,025 31 426 0
2022-01-26 06:05:13 GMT 41.616676 -5.868807 36,025 31 426 -64
2022-01-26 06:05:08 GMT 41.609619 -5.874627 36,025 31 426 0
2022-01-26 06:05:05 GMT 41.604767 -5.878622 36,025 31 426 0
2022-01-26 06:05:02 GMT 41.599033 -5.883306 36,025 31 427 0
2022-01-26 06:04:59 GMT 41.594517 -5.887075 36,025 31 427 0
2022-01-26 06:04:56 GMT 41.588604 -5.891929 36,025 31 427 -64
2022-01-26 06:04:52 GMT 41.581879 -5.897411 36,025 31 427 -64
2022-01-26 06:04:49 GMT 41.577164 -5.901281 36,025 31 427 0
2022-01-26 06:04:45 GMT 41.570068 -5.907024 36,025 31 427 0
2022-01-26 06:04:42 GMT 41.565189 -5.911028 36,025 31 427 0
2022-01-26 06:04:39 GMT 41.560673 -5.914796 36,025 31 427 64
2022-01-26 06:04:36 GMT 41.555412 -5.919012 36,025 31 427 0
2022-01-26 06:04:33 GMT 41.548691 -5.924565 36,025 31 427 0
2022-01-26 06:04:29 GMT 41.542660 -5.929487 36,025 31 427 0
2022-01-26 06:04:25 GMT 41.534744 -5.936003 36,025 31 427 0
2022-01-26 06:04:22 GMT 41.532028 -5.938235 36,025 31 427 0
2022-01-26 06:04:18 GMT 41.525665 -5.943476 36,025 31 427 64
2022-01-26 06:04:15 GMT 41.520630 -5.947599 36,025 31 427 0
2022-01-26 06:04:12 GMT 41.514587 -5.952610 36,025 31 427 0
2022-01-26 06:04:09 GMT 41.510376 -5.956026 36,025 31 427 64
2022-01-26 06:04:06 GMT 41.503460 -5.961680 36,025 31 427 64
2022-01-26 06:04:02 GMT 41.496899 -5.967045 36,025 31 428 -64
2022-01-26 06:03:58 GMT 41.491310 -5.971644 36,025 31 427 0
2022-01-26 06:03:54 GMT 41.484741 -5.976999 36,025 31 427 64
2022-01-26 06:03:51 GMT 41.479843 -5.980994 36,025 31 427 64
2022-01-26 06:03:48 GMT 41.474304 -5.985551 36,025 31 427 0
2022-01-26 06:03:44 GMT 41.467392 -5.991169 36,025 31 427 0
2022-01-26 06:03:41 GMT 41.463181 -5.994603 36,025 31 427 0
2022-01-26 06:03:37 GMT 41.456635 -5.999971 36,025 31 427 0
2022-01-26 06:03:34 GMT 41.449879 -6.005497 36,025 31 427 0
2022-01-26 06:03:31 GMT 41.445690 -6.008947 36,025 31 427 0
2022-01-26 06:03:28 GMT 41.440105 -6.013482 36,025 31 427 0
2022-01-26 06:03:24 GMT 41.434052 -6.018464 36,025 31 426 0
2022-01-26 06:03:21 GMT 41.428513 -6.022935 36,025 31 426 0
2022-01-26 06:03:18 GMT 41.421947 -6.028300 36,025 31 426 0
2022-01-26 06:03:14 GMT 41.417542 -6.031869 36,025 31 426 0
2022-01-26 06:03:11 GMT 41.411522 -6.036796 36,025 31 426 64
2022-01-26 06:03:07 GMT 41.405457 -6.041731 36,025 31 426 0
2022-01-26 06:03:05 GMT 41.400238 -6.045976 36,025 31 426 64
2022-01-26 06:03:02 GMT 41.396393 -6.049097 36,025 31 426 0
2022-01-26 06:02:59 GMT 41.391178 -6.053403 36,025 31 426 -64
2022-01-26 06:02:57 GMT 41.388474 -6.055589 36,025 31 427 -64
2022-01-26 06:02:52 GMT 41.378769 -6.063599 36,025 31 426 -64
2022-01-26 06:02:49 GMT 41.374237 -6.067322 36,025 31 426 -64
2022-01-26 06:02:47 GMT 41.371021 -6.069946 36,025 31 426 -64
2022-01-26 06:02:44 GMT 41.360825 -6.078308 36,025 31 426 0
2022-01-26 06:02:41 GMT 41.360825 -6.078308 36,025 31 426 64
2022-01-26 06:02:38 GMT 41.356449 -6.081807 36,025 31 426 64
2022-01-26 06:02:35 GMT 41.351074 -6.086182 36,000 31 426 0
2022-01-26 06:02:31 GMT 41.345230 -6.090983 36,025 31 426 0
2022-01-26 06:02:28 GMT 41.340668 -6.094666 36,025 31 425 0
2022-01-26 06:02:23 GMT 41.330940 -6.102593 36,025 31 425 0
2022-01-26 06:02:20 GMT 41.324570 -6.107788 36,025 31 425 0
2022-01-26 06:02:14 GMT 41.316742 -6.114258 36,025 31 426 64
2022-01-26 06:02:11 GMT 41.311020 -6.118896 36,025 31 425 64
2022-01-26 06:02:08 GMT 41.307358 -6.121887 36,000 31 425 64
2022-01-26 06:02:05 GMT 41.302460 -6.125854 36,000 31 425 0
2022-01-26 06:02:02 GMT 41.296444 -6.130746 36,000 31 425 64
2022-01-26 06:01:59 GMT 41.291229 -6.134928 36,000 31 424 64
2022-01-26 06:01:56 GMT 41.284836 -6.140076 36,000 31 424 64
2022-01-26 06:01:53 GMT 41.279823 -6.144166 36,000 31 424 0
2022-01-26 06:01:50 GMT 41.276798 -6.146601 36,000 31 424 0
2022-01-26 06:01:48 GMT 41.273262 -6.149472 36,000 31 424 0
2022-01-26 06:01:44 GMT 41.265198 -6.155945 36,000 31 424 0
2022-01-26 06:01:40 GMT 41.260025 -6.160156 36,000 31 424 64
2022-01-26 06:01:38 GMT 41.256500 -6.163025 36,000 31 424 64
2022-01-26 06:01:35 GMT 41.251472 -6.167075 36,000 31 424 64
2022-01-26 06:01:32 GMT 41.245422 -6.171936 36,000 31 424 64
2022-01-26 06:01:29 GMT 41.239418 -6.176813 36,000 31 423 64
2022-01-26 06:01:25 GMT 41.234390 -6.180908 35,975 31 423 64
2022-01-26 06:01:22 GMT 41.228897 -6.185364 35,975 31 423 64
2022-01-26 06:01:19 GMT 41.223869 -6.189485 35,975 31 423 0
2022-01-26 06:01:16 GMT 41.217865 -6.194336 35,975 31 423 0
2022-01-26 06:01:13 GMT 41.213718 -6.197787 35,975 31 423 64
2022-01-26 06:01:10 GMT 41.208553 -6.201969 35,975 31 423 0
2022-01-26 06:01:04 GMT 41.197998 -6.210510 35,975 31 423 0
2022-01-26 06:01:01 GMT 41.195160 -6.212830 35,975 31 423 0
2022-01-26 06:00:58 GMT 41.189514 -6.217450 35,975 31 423 0
2022-01-26 06:00:54 GMT 41.181644 -6.223755 35,975 31 423 0
2022-01-26 06:00:51 GMT 41.178314 -6.226440 35,975 31 423 0
2022-01-26 06:00:48 GMT 41.171593 -6.231870 35,975 31 423 0
2022-01-26 06:00:45 GMT 41.167282 -6.235352 35,975 31 422 64
2022-01-26 06:00:41 GMT 41.161255 -6.240172 35,975 31 422 0
2022-01-26 06:00:38 GMT 41.156570 -6.243958 35,975 31 422 0
2022-01-26 06:00:35 GMT 41.150711 -6.248657 35,975 31 422 0
2022-01-26 06:00:32 GMT 41.143524 -6.254395 35,975 31 422 0
2022-01-26 06:00:27 GMT 41.136723 -6.259960 35,950 31 423 0
2022-01-26 06:00:24 GMT 41.133362 -6.262634 35,975 31 423 0
2022-01-26 06:00:21 GMT 41.127041 -6.267763 35,975 31 423 0
2022-01-26 06:00:18 GMT 41.122524 -6.271446 35,975 31 423 0
2022-01-26 06:00:15 GMT 41.116379 -6.276439 35,975 31 423 0
2022-01-26 06:00:10 GMT 41.108887 -6.282494 35,950 31 423 64
2022-01-26 06:00:07 GMT 41.102692 -6.287488 35,950 31 423 64
2022-01-26 06:00:04 GMT 41.099213 -6.290344 35,950 31 422 0
2022-01-26 06:00:00 GMT 41.093353 -6.295044 35,950 31 422 0
2022-01-26 05:59:57 GMT 41.088356 -6.299036 35,950 31 422 0
2022-01-26 05:59:54 GMT 41.083008 -6.303345 35,950 31 423 0
2022-01-26 05:59:51 GMT 41.077469 -6.307800 35,950 31 422 0
2022-01-26 05:59:48 GMT 41.072296 -6.311951 35,950 31 423 0
2022-01-26 05:59:45 GMT 41.065964 -6.317076 35,950 31 422 0
2022-01-26 05:59:40 GMT 41.059074 -6.322569 35,950 31 422 0
2022-01-26 05:59:37 GMT 41.054077 -6.326599 35,950 31 422 0
2022-01-26 05:59:34 GMT 41.049225 -6.330505 35,950 31 422 0
2022-01-26 05:59:30 GMT 41.041897 -6.336427 35,950 31 423 0
2022-01-26 05:59:25 GMT 41.034210 -6.342651 35,950 31 423 -64
2022-01-26 05:59:22 GMT 41.027206 -6.348267 35,975 31 423 -64
2022-01-26 05:59:18 GMT 41.021179 -6.353156 35,975 31 422 0
2022-01-26 05:59:14 GMT 41.015640 -6.357588 35,975 31 423 -64
2022-01-26 05:59:10 GMT 41.008301 -6.363464 35,975 31 423 -64
2022-01-26 05:59:07 GMT 41.004272 -6.366699 35,975 31 423 -64
2022-01-26 05:59:04 GMT 40.998463 -6.371384 35,975 31 422 0
2022-01-26 05:59:00 GMT 40.991943 -6.376627 35,975 31 423 0
2022-01-26 05:58:57 GMT 40.986923 -6.380676 35,975 31 423 0
2022-01-26 05:58:54 GMT 40.981705 -6.384867 35,975 31 423 0
2022-01-26 05:58:50 GMT 40.975708 -6.389709 35,975 31 424 -64
2022-01-26 05:58:47 GMT 40.970020 -6.394293 35,975 31 424 -64
2022-01-26 05:58:43 GMT 40.964676 -6.398560 36,000 31 424 0
2022-01-26 05:58:40 GMT 40.957962 -6.403968 36,000 31 424 -64
2022-01-26 05:58:37 GMT 40.953773 -6.407339 36,000 31 424 -64
2022-01-26 05:58:34 GMT 40.948105 -6.411987 36,000 31 424 -64
2022-01-26 05:58:30 GMT 40.940918 -6.417786 36,000 31 424 -64
2022-01-26 05:58:27 GMT 40.935898 -6.421821 36,000 31 424 -64
2022-01-26 05:58:23 GMT 40.930847 -6.425903 36,000 31 424 0
2022-01-26 05:58:19 GMT 40.924118 -6.431247 36,000 31 425 0
2022-01-26 05:58:16 GMT 40.918114 -6.436116 36,000 31 425 0
2022-01-26 05:58:13 GMT 40.914230 -6.439270 36,000 31 425 0
2022-01-26 05:58:10 GMT 40.908710 -6.443731 36,000 31 426 0
2022-01-26 05:58:07 GMT 40.902798 -6.448413 36,000 31 426 -64
2022-01-26 05:58:03 GMT 40.896744 -6.453308 36,000 31 426 -64
2022-01-26 05:57:59 GMT 40.890015 -6.458679 36,025 31 427 0
2022-01-26 05:57:56 GMT 40.885803 -6.462097 36,025 31 427 0
2022-01-26 05:57:53 GMT 40.879898 -6.466797 36,025 31 427 0
2022-01-26 05:57:49 GMT 40.872620 -6.472595 36,025 33 426 0
2022-01-26 05:57:46 GMT 40.867767 -6.476563 36,025 32 426 0
2022-01-26 05:57:43 GMT 40.862762 -6.480748 36,025 33 426 0
2022-01-26 05:57:39 GMT 40.856003 -6.486633 36,025 34 426 -64
2022-01-26 05:57:35 GMT 40.849686 -6.492432 36,025 37 426 0
2022-01-26 05:57:32 GMT 40.846004 -6.495916 36,025 38 426 0
2022-01-26 05:57:29 GMT 40.840622 -6.501160 36,025 37 426 0
2022-01-26 05:57:26 GMT 40.835770 -6.506104 36,025 38 426 0
2022-01-26 05:57:23 GMT 40.830414 -6.511780 36,025 39 425 0
2022-01-26 05:57:18 GMT 40.824188 -6.518616 36,025 40 425 0
2022-01-26 05:57:15 GMT 40.819290 -6.524231 36,025 42 425 0
2022-01-26 05:57:12 GMT 40.814907 -6.529437 36,025 42 425 -64
2022-01-26 05:57:09 GMT 40.809174 -6.536499 36,025 44 425 0
2022-01-26 05:57:06 GMT 40.805878 -6.540588 36,025 45 425 0
2022-01-26 05:57:03 GMT 40.801128 -6.546853 36,025 45 425 0
2022-01-26 05:56:59 GMT 40.795898 -6.553833 36,025 45 425 0
2022-01-26 05:56:56 GMT 40.791817 -6.559400 36,025 45 425 0
2022-01-26 05:56:52 GMT 40.787109 -6.565735 36,025 45 425 0
2022-01-26 05:56:49 GMT 40.782181 -6.572446 36,025 45 426 0
2022-01-26 05:56:45 GMT 40.776672 -6.579834 36,025 45 426 0
2022-01-26 05:56:42 GMT 40.772823 -6.585055 36,025 45 426 0
2022-01-26 05:56:39 GMT 40.768307 -6.591173 36,025 45 426 64
2022-01-26 05:56:36 GMT 40.762676 -6.598851 36,025 45 426 64
2022-01-26 05:56:32 GMT 40.758591 -6.604431 36,025 45 426 0
2022-01-26 05:56:28 GMT 40.753876 -6.610773 36,025 45 427 0
2022-01-26 05:56:24 GMT 40.748245 -6.618389 36,025 45 427 0
2022-01-26 05:56:21 GMT 40.744675 -6.623230 36,025 45 427 0
2022-01-26 05:56:17 GMT 40.738724 -6.631226 36,025 45 427 0
2022-01-26 05:56:14 GMT 40.734047 -6.637552 36,025 45 427 0
2022-01-26 05:56:10 GMT 40.728088 -6.645542 36,025 45 429 0
2022-01-26 05:56:07 GMT 40.723804 -6.651285 36,025 45 427 -64
2022-01-26 05:56:03 GMT 40.720093 -6.656311 36,025 45 427 0
2022-01-26 05:56:00 GMT 40.715790 -6.662109 36,025 45 427 0
2022-01-26 05:55:57 GMT 40.711258 -6.668213 36,025 45 427 -64
2022-01-26 05:55:54 GMT 40.706535 -6.674569 36,025 45 427 -64
2022-01-26 05:55:51 GMT 40.703369 -6.678814 36,025 45 428 0
2022-01-26 05:55:48 GMT 40.697128 -6.687241 36,025 45 428 0
2022-01-26 05:55:43 GMT 40.691776 -6.694482 36,025 45 428 0
2022-01-26 05:55:40 GMT 40.688332 -6.699163 36,025 45 428 0
2022-01-26 05:55:37 GMT 40.683334 -6.705872 36,050 45 429 0
2022-01-26 05:55:33 GMT 40.677811 -6.713333 36,025 45 428 0
2022-01-26 05:55:30 GMT 40.672413 -6.720637 36,025 45 428 -64
2022-01-26 05:55:27 GMT 40.669525 -6.724507 36,050 45 428 -64
2022-01-26 05:55:23 GMT 40.663567 -6.732559 36,050 45 429 -64
2022-01-26 05:55:20 GMT 40.655411 -6.743530 36,050 45 429 -64
2022-01-26 05:55:17 GMT 40.655411 -6.743530 36,050 45 429 0
2022-01-26 05:55:14 GMT 40.652348 -6.747665 36,050 45 429 0
2022-01-26 05:55:11 GMT 40.647224 -6.754532 36,050 45 429 0
2022-01-26 05:55:08 GMT 40.644012 -6.758789 36,050 45 429 0
2022-01-26 05:55:05 GMT 40.638054 -6.766829 36,050 45 429 0
2022-01-26 05:55:01 GMT 40.634052 -6.772197 36,050 45 429 0
2022-01-26 05:54:56 GMT 40.626698 -6.782060 36,050 45 429 0
2022-01-26 05:54:53 GMT 40.621170 -6.789551 36,050 45 429 0
2022-01-26 05:54:50 GMT 40.618362 -6.793234 36,050 45 429 0
2022-01-26 05:54:46 GMT 40.612682 -6.800849 36,050 45 429 0
2022-01-26 05:54:43 GMT 40.609085 -6.805725 36,050 45 429 0
2022-01-26 05:54:40 GMT 40.605190 -6.810899 36,050 45 429 0
2022-01-26 05:54:35 GMT 40.597275 -6.821511 36,050 45 429 0
2022-01-26 05:54:31 GMT 40.591553 -6.829163 36,050 45 429 -64
2022-01-26 05:54:25 GMT 40.583359 -6.840149 36,050 45 429 0
2022-01-26 05:54:21 GMT 40.577816 -6.847604 36,050 45 429 0
2022-01-26 05:54:16 GMT 40.568924 -6.859526 36,050 45 429 0
2022-01-26 05:54:12 GMT 40.563675 -6.866638 36,050 45 429 0
2022-01-26 05:54:09 GMT 40.559753 -6.871823 36,050 45 429 64
2022-01-26 05:54:05 GMT 40.555344 -6.877808 36,050 45 429 128
2022-01-26 05:54:01 GMT 40.549622 -6.885437 36,050 45 429 128
2022-01-26 05:53:56 GMT 40.542938 -6.894348 36,025 45 429 64
2022-01-26 05:53:51 GMT 40.535316 -6.904533 36,025 45 429 64
2022-01-26 05:53:45 GMT 40.528191 -6.914021 36,025 45 429 64
2022-01-26 05:53:40 GMT 40.520554 -6.924255 36,025 45 429 64
2022-01-26 05:53:36 GMT 40.515251 -6.931312 36,000 45 429 64
2022-01-26 05:53:33 GMT 40.510689 -6.937429 36,000 45 429 64
2022-01-26 05:53:29 GMT 40.505951 -6.943726 36,000 45 429 64
2022-01-26 05:53:25 GMT 40.499817 -6.951904 36,000 45 428 64
2022-01-26 05:53:20 GMT 40.492626 -6.961524 36,000 45 428 64
2022-01-26 05:53:15 GMT 40.486248 -6.970076 36,000 45 428 64
2022-01-26 05:53:12 GMT 40.480682 -6.977478 35,975 45 428 64
2022-01-26 05:53:09 GMT 40.478195 -6.980813 35,975 45 428 64
2022-01-26 05:53:05 GMT 40.471958 -6.989115 35,975 45 427 64
2022-01-26 05:52:59 GMT 40.462551 -7.001724 35,975 45 427 64
2022-01-26 05:52:55 GMT 40.458389 -7.007263 35,975 45 427 64
2022-01-26 05:52:52 GMT 40.455059 -7.011712 35,975 45 427 64
2022-01-26 05:52:48 GMT 40.448261 -7.020701 35,975 45 427 64
2022-01-26 05:52:45 GMT 40.444260 -7.026069 35,950 45 427 0
2022-01-26 05:52:42 GMT 40.440208 -7.031375 35,950 45 427 0
2022-01-26 05:52:38 GMT 40.433411 -7.040426 35,975 45 425 0
2022-01-26 05:52:34 GMT 40.429825 -7.045166 35,950 45 426 -64
2022-01-26 05:52:31 GMT 40.425686 -7.050726 35,950 45 426 0
2022-01-26 05:52:28 GMT 40.421539 -7.056213 35,950 45 426 0
2022-01-26 05:52:25 GMT 40.415588 -7.064148 35,950 45 425 0
2022-01-26 05:52:22 GMT 40.411606 -7.069458 35,950 45 425 0
2022-01-26 05:52:19 GMT 40.407436 -7.075008 35,975 45 425 0
2022-01-26 05:52:14 GMT 40.401802 -7.082499 35,975 45 425 0
2022-01-26 05:52:11 GMT 40.397964 -7.087646 35,975 45 425 0
2022-01-26 05:52:08 GMT 40.392838 -7.094482 35,975 45 425 -64
2022-01-26 05:52:04 GMT 40.388165 -7.100726 35,975 45 425 0
2022-01-26 05:52:01 GMT 40.383087 -7.107530 35,975 45 424 0
2022-01-26 05:51:57 GMT 40.378529 -7.113585 35,975 45 424 0
2022-01-26 05:51:54 GMT 40.374245 -7.119265 35,975 45 424 0
2022-01-26 05:51:51 GMT 40.369583 -7.125488 35,975 45 424 0
2022-01-26 05:51:47 GMT 40.363770 -7.133186 35,975 45 424 0
2022-01-26 05:51:44 GMT 40.360092 -7.138117 35,975 45 424 0
2022-01-26 05:51:40 GMT 40.355251 -7.144547 35,975 45 424 0
2022-01-26 05:51:37 GMT 40.349895 -7.151663 35,975 45 424 0
2022-01-26 05:51:33 GMT 40.344219 -7.159153 35,975 45 424 0
2022-01-26 05:51:30 GMT 40.340492 -7.164085 35,975 45 424 0
2022-01-26 05:51:27 GMT 40.337189 -7.168517 35,975 45 425 -64
2022-01-26 05:51:24 GMT 40.332253 -7.175071 35,975 45 425 -64
2022-01-26 05:51:20 GMT 40.327011 -7.182007 35,975 45 425 -64
2022-01-26 05:51:17 GMT 40.323410 -7.186806 35,975 45 424 -64
2022-01-26 05:51:14 GMT 40.318565 -7.193173 35,975 45 424 -64
2022-01-26 05:51:10 GMT 40.313049 -7.200500 35,975 45 424 -64
2022-01-26 05:51:07 GMT 40.308327 -7.206657 35,975 45 425 -64
2022-01-26 05:51:04 GMT 40.304443 -7.211792 35,975 45 424 -64
2022-01-26 05:51:00 GMT 40.299866 -7.217834 36,000 45 424 -64
2022-01-26 05:50:56 GMT 40.293800 -7.225820 36,000 45 424 -64
2022-01-26 05:50:53 GMT 40.290207 -7.230591 36,000 45 425 0
2022-01-26 05:50:50 GMT 40.285355 -7.237000 36,000 45 425 0
2022-01-26 05:50:46 GMT 40.280777 -7.242981 36,000 45 425 -64
2022-01-26 05:50:43 GMT 40.275925 -7.249390 36,000 45 425 -64
2022-01-26 05:50:40 GMT 40.271072 -7.255737 36,000 45 425 0
2022-01-26 05:50:36 GMT 40.264709 -7.264160 36,000 45 426 -64
2022-01-26 05:50:33 GMT 40.262333 -7.267269 36,000 45 426 0
2022-01-26 05:50:30 GMT 40.257210 -7.274010 36,000 45 426 0
2022-01-26 05:50:26 GMT 40.252487 -7.280212 36,000 45 427 0
2022-01-26 05:50:23 GMT 40.248878 -7.284997 36,000 45 427 0
2022-01-26 05:50:19 GMT 40.243286 -7.292297 36,000 45 427 64
2022-01-26 05:50:16 GMT 40.238983 -7.297913 36,000 45 426 0
2022-01-26 05:50:13 GMT 40.234406 -7.303955 36,000 45 427 0
2022-01-26 05:50:10 GMT 40.230652 -7.308899 36,000 45 427 0
2022-01-26 05:50:07 GMT 40.226486 -7.314398 36,000 45 427 0
2022-01-26 05:50:03 GMT 40.220528 -7.322325 36,000 45 427 0
2022-01-26 05:49:59 GMT 40.215919 -7.328380 36,000 45 427 0
2022-01-26 05:49:56 GMT 40.211636 -7.334061 36,000 45 427 0
2022-01-26 05:49:53 GMT 40.205109 -7.342712 36,000 45 427 0
2022-01-26 05:49:50 GMT 40.202465 -7.346233 36,000 45 427 0
2022-01-26 05:49:47 GMT 40.198463 -7.351539 36,000 45 427 0
2022-01-26 05:49:44 GMT 40.193756 -7.357849 36,000 45 428 0
2022-01-26 05:49:40 GMT 40.188904 -7.364258 36,000 45 429 0
2022-01-26 05:49:37 GMT 40.184006 -7.370728 36,000 45 429 0
2022-01-26 05:49:33 GMT 40.179237 -7.376945 36,000 45 430 0
2022-01-26 05:49:30 GMT 40.175034 -7.382507 36,000 45 431 0
2022-01-26 05:49:26 GMT 40.169369 -7.389866 36,000 45 432 0
2022-01-26 05:49:23 GMT 40.164200 -7.396733 36,000 45 432 0
2022-01-26 05:49:20 GMT 40.160797 -7.401184 36,000 45 432 0
2022-01-26 05:49:16 GMT 40.154888 -7.408967 36,000 45 432 -64
2022-01-26 05:49:13 GMT 40.150558 -7.414710 36,000 45 432 0
2022-01-26 05:49:10 GMT 40.146183 -7.420453 36,000 45 432 0
2022-01-26 05:49:07 GMT 40.138458 -7.430603 36,000 45 432 0
2022-01-26 05:49:04 GMT 40.132416 -7.438538 36,000 45 431 0
2022-01-26 05:49:00 GMT 40.132416 -7.438538 36,000 45 431 0
2022-01-26 05:48:57 GMT 40.128891 -7.443176 36,000 45 431 0
2022-01-26 05:48:54 GMT 40.124119 -7.449417 36,000 45 430 0
2022-01-26 05:48:50 GMT 40.117416 -7.458281 36,000 45 429 -64
2022-01-26 05:48:46 GMT 40.111645 -7.465772 36,000 45 429 0
2022-01-26 05:48:42 GMT 40.107147 -7.471680 36,000 45 428 0
2022-01-26 05:48:38 GMT 40.100189 -7.480816 36,000 45 428 -64
2022-01-26 05:48:35 GMT 40.097538 -7.484311 36,000 45 427 0
2022-01-26 05:48:32 GMT 40.092930 -7.490304 36,000 45 427 0
2022-01-26 05:48:29 GMT 40.088600 -7.495984 36,000 45 427 64
2022-01-26 05:48:26 GMT 40.084946 -7.500732 36,000 45 427 64
2022-01-26 05:48:23 GMT 40.081467 -7.505310 36,000 45 427 64
2022-01-26 05:48:20 GMT 40.075241 -7.513550 36,000 45 429 64
2022-01-26 05:48:17 GMT 40.071167 -7.518860 36,000 45 430 0
2022-01-26 05:48:14 GMT 40.068535 -7.522326 36,000 45 430 64
2022-01-26 05:48:11 GMT 40.064896 -7.527100 36,000 45 432 384
2022-01-26 05:48:08 GMT 40.058990 -7.534851 36,000 45 432 0
2022-01-26 05:48:04 GMT 40.054615 -7.540616 36,000 45 433 64
2022-01-26 05:48:01 GMT 40.049820 -7.546858 35,975 45 434 128
2022-01-26 05:47:57 GMT 40.043724 -7.554848 35,950 45 432 384
2022-01-26 05:47:54 GMT 40.040649 -7.558906 35,950 45 432 448
2022-01-26 05:47:51 GMT 40.034969 -7.566272 35,925 45 431 704
2022-01-26 05:47:48 GMT 40.030792 -7.571838 35,875 45 431 768
2022-01-26 05:47:44 GMT 40.026398 -7.577515 35,850 45 430 768
2022-01-26 05:47:40 GMT 40.020493 -7.585248 35,775 45 430 768
2022-01-26 05:47:37 GMT 40.016163 -7.590929 35,725 45 430 832
2022-01-26 05:47:34 GMT 40.011932 -7.596436 35,700 45 430 768
2022-01-26 05:47:31 GMT 40.006855 -7.603038 35,675 45 430 768
2022-01-26 05:47:28 GMT 39.999390 -7.612732 35,625 45 430 768
2022-01-26 05:47:25 GMT 39.999390 -7.612732 35,575 45 431 768
2022-01-26 05:47:22 GMT 39.995911 -7.617310 35,550 45 431 768
2022-01-26 05:47:19 GMT 39.989395 -7.625760 35,450 45 431 768
2022-01-26 05:47:16 GMT 39.986298 -7.629822 35,475 45 431 704
2022-01-26 05:47:13 GMT 39.983067 -7.634000 35,450 45 431 704
2022-01-26 05:47:10 GMT 39.977291 -7.641553 35,400 45 431 896
2022-01-26 05:47:07 GMT 39.973618 -7.646301 35,375 45 431 832
2022-01-26 05:47:04 GMT 39.968540 -7.652914 35,250 45 432 832
2022-01-26 05:47:01 GMT 39.965149 -7.657288 35,300 45 431 768
2022-01-26 05:46:57 GMT 39.958672 -7.665773 35,225 45 432 832
2022-01-26 05:46:53 GMT 39.954437 -7.671265 35,150 45 432 960
2022-01-26 05:46:50 GMT 39.950912 -7.675903 35,125 45 432 960
2022-01-26 05:46:47 GMT 39.946381 -7.681815 35,075 45 432 1024
2022-01-26 05:46:44 GMT 39.941727 -7.687870 35,000 45 432 896
2022-01-26 05:46:41 GMT 39.936951 -7.694153 34,975 45 432 832
2022-01-26 05:46:36 GMT 39.930042 -7.703226 34,900 45 431 704
2022-01-26 05:46:33 GMT 39.925827 -7.708740 34,800 45 430 768
2022-01-26 05:46:29 GMT 39.919464 -7.717000 34,825 45 430 704
2022-01-26 05:46:25 GMT 39.914566 -7.723448 34,750 45 429 832
2022-01-26 05:46:22 GMT 39.911316 -7.727628 34,725 45 429 832
2022-01-26 05:46:19 GMT 39.904266 -7.736763 34,650 45 429 1024
2022-01-26 05:46:16 GMT 39.901600 -7.740234 34,650 45 429 1024
2022-01-26 05:46:13 GMT 39.898773 -7.743869 34,575 45 429 1088
2022-01-26 05:46:10 GMT 39.894291 -7.749695 34,550 45 429 1152
2022-01-26 05:46:06 GMT 39.886734 -7.759572 34,425 45 429 1152
2022-01-26 05:46:03 GMT 39.882793 -7.764648 34,350 45 428 576
2022-01-26 05:46:00 GMT 39.879959 -7.768289 34,375 45 428 832
2022-01-26 05:45:56 GMT 39.874237 -7.775753 34,325 45 427 448
2022-01-26 05:45:53 GMT 39.869888 -7.781425 34,300 44 426 320
2022-01-26 05:45:50 GMT 39.865379 -7.787231 34,300 45 425 320
2022-01-26 05:45:46 GMT 39.859703 -7.794617 34,225 45 424 896
2022-01-26 05:45:43 GMT 39.855930 -7.799500 34,200 45 424 1280
2022-01-26 05:45:39 GMT 39.851089 -7.805786 34,150 45 424 1536
2022-01-26 05:45:36 GMT 39.846249 -7.812073 34,025 45 425 1600
2022-01-26 05:45:33 GMT 39.841919 -7.817688 33,925 45 425 1536
2022-01-26 05:45:29 GMT 39.837032 -7.824036 33,875 44 426 1536
2022-01-26 05:45:24 GMT 39.828827 -7.834685 33,725 44 426 1536
2022-01-26 05:45:20 GMT 39.823380 -7.841731 33,625 44 427 1472
2022-01-26 05:45:15 GMT 39.816360 -7.850769 33,475 44 427 1536
2022-01-26 05:45:12 GMT 39.811752 -7.856689 33,425 44 427 1600
2022-01-26 05:45:09 GMT 39.809052 -7.860168 33,375 44 427 1664
2022-01-26 05:45:05 GMT 39.802349 -7.868835 33,175 44 429 1472
2022-01-26 05:45:02 GMT 39.799511 -7.872498 33,150 44 429 1344
2022-01-26 05:44:59 GMT 39.794449 -7.879048 33,100 44 429 1280
2022-01-26 05:44:55 GMT 39.788269 -7.886989 32,975 44 429 1344
2022-01-26 05:44:52 GMT 39.784744 -7.891587 32,925 44 429 1344
2022-01-26 05:44:49 GMT 39.780376 -7.897217 32,875 45 429 1280
2022-01-26 05:44:44 GMT 39.772511 -7.907410 32,775 45 429 1088
2022-01-26 05:44:41 GMT 39.768860 -7.912127 32,725 45 429 1088
2022-01-26 05:44:38 GMT 39.765656 -7.916306 32,675 45 428 1088
2022-01-26 05:44:35 GMT 39.759064 -7.924844 32,600 45 428 1408
2022-01-26 05:44:32 GMT 39.751934 -7.934143 32,450 45 428 1408
2022-01-26 05:44:29 GMT 39.751934 -7.934143 32,500 45 427 1280
2022-01-26 05:44:24 GMT 39.745369 -7.942627 32,350 44 427 1600
2022-01-26 05:44:21 GMT 39.739506 -7.950256 32,275 44 428 1664
2022-01-26 05:44:18 GMT 39.737225 -7.953125 32,225 44 428 1664
2022-01-26 05:44:15 GMT 39.730911 -7.961267 32,100 44 429 1600
2022-01-26 05:44:12 GMT 39.728119 -7.964909 32,050 44 429 1472
2022-01-26 05:44:08 GMT 39.723305 -7.971069 31,975 44 429 1344
2022-01-26 05:44:04 GMT 39.716583 -7.979776 31,875 44 428 960
2022-01-26 05:44:01 GMT 39.713203 -7.984131 31,825 44 427 960
2022-01-26 05:43:58 GMT 39.708984 -7.989568 31,800 44 427 960
2022-01-26 05:43:55 GMT 39.700562 -8.000375 31,700 44 427 1088
2022-01-26 05:43:52 GMT 39.700562 -8.000375 31,675 44 427 1152
2022-01-26 05:43:49 GMT 39.696072 -8.006165 31,575 44 426 1344
2022-01-26 05:43:44 GMT 39.688660 -8.015721 31,500 44 426 1472
2022-01-26 05:43:41 GMT 39.685177 -8.020203 31,400 44 426 1664
2022-01-26 05:43:38 GMT 39.680569 -8.026123 31,350 44 426 1728
2022-01-26 05:43:34 GMT 39.673538 -8.035095 31,200 44 427 1664
2022-01-26 05:43:30 GMT 39.665581 -8.045349 31,100 44 427 1792
2022-01-26 05:43:27 GMT 39.665581 -8.045349 31,050 44 427 1856
2022-01-26 05:43:23 GMT 39.659409 -8.053277 30,850 44 428 1984
2022-01-26 05:43:20 GMT 39.656593 -8.056946 30,850 44 428 1984
2022-01-26 05:43:17 GMT 39.651382 -8.063599 30,700 44 429 1920
2022-01-26 05:43:13 GMT 39.644897 -8.071966 30,575 44 429 1728
2022-01-26 05:43:10 GMT 39.642071 -8.075562 30,525 44 429 1664
2022-01-26 05:43:07 GMT 39.637299 -8.081758 30,425 44 429 1664
2022-01-26 05:43:03 GMT 39.631210 -8.089580 30,225 44 430 1920
2022-01-26 05:43:00 GMT 39.625305 -8.097163 30,175 44 430 1856
2022-01-26 05:42:57 GMT 39.623016 -8.100088 30,100 44 430 1664
2022-01-26 05:42:53 GMT 39.616653 -8.108276 29,900 44 428 768
2022-01-26 05:42:50 GMT 39.613998 -8.111731 29,925 44 429 832
2022-01-26 05:42:46 GMT 39.607224 -8.120449 29,825 44 427 896
2022-01-26 05:42:43 GMT 39.601730 -8.127494 29,850 44 427 768
2022-01-26 05:42:39 GMT 39.596962 -8.133606 29,800 44 425 1024
2022-01-26 05:42:36 GMT 39.594307 -8.137024 29,775 44 425 1216
2022-01-26 05:42:33 GMT 39.587311 -8.146004 29,650 44 425 1728
2022-01-26 05:42:30 GMT 39.585232 -8.148682 29,600 44 425 1856
2022-01-26 05:42:26 GMT 39.579365 -8.156189 29,475 44 425 2048
2022-01-26 05:42:23 GMT 39.575867 -8.160692 29,375 44 426 2176
2022-01-26 05:42:20 GMT 39.570969 -8.166962 29,250 44 426 2176
2022-01-26 05:42:17 GMT 39.567307 -8.171631 29,100 44 427 1984
2022-01-26 05:42:14 GMT 39.562546 -8.177709 29,050 44 427 1856
2022-01-26 05:42:11 GMT 39.558601 -8.182739 28,925 44 427 1664
2022-01-26 05:42:08 GMT 39.553848 -8.188875 28,875 44 427 1600
2022-01-26 05:42:03 GMT 39.542862 -8.202846 28,700 44 426 1472
2022-01-26 05:42:00 GMT 39.542862 -8.202846 28,675 44 426 1408
2022-01-26 05:41:55 GMT 39.536861 -8.210571 28,500 44 423 1088
2022-01-26 05:41:52 GMT 39.531418 -8.217529 28,500 44 423 1088
2022-01-26 05:41:48 GMT 39.525410 -8.225220 28,425 44 422 1216
2022-01-26 05:41:43 GMT 39.514618 -8.239030 28,300 44 420 1472
2022-01-26 05:41:40 GMT 39.514618 -8.239030 28,250 44 420 1600
2022-01-26 05:41:37 GMT 39.511166 -8.243469 28,175 44 420 1664
2022-01-26 05:41:33 GMT 39.505920 -8.250195 28,000 44 419 1856
2022-01-26 05:41:30 GMT 39.500225 -8.257385 27,925 44 419 1920
2022-01-26 05:41:27 GMT 39.497360 -8.261122 27,875 44 419 1984
2022-01-26 05:41:23 GMT 39.491844 -8.268188 27,675 44 419 2048
2022-01-26 05:41:20 GMT 39.487244 -8.273959 27,575 44 419 2112
2022-01-26 05:41:17 GMT 39.483559 -8.278748 27,525 44 419 2112
2022-01-26 05:41:14 GMT 39.480068 -8.283142 27,250 44 420 2112
2022-01-26 05:41:10 GMT 39.473457 -8.291626 27,225 44 420 2112
2022-01-26 05:41:07 GMT 39.469437 -8.296768 27,150 44 420 1984
2022-01-26 05:41:04 GMT 39.465870 -8.301331 27,025 44 419 1600
2022-01-26 05:41:00 GMT 39.458424 -8.310852 26,925 44 417 1344
2022-01-26 05:40:57 GMT 39.455246 -8.314919 26,900 44 417 1344
2022-01-26 05:40:54 GMT 39.452362 -8.318561 26,850 44 416 1344
2022-01-26 05:40:50 GMT 39.446732 -8.325726 26,700 44 415 1728
2022-01-26 05:40:47 GMT 39.440735 -8.333428 26,600 44 414 1984
2022-01-26 05:40:43 GMT 39.435799 -8.339661 26,500 44 414 1984
2022-01-26 05:40:39 GMT 39.430893 -8.345907 26,350 44 413 1920
2022-01-26 05:40:36 GMT 39.426956 -8.350923 26,275 44 413 1856
2022-01-26 05:40:33 GMT 39.423935 -8.354744 26,225 44 412 1856
2022-01-26 05:40:29 GMT 39.416748 -8.363939 26,050 44 411 1920
2022-01-26 05:40:26 GMT 39.413635 -8.367880 25,975 44 411 1920
2022-01-26 05:40:23 GMT 39.410381 -8.372070 25,900 44 411 1792
2022-01-26 05:40:19 GMT 39.402924 -8.381494 25,750 44 410 1408
2022-01-26 05:40:16 GMT 39.399673 -8.385620 25,700 44 408 1280
2022-01-26 05:40:13 GMT 39.396416 -8.389771 25,650 44 407 1216
2022-01-26 05:40:09 GMT 39.389709 -8.398254 25,525 44 404 1536
2022-01-26 05:40:06 GMT 39.386639 -8.402161 25,475 44 404 1728
2022-01-26 05:40:03 GMT 39.382782 -8.407049 25,350 44 403 1920
2022-01-26 05:39:59 GMT 39.377747 -8.413513 25,275 44 402 1984
2022-01-26 05:39:56 GMT 39.372574 -8.420065 25,150 44 401 2048
2022-01-26 05:39:51 GMT 39.366623 -8.427648 24,875 44 397 1856
2022-01-26 05:39:48 GMT 39.360947 -8.434873 24,875 44 400 1920
2022-01-26 05:39:45 GMT 39.358978 -8.437381 24,600 44 397 1856
2022-01-26 05:39:40 GMT 39.351746 -8.446516 24,625 44 397 1856
2022-01-26 05:39:37 GMT 39.348450 -8.450696 24,550 44 397 1920
2022-01-26 05:39:34 GMT 39.345207 -8.454834 24,475 44 395 1984
2022-01-26 05:39:31 GMT 39.339340 -8.462279 24,325 44 395 2112
2022-01-26 05:39:28 GMT 39.332314 -8.471252 24,200 44 394 2176
2022-01-26 05:39:25 GMT 39.332314 -8.471252 24,125 44 394 2176
2022-01-26 05:39:21 GMT 39.327747 -8.476990 24,000 44 393 2112
2022-01-26 05:39:17 GMT 39.322025 -8.484253 23,825 44 392 1984
2022-01-26 05:39:14 GMT 39.319061 -8.488013 23,575 44 390 2048
2022-01-26 05:39:11 GMT 39.313889 -8.494581 23,625 44 390 1984
2022-01-26 05:39:08 GMT 39.305637 -8.505005 23,525 44 389 2176
2022-01-26 05:39:05 GMT 39.305637 -8.505005 23,425 44 389 2432
2022-01-26 05:39:02 GMT 39.303085 -8.508254 23,300 44 388 2688
2022-01-26 05:38:59 GMT 39.298050 -8.514583 23,150 44 389 2880
2022-01-26 05:38:55 GMT 39.294342 -8.519300 22,975 44 389 2944
2022-01-26 05:38:52 GMT 39.290230 -8.524475 22,875 44 389 3136
2022-01-26 05:38:48 GMT 39.285095 -8.531003 22,625 44 391 3712
2022-01-26 05:38:44 GMT 39.280060 -8.537392 22,375 44 392 4032
2022-01-26 05:38:41 GMT 39.276855 -8.541452 22,125 44 395 3840
2022-01-26 05:38:38 GMT 39.271748 -8.547913 21,975 44 396 3584
2022-01-26 05:38:35 GMT 39.268478 -8.552021 21,725 44 396 3264
2022-01-26 05:38:32 GMT 39.263786 -8.557983 21,575 44 398 2944
2022-01-26 05:38:29 GMT 39.259827 -8.562947 21,200 44 397 2688
2022-01-26 05:38:26 GMT 39.256432 -8.567261 21,375 44 398 2816
2022-01-26 05:38:23 GMT 39.252731 -8.571903 21,225 44 398 2752
2022-01-26 05:38:19 GMT 39.246468 -8.579895 20,950 44 396 2432
2022-01-26 05:38:15 GMT 39.241348 -8.586304 20,850 44 396 2496
2022-01-26 05:38:11 GMT 39.236893 -8.591965 20,650 44 395 2496
2022-01-26 05:38:08 GMT 39.232967 -8.596924 20,600 44 394 2432
2022-01-26 05:38:04 GMT 39.228012 -8.603131 20,400 44 393 2304
2022-01-26 05:38:01 GMT 39.222931 -8.609520 20,275 44 392 2240
2022-01-26 05:37:58 GMT 39.219841 -8.613464 20,025 44 389 2048
2022-01-26 05:37:54 GMT 39.210251 -8.625521 20,025 44 389 2048
2022-01-26 05:37:51 GMT 39.210251 -8.625521 19,900 44 388 2112
2022-01-26 05:37:48 GMT 39.207039 -8.629578 19,875 44 387 2176
2022-01-26 05:37:43 GMT 39.200150 -8.638306 19,450 44 383 2240
2022-01-26 05:37:40 GMT 39.196194 -8.643250 19,550 44 384 2240
2022-01-26 05:37:37 GMT 39.191849 -8.648688 19,425 44 383 2176
2022-01-26 05:37:33 GMT 39.187302 -8.654419 19,275 44 381 2240
2022-01-26 05:37:30 GMT 39.183670 -8.659058 19,175 44 379 2304
2022-01-26 05:37:27 GMT 39.181000 -8.662421 19,100 44 379 2368
2022-01-26 05:37:24 GMT 39.174500 -8.670601 18,875 44 378 2496
2022-01-26 05:37:20 GMT 39.171524 -8.674363 18,625 44 376 2496
2022-01-26 05:37:16 GMT 39.166534 -8.680692 18,525 44 374 2432
2022-01-26 05:37:13 GMT 39.161682 -8.686782 18,250 44 372 2368
2022-01-26 05:37:08 GMT 39.156250 -8.693604 18,275 44 372 2368
2022-01-26 05:37:05 GMT 39.152946 -8.697815 18,125 44 371 2432
2022-01-26 05:37:02 GMT 39.149277 -8.702426 18,050 44 370 2496
2022-01-26 05:36:58 GMT 39.143738 -8.709352 17,625 44 367 2752
2022-01-26 05:36:55 GMT 39.140442 -8.713531 17,700 44 367 2624
2022-01-26 05:36:52 GMT 39.136459 -8.718547 17,600 44 367 2752
2022-01-26 05:36:49 GMT 39.133068 -8.722839 17,400 44 365 3072
2022-01-26 05:36:46 GMT 39.129532 -8.727234 17,325 44 365 3200
2022-01-26 05:36:42 GMT 39.124363 -8.733826 17,075 44 365 3456
2022-01-26 05:36:37 GMT 39.119247 -8.740221 16,750 44 366 3392
2022-01-26 05:36:34 GMT 39.115265 -8.745237 16,650 44 366 3264
2022-01-26 05:36:31 GMT 39.112015 -8.749356 16,400 44 366 3008
2022-01-26 05:36:28 GMT 39.107372 -8.755127 16,025 44 363 2816
2022-01-26 05:36:25 GMT 39.103775 -8.759686 16,125 44 364 2816
2022-01-26 05:36:22 GMT 39.099289 -8.765239 16,000 44 363 2816
2022-01-26 05:36:17 GMT 39.094620 -8.771150 15,825 44 362 2752
2022-01-26 05:36:14 GMT 39.090637 -8.776106 15,675 44 360 2688
2022-01-26 05:36:11 GMT 39.087662 -8.779867 15,550 44 360 2688
2022-01-26 05:36:07 GMT 39.082653 -8.786133 15,375 44 358 2816
2022-01-26 05:36:04 GMT 39.078743 -8.791077 15,200 44 357 2944
2022-01-26 05:36:01 GMT 39.075527 -8.795044 15,075 44 356 3008
2022-01-26 05:35:57 GMT 39.070686 -8.801147 14,550 44 354 3392
2022-01-26 05:35:53 GMT 39.066696 -8.806139 14,675 44 354 3264
2022-01-26 05:35:48 GMT 39.060726 -8.813660 14,225 44 354 3584
2022-01-26 05:35:44 GMT 39.054722 -8.821106 14,075 44 354 3520
2022-01-26 05:35:38 GMT 39.048389 -8.829041 13,775 44 353 3328
2022-01-26 05:35:34 GMT 39.043549 -8.835083 13,525 44 353 3200
2022-01-26 05:35:31 GMT 39.038754 -8.841064 13,325 44 352 2944
2022-01-26 05:35:27 GMT 39.035019 -8.845785 12,975 44 346 2048
2022-01-26 05:35:23 GMT 39.031677 -8.849965 12,925 44 347 2112
2022-01-26 05:35:20 GMT 39.027069 -8.855774 12,925 44 345 1920
2022-01-26 05:35:16 GMT 39.022247 -8.861787 12,825 44 342 1664
2022-01-26 05:35:13 GMT 39.019341 -8.865479 12,700 44 335 1344
2022-01-26 05:35:10 GMT 39.015976 -8.869728 12,650 44 333 1344
2022-01-26 05:35:07 GMT 39.013195 -8.873169 12,550 44 328 1664
2022-01-26 05:35:03 GMT 39.008514 -8.879043 12,450 44 324 2368
2022-01-26 05:35:00 GMT 39.004303 -8.884297 12,325 44 323 2944
2022-01-26 05:34:56 GMT 39.000778 -8.888716 12,150 44 321 3200
2022-01-26 05:34:52 GMT 38.996841 -8.893671 11,700 44 321 3392
2022-01-26 05:34:48 GMT 38.992249 -8.899353 11,675 44 319 3520
2022-01-26 05:34:45 GMT 38.989922 -8.902283 11,550 44 319 3392
2022-01-26 05:34:42 GMT 38.986012 -8.907166 11,375 44 317 2944
2022-01-26 05:34:38 GMT 38.980843 -8.913635 11,125 44 316 2752
2022-01-26 05:34:35 GMT 38.978989 -8.916002 11,050 44 314 2560
2022-01-26 05:34:31 GMT 38.974789 -8.921265 10,950 44 311 2240
2022-01-26 05:34:28 GMT 38.968273 -8.929443 10,775 44 304 1536
2022-01-26 05:34:25 GMT 38.968273 -8.929443 10,725 44 301 1408
2022-01-26 05:34:22 GMT 38.964783 -8.933838 10,625 44 292 1600
2022-01-26 05:34:18 GMT 38.961227 -8.938274 10,550 44 291 1664
2022-01-26 05:34:15 GMT 38.958126 -8.942139 10,450 44 287 2112
2022-01-26 05:34:12 GMT 38.954681 -8.946394 9,700 44 282 3200
2022-01-26 05:34:08 GMT 38.951515 -8.950378 10,000 44 283 3328
2022-01-26 05:34:04 GMT 38.948685 -8.953917 9,950 44 282 3200
2022-01-26 05:34:01 GMT 38.945389 -8.958037 9,775 44 280 3072
2022-01-26 05:33:58 GMT 38.942902 -8.961182 9,575 44 279 3072
2022-01-26 05:33:55 GMT 38.940491 -8.964187 9,450 44 277 3136
2022-01-26 05:33:52 GMT 38.936966 -8.968546 9,225 44 275 3328
2022-01-26 05:33:49 GMT 38.933498 -8.972839 9,025 44 273 3584
2022-01-26 05:33:45 GMT 38.931244 -8.975711 8,875 44 273 3904
2022-01-26 05:33:42 GMT 38.926163 -8.982040 8,575 44 273 4032
2022-01-26 05:33:37 GMT 38.923256 -8.985657 8,275 44 273 4160
2022-01-26 05:33:34 GMT 38.921070 -8.988403 8,275 44 273 4160
2022-01-26 05:33:31 GMT 38.917969 -8.992250 7,925 44 274 4544
2022-01-26 05:33:27 GMT 38.913528 -8.997803 7,550 44 276 4736
2022-01-26 05:33:24 GMT 38.912155 -8.999534 7,425 44 277 4544
2022-01-26 05:33:21 GMT 38.908360 -9.004211 7,125 44 278 4352
2022-01-26 05:33:17 GMT 38.905148 -9.008301 6,800 44 279 4096
2022-01-26 05:33:14 GMT 38.902821 -9.011169 6,725 44 279 4032
2022-01-26 05:33:10 GMT 38.898743 -9.016253 6,100 44 275 3520
2022-01-26 05:33:06 GMT 38.895092 -9.020874 6,100 44 276 3584
2022-01-26 05:33:00 GMT 38.889553 -9.027710 5,825 44 274 3520
2022-01-26 05:32:56 GMT 38.885651 -9.032613 5,575 44 272 3584
2022-01-26 05:32:53 GMT 38.881943 -9.037210 5,325 44 270 3584
2022-01-26 05:32:50 GMT 38.880058 -9.039551 5,200 44 269 3584
2022-01-26 05:32:46 GMT 38.876862 -9.043539 4,975 43 268 3520
2022-01-26 05:32:40 GMT 38.871586 -9.050049 4,650 43 263 3264
2022-01-26 05:32:34 GMT 38.866058 -9.056854 4,300 43 259 3072
2022-01-26 05:32:31 GMT 38.862625 -9.061153 4,125 43 253 3008
2022-01-26 05:32:24 GMT 38.857773 -9.067064 3,825 43 250 2944
2022-01-26 05:32:21 GMT 38.854919 -9.070618 3,650 43 245 2880
2022-01-26 05:32:16 GMT 38.850082 -9.076498 3,400 43 238 2432
2022-01-26 05:32:11 GMT 38.846786 -9.080439 3,250 43 232 2240
2022-01-26 05:32:04 GMT 38.841934 -9.086231 3,025 43 224 1920
2022-01-26 05:32:00 GMT 38.838207 -9.090698 2,875 43 213 2240
2022-01-26 05:31:54 GMT 38.834064 -9.095642 2,625 43 205 2816
2022-01-26 05:31:50 GMT 38.831505 -9.098755 2,425 43 204 3008
2022-01-26 05:31:44 GMT 38.827194 -9.103904 2,150 43 198 2176
2022-01-26 05:31:40 GMT 38.824860 -9.106770 2,025 41 194 1792
2022-01-26 05:31:33 GMT 38.820377 -9.111816 1,875 36 185 1408
2022-01-26 05:31:30 GMT 38.818001 -9.114136 1,800 33 180 1152
2022-01-26 05:31:23 GMT 38.813534 -9.117676 1,575 25 169 1344
2022-01-26 05:31:19 GMT 38.810741 -9.119446 1,575 24 167 1216
2022-01-26 05:31:14 GMT 38.806969 -9.121582 1,475 24 161 1280
2022-01-26 05:31:09 GMT 38.803570 -9.123535 1,375 23 154 1280
2022-01-26 05:31:03 GMT 38.799427 -9.125854 1,150 22 151 2496
2022-01-26 05:31:00 GMT 38.797577 -9.126892 1,025 23 151 2560
2022-01-26 05:30:55 GMT 38.794235 -9.128683 0 23 154 2688
2022-01-26 05:30:49 GMT 38.790802 -9.130594 375 24 156 2496
2022-01-26 05:30:45 GMT 38.787743 -9.132324 350 23 157 2560
2022-01-26 05:30:36 GMT 38.781509 -9.135789 25 22 153 320
2022-01-26 05:30:20 GMT 38.770477 -9.141700 50 23 90 128
2022-01-26 05:30:06 GMT 38.766842 -9.143677 0 22 26
2022-01-26 05:29:52 GMT 38.765739 -9.143909 0 312 18
2022-01-26 05:29:37 GMT 38.765179 -9.142410 0 292 20
2022-01-26 05:29:26 GMT 38.764957 -9.141678 0 275 18
2022-01-26 05:29:25 GMT 38.764950 -9.141565 0 270 18
2022-01-26 05:29:22 GMT 38.765095 -9.140839 0 230 17
2022-01-26 05:29:13 GMT 38.765316 -9.140518 0 227 19
2022-01-26 05:29:08 GMT 38.765781 -9.139526 0 258 19
2022-01-26 05:28:55 GMT 38.765923 -9.138672 0 258 20
2022-01-26 05:28:50 GMT 38.766003 -9.138184 0 258 20
2022-01-26 05:28:40 GMT 38.766270 -9.136612 0 258 18
2022-01-26 05:28:37 GMT 38.766323 -9.136266 0 258 17
2022-01-26 05:28:33 GMT 38.766300 -9.136416 0 258 17
2022-01-26 05:28:21 GMT 38.766483 -9.135326 0 241 15
2022-01-26 05:28:18 GMT 38.766552 -9.134933 0 247 15
2022-01-26 05:28:14 GMT 38.766621 -9.134659 0 233 16
2022-01-26 05:28:08 GMT 38.766895 -9.134311 0 213 17
2022-01-26 05:28:05 GMT 38.767365 -9.133803 0 241 16
2022-01-26 05:28:02 GMT 38.767262 -9.133982 0 230 16
2022-01-26 05:27:48 GMT 38.767616 -9.132818 0 258 14
2022-01-26 05:27:44 GMT 38.767673 -9.132505 0 258 13
2022-01-26 05:27:32 GMT 38.767811 -9.131714 0 244 12
2022-01-26 05:27:28 GMT 38.767887 -9.131439 0 219 12
2022-01-26 05:27:16 GMT 38.768471 -9.131287 0 168 13
2022-01-26 05:27:00 GMT 38.769287 -9.131505 0 168 10

Making use of Plane Finder data

You are free to use the raw flight data, aircraft information and images provided in this report for your own purposes provided the data is correctly attributed to Plane Finder. We ask that you please credit Plane Finder and link to planefinder.net in close proximity to the content.

Optionally one of the following logos (no smaller then 150x24px) can be used and must link to planefinder.net

Embedding the Plane Finder map

You are welcome to embed the Plane Finder playback map on your website to offer visitors a more interactive experience. We suggest using the following HTML code:

<iframe src="//planefinder.net/data/report/LH1173-D-AINE-7700-squawk-2022-01-26/map" width="800" height="600" seamless="seamless"></iframe>

Where our data comes from

Plane Finder has a global network of data feeds and antenna radars that receive data broadcast directly from aircraft. The primary technologies used are ADS-B and MLAT. We also show feeds from the FAA and a FLARM glider feed.

Click here to find out more about the Plane Finder network.

How we collect our data